[[{"header":{"parameterUnit":"m.s-1","parameterCategory":1,"la1":30.6,"la2":28.766,"lo1":-90.7593,"lo2":-88.6598,"dy":0.0162,"dx":0.0183,"nx":116,"ny":114,"refTime":"2023-09-23T06:00:00:Z","depth":0,"parameterNumber":2,"parameterNumberName":"U-component_of_WINDS"},"data":[0.0,0.0,0.0,0.0,0.0,0.0,0.0,0.0,0.0,0.0,0.0,0.0,0.0,0.0,0.0,0.0,0.0,0.0,0.0,0.0,0.0,0.0,0.0,0.0,0.0,0.0,0.0,0.0,0.0,0.0,0.0,0.0,0.0,0.0,0.0,0.0,0.0,0.0,0.0,0.0,0.0,0.0,0.0,0.0,0.0,0.0,0.0,0.0,0.0,0.0,0.0,0.0,0.0,0.0,0.0,0.0,0.0,0.0,0.0,0.0,0.0,0.0,0.0,0.0,0.0,0.0,0.0,0.0,0.0,0.0,0.0,0.0,0.0,0.0,0.0,0.0,0.0,0.0,0.0,0.0,0.0,0.0,0.0,0.0,0.0,0.0,0.0,0.0,0.0,0.0,0.0,0.0,0.0,0.0,0.0,0.0,0.0,0.0,0.0,0.0,0.0,0.0,0.0,0.0,0.0,0.0,0.0,0.0,0.0,0.0,0.0,0.0,0.0,0.0,0.0,0.0,0.0,0.0,0.0,0.0,0.0,0.0,0.0,0.0,0.0,0.0,0.0,0.0,0.0,0.0,0.0,0.0,0.0,0.0,0.0,0.0,0.0,0.0,0.0,0.0,0.0,0.0,0.0,0.0,0.0,0.0,0.0,0.0,0.0,0.0,0.0,0.0,0.0,0.0,0.0,0.0,0.0,0.0,0.0,0.0,0.0,0.0,0.0,0.0,0.0,0.0,0.0,0.0,0.0,0.0,0.0,0.0,0.0,0.0,0.0,0.0,0.0,0.0,0.0,0.0,0.0,0.0,0.0,0.0,0.0,0.0,0.0,0.0,0.0,0.0,0.0,0.0,0.0,0.0,0.0,0.0,0.0,0.0,0.0,0.0,0.0,0.0,0.0,0.0,0.0,0.0,0.0,0.0,0.0,0.0,0.0,0.0,0.0,0.0,0.0,0.0,0.0,0.0,0.0,0.0,0.0,0.0,0.0,0.0,0.0,0.0,0.0,0.0,0.0,0.0,0.0,0.0,0.0,0.0,0.0,0.0,0.0,0.0,0.0,0.0,0.0,0.0,0.0,0.0,0.0,0.0,0.0,0.0,0.0,0.0,0.0,0.0,0.0,0.0,0.0,0.0,0.0,0.0,0.0,0.0,0.0,0.0,0.0,0.0,0.0,0.0,0.0,0.0,0.0,0.0,0.0,0.0,0.0,0.0,0.0,0.0,0.0,0.0,0.0,0.0,0.0,0.0,0.0,0.0,0.0,0.0,0.0,0.0,0.0,0.0,0.0,0.0,0.0,0.0,0.0,0.0,0.0,0.0,0.0,0.0,0.0,0.0,0.0,0.0,0.0,0.0,0.0,0.0,0.0,0.0,0.0,0.0,0.0,0.0,0.0,0.0,0.0,0.0,0.0,0.0,0.0,0.0,0.0,0.0,0.0,0.0,0.0,0.0,0.0,0.0,0.0,0.0,0.0,0.0,0.0,0.0,0.0,0.0,0.0,0.0,0.0,0.0,0.0,0.0,0.0,0.0,0.0,0.0,0.0,0.0,0.0,0.0,0.0,0.0,0.0,0.0,0.0,0.0,0.0,0.0,0.0,0.0,0.0,0.0,0.0,0.0,0.0,0.0,0.0,0.0,0.0,0.0,0.0,0.0,0.0,0.0,0.0,0.0,0.0,0.0,0.0,0.0,0.0,0.0,0.0,0.0,0.0,0.0,0.0,0.0,0.0,0.0,0.0,0.0,0.0,0.0,0.0,0.0,0.0,0.0,0.0,0.0,0.0,0.0,0.0,0.0,0.0,0.0,0.0,0.0,0.0,0.0,0.0,0.0,0.0,0.0,0.0,0.0,0.0,0.0,0.0,0.0,0.0,0.0,0.0,0.0,0.0,0.0,0.0,0.0,0.0,0.0,0.0,0.0,0.0,0.0,0.0,0.0,0.0,0.0,0.0,0.0,0.0,0.0,0.0,0.0,0.0,0.0,0.0,0.0,0.0,0.0,0.0,0.0,0.0,0.0,0.0,0.0,0.0,0.0,0.0,0.0,0.0,0.0,0.0,0.0,0.0,0.0,0.0,0.0,0.0,0.0,0.0,0.0,0.0,0.0,0.0,0.0,0.0,0.0,0.0,0.0,0.0,0.0,0.0,0.0,0.0,0.0,0.0,0.0,0.0,0.0,0.0,0.0,0.0,0.0,0.0,0.0,0.0,0.0,0.0,0.0,0.0,0.0,0.0,0.0,0.0,0.0,0.0,0.0,0.0,0.0,0.0,0.0,0.0,0.0,0.0,0.0,0.0,0.0,0.0,0.0,0.0,0.0,0.0,0.0,0.0,0.0,0.0,0.0,0.0,0.0,0.0,0.0,0.0,0.0,0.0,0.0,0.0,0.0,0.0,0.0,0.0,0.0,0.0,0.0,0.0,0.0,0.0,0.0,0.0,0.0,0.0,0.0,0.0,0.0,0.0,0.0,0.0,0.0,0.0,0.0,0.0,0.0,0.0,0.0,0.0,0.0,0.0,0.0,0.0,0.0,0.0,0.0,0.0,0.0,0.0,0.0,0.0,0.0,0.0,0.0,0.0,0.0,0.0,0.0,0.0,0.0,0.0,0.0,0.0,0.0,0.0,0.0,0.0,0.0,0.0,0.0,0.0,0.0,0.0,0.0,0.0,0.0,0.0,0.0,0.0,0.0,0.0,0.0,0.0,0.0,0.0,0.0,0.0,0.0,0.0,0.0,0.0,0.0,0.0,0.0,0.0,0.0,0.0,0.0,0.0,0.0,0.0,0.0,0.0,0.0,0.0,0.0,0.0,0.0,0.0,0.0,0.0,0.0,0.0,0.0,0.0,0.0,0.0,0.0,0.0,0.0,0.0,0.0,0.0,0.0,0.0,0.0,0.0,0.0,0.0,0.0,0.0,0.0,0.0,0.0,0.0,0.0,0.0,0.0,0.0,0.0,0.0,0.0,0.0,0.0,0.0,0.0,0.0,0.0,0.0,0.0,0.0,0.0,0.0,0.0,0.0,0.0,0.0,0.0,0.0,0.0,0.0,0.0,0.0,0.0,0.0,0.0,0.0,0.0,0.0,0.0,0.0,0.0,0.0,0.0,0.0,0.0,0.0,0.0,0.0,0.0,0.0,0.0,0.0,0.0,0.0,0.0,0.0,0.0,0.0,0.0,0.0,0.0,0.0,0.0,0.0,0.0,0.0,0.0,0.0,0.0,0.0,0.0,0.0,0.0,0.0,0.0,0.0,0.0,0.0,0.0,0.0,0.0,0.0,0.0,0.0,0.0,0.0,0.0,0.0,0.0,0.0,0.0,0.0,0.0,0.0,0.0,0.0,0.0,0.0,0.0,0.0,0.0,0.0,0.0,0.0,0.0,0.0,0.0,0.0,0.0,0.0,0.0,0.0,0.0,0.0,0.0,0.0,0.0,0.0,0.0,0.0,0.0,0.0,0.0,0.0,0.0,0.0,0.0,0.0,0.0,0.0,0.0,0.0,0.0,0.0,0.0,0.0,0.0,0.0,0.0,0.0,0.0,0.0,0.0,0.0,0.0,0.0,0.0,0.0,0.0,0.0,0.0,0.0,0.0,0.0,0.0,0.0,0.0,0.0,0.0,0.0,0.0,0.0,0.0,0.0,0.0,0.0,0.0,0.0,0.0,0.0,0.0,0.0,0.0,0.0,0.0,0.0,0.0,0.0,0.0,0.0,0.0,0.0,0.0,0.0,0.0,0.0,0.0,0.0,0.0,0.0,0.0,0.0,0.0,0.0,0.0,0.0,0.0,0.0,0.0,0.0,0.0,0.0,0.0,0.0,0.0,0.0,0.0,0.0,0.0,0.0,0.0,0.0,0.0,0.0,0.0,0.0,0.0,0.0,0.0,0.0,0.0,0.0,0.0,0.0,0.0,0.0,0.0,0.0,0.0,0.0,0.0,0.0,0.0,0.0,0.0,0.0,0.0,0.0,0.0,0.0,0.0,0.0,0.0,0.0,0.0,0.0,0.0,0.0,0.0,0.0,0.0,0.0,0.0,0.0,0.0,0.0,0.0,0.0,0.0,0.0,0.0,0.0,0.0,0.0,0.0,0.0,0.0,0.0,0.0,0.0,0.0,0.0,0.0,0.0,0.0,0.0,0.0,0.0,0.0,0.0,0.0,0.0,0.0,0.0,0.0,0.0,0.0,0.0,0.0,0.0,0.0,0.0,0.0,0.0,0.0,0.0,0.0,0.0,0.0,0.0,0.0,0.0,0.0,0.0,0.0,0.0,0.0,0.0,0.0,0.0,0.0,0.0,0.0,0.0,0.0,0.0,0.0,0.0,0.0,0.0,0.0,0.0,0.0,0.0,0.0,0.0,0.0,0.0,0.0,0.0,0.0,0.0,0.0,0.0,0.0,0.0,0.0,0.0,0.0,0.0,0.0,0.0,0.0,0.0,0.0,0.0,0.0,0.0,0.0,0.0,0.0,0.0,0.0,0.0,0.0,0.0,0.0,0.0,0.0,0.0,0.0,0.0,0.0,0.0,0.0,0.0,0.0,0.0,0.0,0.0,0.0,0.0,0.0,0.0,0.0,0.0,0.0,0.0,0.0,0.0,0.0,0.0,0.0,0.0,0.0,0.0,0.0,0.0,0.0,0.0,0.0,0.0,0.0,0.0,0.0,0.0,0.0,0.0,0.0,0.0,0.0,0.0,0.0,0.0,0.0,0.0,0.0,0.0,0.0,0.0,0.0,0.0,0.0,0.0,0.0,0.0,0.0,0.0,0.0,0.0,0.0,0.0,0.0,0.0,0.0,0.0,0.0,0.0,0.0,0.0,0.0,0.0,0.0,0.0,0.0,0.0,0.0,0.0,0.0,0.0,0.0,0.0,0.0,0.0,0.0,0.0,0.0,0.0,0.0,0.0,0.0,0.0,0.0,0.0,0.0,0.0,0.0,0.0,0.0,0.0,0.0,0.0,0.0,0.0,0.0,0.0,0.0,0.0,0.0,0.0,0.0,0.0,0.0,0.0,0.0,0.0,0.0,0.0,0.0,0.0,0.0,0.0,0.0,0.0,0.0,0.0,0.0,0.0,0.0,0.0,0.0,0.0,0.0,0.0,0.0,0.0,0.0,0.0,0.0,0.0,0.0,0.0,0.0,0.0,0.0,0.0,0.0,0.0,0.0,0.0,0.0,0.0,0.0,0.0,0.0,0.0,0.0,0.0,0.0,0.0,0.0,0.0,0.0,0.0,0.0,0.0,0.0,0.0,0.0,0.0,0.0,0.0,0.0,0.0,0.0,0.0,0.0,0.0,0.0,0.0,0.0,0.0,0.0,0.0,0.0,0.0,0.0,0.0,0.0,0.0,0.0,0.0,0.0,0.0,0.0,0.0,0.0,0.0,0.0,0.0,0.0,0.0,0.0,0.0,0.0,0.0,0.0,0.0,0.0,0.0,0.0,0.0,0.0,0.0,0.0,0.0,0.0,0.0,0.0,0.0,0.0,0.0,0.0,0.0,0.0,0.0,0.0,0.0,0.0,0.0,0.0,0.0,0.0,0.0,0.0,0.0,0.0,0.0,0.0,0.0,0.0,0.0,0.0,0.0,0.0,0.0,0.0,0.0,0.0,0.0,0.0,0.0,0.0,0.0,0.0,0.0,0.0,0.0,0.0,0.0,0.0,0.0,0.0,0.0,0.0,0.0,0.0,0.0,0.0,0.0,0.0,0.0,0.0,0.0,0.0,0.0,0.0,0.0,0.0,0.0,0.0,0.0,0.0,0.0,0.0,0.0,0.0,0.0,0.0,0.0,0.0,0.0,0.0,0.0,0.0,0.0,0.0,0.0,0.0,0.0,0.0,0.0,0.0,0.0,0.0,0.0,0.0,0.0,0.0,0.0,0.0,0.0,0.0,0.0,0.0,0.0,0.0,0.0,0.0,0.0,0.0,0.0,0.0,0.0,0.0,0.0,0.0,0.0,0.0,0.0,0.0,0.0,0.0,0.0,0.0,0.0,0.0,0.0,0.0,0.0,0.0,0.0,0.0,0.0,0.0,0.0,0.0,0.0,0.0,0.0,0.0,0.0,0.0,0.0,0.0,0.0,0.0,0.0,0.0,0.0,0.0,-1.9178,0.0,0.0,0.0,0.0,0.0,0.0,0.0,0.0,0.0,0.0,0.0,0.0,0.0,0.0,0.0,0.0,0.0,0.0,0.0,0.0,0.0,0.0,0.0,0.0,0.0,0.0,0.0,0.0,0.0,0.0,0.0,0.0,0.0,0.0,0.0,0.0,0.0,0.0,-2.1692,-2.1959,-2.3028,-2.4884,-2.5794,-2.5186,-2.3371,0.0,0.0,0.0,0.0,0.0,0.0,0.0,0.0,0.0,0.0,0.0,0.0,0.0,0.0,0.0,0.0,0.0,0.0,0.0,0.0,0.0,0.0,0.0,0.0,0.0,0.0,0.0,0.0,0.0,0.0,0.0,0.0,0.0,0.0,0.0,0.0,0.0,0.0,0.0,0.0,0.0,0.0,0.0,0.0,0.0,0.0,0.0,0.0,0.0,0.0,0.0,0.0,0.0,0.0,0.0,0.0,0.0,0.0,0.0,0.0,0.0,0.0,0.0,0.0,0.0,0.0,0.0,0.0,0.0,0.0,0.0,-2.1287,0.0,0.0,0.0,0.0,0.0,0.0,0.0,0.0,0.0,0.0,0.0,0.0,0.0,0.0,0.0,0.0,0.0,0.0,0.0,0.0,0.0,0.0,0.0,-1.8721,-1.9593,-1.8737,-1.978,-2.0339,0.0,0.0,0.0,0.0,0.0,0.0,0.0,-2.1218,-2.2036,-2.317,-2.4159,-2.5672,-2.768,-2.9746,-2.8896,-2.5666,-2.664,0.0,0.0,0.0,0.0,0.0,0.0,0.0,0.0,0.0,0.0,0.0,0.0,0.0,0.0,0.0,0.0,0.0,0.0,0.0,0.0,0.0,0.0,0.0,0.0,0.0,0.0,0.0,0.0,0.0,0.0,0.0,0.0,0.0,0.0,0.0,0.0,0.0,0.0,0.0,0.0,0.0,0.0,0.0,0.0,0.0,0.0,0.0,0.0,0.0,0.0,0.0,0.0,0.0,0.0,0.0,0.0,0.0,0.0,0.0,0.0,0.0,0.0,0.0,-2.9919,-3.0233,-3.1346,-3.1347,-3.0879,-2.9882,-2.6991,-2.4627,-2.2694,-2.1365,0.0,0.0,0.0,0.0,0.0,0.0,0.0,0.0,0.0,0.0,0.0,0.0,0.0,0.0,0.0,0.0,0.0,0.0,0.0,0.0,0.0,-1.8342,-1.9141,-2.1818,-2.156,-2.1833,-2.3188,0.0,0.0,0.0,0.0,0.0,-2.1524,-2.0893,-2.1627,-2.3781,-2.6306,-2.8063,-2.9118,-3.2951,-3.4046,-3.27,-2.9817,-2.8364,-2.8026,0.0,0.0,0.0,0.0,0.0,0.0,0.0,0.0,0.0,0.0,0.0,0.0,0.0,0.0,0.0,0.0,0.0,0.0,0.0,0.0,0.0,0.0,0.0,0.0,0.0,0.0,0.0,0.0,0.0,0.0,0.0,0.0,0.0,0.0,0.0,0.0,0.0,0.0,0.0,0.0,0.0,-2.4089,-2.4828,0.0,0.0,0.0,0.0,0.0,0.0,0.0,0.0,0.0,0.0,0.0,0.0,0.0,-3.044,-3.2184,-3.371,-3.4316,-3.4043,-3.4687,-3.4316,-3.3066,-3.3066,-3.2637,-3.1836,-3.1308,0.0,-2.6093,-2.3007,0.0,0.0,0.0,0.0,0.0,0.0,0.0,0.0,0.0,0.0,0.0,0.0,0.0,0.0,0.0,0.0,0.0,0.0,0.0,0.0,0.0,-2.0799,-2.2187,-2.4987,-2.6095,-2.6197,-2.5144,-2.4822,0.0,0.0,0.0,-2.1694,-2.1582,-2.2539,-2.4542,-2.7617,-3.116,-3.3001,-3.3284,-3.6019,-3.7091,-3.6648,-3.4902,-3.2904,-3.078,-2.9855,0.0,0.0,0.0,0.0,0.0,0.0,0.0,0.0,0.0,0.0,0.0,0.0,0.0,0.0,0.0,0.0,0.0,0.0,0.0,0.0,0.0,0.0,0.0,0.0,0.0,0.0,0.0,0.0,0.0,0.0,0.0,0.0,0.0,0.0,0.0,0.0,0.0,0.0,0.0,-2.5807,-2.8045,-2.6464,-2.723,-2.7036,0.0,0.0,0.0,0.0,0.0,0.0,0.0,0.0,0.0,-3.0579,-3.3102,-3.5056,-3.6308,-3.709,-3.7754,-3.8359,-3.7754,-3.7324,-3.7031,-3.6543,-3.5605,-3.4336,-3.4297,-3.2637,-2.9726,-2.7246,-2.6074,-2.5585,0.0,0.0,0.0,0.0,-2.1269,-2.2674,0.0,0.0,0.0,0.0,0.0,0.0,0.0,0.0,0.0,0.0,0.0,0.0,-2.197,-2.3467,-2.5449,-2.8449,-2.9907,-2.9682,-2.7374,-2.6987,-2.5381,-2.2086,-2.2427,-2.2624,-2.2481,-2.5174,-2.8069,-3.1109,-3.4946,-3.6957,-3.7257,-3.8872,-3.9625,-3.9638,-3.9825,-3.7826,-3.423,-3.3119,-3.0461,-2.6814,0.0,0.0,0.0,0.0,0.0,0.0,0.0,0.0,0.0,0.0,0.0,0.0,0.0,0.0,0.0,0.0,0.0,0.0,0.0,0.0,0.0,0.0,0.0,0.0,0.0,0.0,0.0,0.0,0.0,0.0,0.0,0.0,0.0,0.0,0.0,0.0,0.0,-2.8318,-3.0747,-2.7498,-2.9975,-3.0776,0.0,0.0,0.0,0.0,0.0,0.0,-3.178,-3.3877,-3.5171,-3.5388,-3.748,-3.9023,-3.9902,-3.9902,-4.0449,-4.1484,-4.0195,-3.9805,-4.0215,-3.9551,-3.8301,-3.668,-3.668,-3.5215,-3.2695,-3.0742,-2.9179,-2.7812,-2.6074,-2.5664,-2.582,-2.3906,-2.4277,-2.5662,0.0,0.0,0.0,0.0,0.0,0.0,0.0,0.0,0.0,0.0,0.0,-2.0118,-2.4271,-2.5303,-2.7615,-3.2387,-3.1456,-3.059,-3.0561,-2.7613,-2.5201,-2.3743,-2.2863,-2.3264,-2.5067,-2.8723,-3.1315,-3.2781,-3.5924,-3.8224,-3.9753,-4.1368,-4.2121,-4.2173,-4.3648,-4.2379,-3.8973,-3.6334,-3.3685,-3.1071,-2.8637,0.0,0.0,0.0,0.0,0.0,0.0,0.0,0.0,0.0,0.0,0.0,0.0,0.0,0.0,0.0,0.0,0.0,0.0,0.0,0.0,0.0,0.0,0.0,0.0,0.0,0.0,0.0,0.0,0.0,0.0,0.0,0.0,0.0,0.0,0.0,0.0,0.0,0.0,-2.8246,-3.2328,0.0,0.0,0.0,0.0,-3.2961,-3.4602,-3.6342,-3.8045,-3.9041,-3.9941,-4.0781,-4.168,-4.2558,-4.3437,-4.3437,-4.3066,-4.2344,-4.2246,-4.1836,-4.1133,-4.1094,-4.0117,-3.8476,-3.8476,-3.6992,-3.4375,-3.1875,-3.0781,-3.0527,-2.8789,-2.9121,-3.0254,-2.7695,-2.7832,-2.9101,0.0,0.0,0.0,0.0,0.0,0.0,0.0,0.0,-1.75,-1.8707,-2.0066,-2.2705,-2.7401,-2.936,-3.2048,-3.6387,-3.6657,-3.5734,-3.3759,-3.1114,-2.8268,-2.5288,-2.4999,-2.6408,-2.9611,-3.187,-3.4456,-3.7389,-3.9543,-4.1148,-4.2229,-4.28,-4.3057,-4.3126,-4.4135,-4.3919,-4.2642,-4.0452,-3.7757,-3.4725,-3.221,-2.8795,0.0,0.0,0.0,0.0,0.0,0.0,0.0,0.0,0.0,0.0,0.0,0.0,0.0,0.0,0.0,0.0,0.0,0.0,0.0,0.0,0.0,0.0,0.0,0.0,0.0,0.0,0.0,0.0,0.0,0.0,0.0,0.0,0.0,0.0,0.0,0.0,0.0,-3.3854,-3.6823,0.0,-3.5257,-3.5452,-3.6209,-3.7322,-3.8617,-3.9843,-4.0976,-4.2402,-4.332,-4.3633,-4.4473,-4.5058,-4.5371,-4.4824,-4.4375,-4.4062,-4.2949,-4.2246,-4.1953,-4.1445,-4.0254,-3.8594,-3.8594,-3.7422,-3.5469,-3.4551,-3.3516,-3.2344,-3.0644,-3.0703,-3.1562,-3.0059,-2.9902,-3.0351,0.0,0.0,0.0,0.0,0.0,0.0,0.0,0.0,-1.7895,-1.8983,-2.1356,-2.4829,-2.9772,-3.224,-3.5174,-3.9219,-3.9029,-3.7603,-3.5042,-3.2346,-2.9541,-2.6572,-2.7646,-2.9704,-3.2684,-3.5026,-3.7558,-4.0304,-4.1919,-4.2983,-4.3515,-4.3515,-4.3515,-4.3513,-4.4121,-4.4474,-4.4537,-4.3385,-4.102,-3.7851,-3.5586,-3.249,-2.9028,0.0,0.0,0.0,0.0,0.0,0.0,0.0,0.0,0.0,0.0,0.0,0.0,0.0,0.0,0.0,0.0,0.0,0.0,0.0,0.0,0.0,0.0,0.0,0.0,0.0,0.0,0.0,0.0,0.0,0.0,0.0,0.0,0.0,0.0,0.0,-3.837,-3.7411,-4.0589,-4.1841,-3.923,-3.935,-3.9953,-4.0821,-4.1818,-4.2732,-4.3534,-4.4686,-4.5318,-4.5366,-4.5933,-4.6226,-4.6226,-4.5659,-4.5069,-4.4455,-4.3331,-4.2495,-4.191,-4.1425,-4.041,-3.9043,-3.9043,-3.8047,-3.6445,-3.6445,-3.5586,-3.4141,-3.2734,-3.2715,-3.334,-3.2168,-3.1934,-3.2012,0.0,0.0,0.0,0.0,0.0,0.0,0.0,-1.6942,-1.8049,-1.9626,-2.2578,-2.6358,-3.1209,-3.3766,-3.6729,-4.071,-3.812,-3.5676,-3.4321,-3.1058,-2.8717,-2.769,-3.0654,-3.2893,-3.4162,-3.8123,-4.051,-4.1168,-4.2745,-4.3515,-4.3515,-4.3515,-4.3515,-4.3513,-4.3849,-4.4219,-4.4618,-4.4973,-4.3417,-4.0554,-3.8813,-3.5624,-3.1799,0.0,0.0,0.0,0.0,0.0,0.0,0.0,0.0,0.0,0.0,0.0,0.0,0.0,0.0,0.0,0.0,0.0,0.0,0.0,0.0,0.0,0.0,0.0,0.0,0.0,0.0,0.0,0.0,0.0,0.0,0.0,0.0,0.0,-3.2131,-3.7802,-4.1082,-3.8697,-4.3434,-4.5278,-4.115,-4.3076,-4.4234,-4.3382,-4.4234,-4.5116,-4.586,-4.5899,-4.5971,-4.6106,-4.6106,-4.6106,-4.6108,-4.6067,-4.5175,-4.3447,-4.3518,-4.267,-4.1033,-4.1148,-4.0723,-3.9883,-3.9902,-3.8906,-3.7305,-3.7305,-3.6797,-3.5918,-3.5019,-3.5195,-3.5742,-3.4004,-3.3906,-3.4141,0.0,0.0,0.0,0.0,0.0,0.0,0.0,-1.6965,-1.8261,-2.0396,-2.4408,-2.8479,-3.2108,-3.5598,-3.8377,-4.0084,-3.7294,-3.5289,-3.4947,-3.0923,-2.9279,-3.0915,-3.206,-3.4488,-3.841,-3.9471,-4.0933,-4.2837,-4.3277,-4.3515,-4.3515,-4.3515,-4.3515,-4.3513,-4.3849,-4.4219,-4.4656,-4.5574,-4.5647,-4.4874,-4.1939,-3.8953,-3.6112,0.0,0.0,0.0,0.0,0.0,0.0,0.0,0.0,0.0,0.0,0.0,0.0,0.0,0.0,0.0,0.0,0.0,0.0,0.0,0.0,0.0,0.0,0.0,0.0,0.0,0.0,0.0,0.0,0.0,0.0,0.0,0.0,-3.9129,-3.9129,-4.1764,-4.4129,-4.5216,-4.6268,-4.6682,-4.6067,-4.6198,-4.6209,-4.5964,-4.6307,-4.6322,-4.5918,-4.5899,-4.5971,-4.6106,-4.6018,-4.5998,-4.6108,-4.541,-4.4834,-4.4338,-4.32,-4.2351,-4.1772,-4.1375,-4.0661,-3.9765,-3.9861,-3.8906,-3.7305,-3.7305,-3.6797,-3.5859,-3.4336,-3.4297,-3.4844,-3.3144,-3.2676,-3.2656,0.0,0.0,0.0,0.0,0.0,0.0,0.0,-1.7183,-1.8442,-2.1107,-2.5035,-2.8775,-3.1875,-3.4876,-3.6982,-3.779,-3.4963,-3.303,-3.2797,-3.0957,-3.0827,-3.2911,-3.4872,-3.7373,-4.0498,-4.1117,-4.2101,-4.3515,-4.3515,-4.3515,-4.3515,-4.3515,-4.3515,-4.3515,-4.4063,-4.458,-4.5172,-4.6158,-4.6907,-4.724,-4.524,-4.2929,-4.0457,-3.8406,-3.6289,-3.4253,-3.3423,-3.3056,-3.2487,-2.9266,0.0,0.0,0.0,0.0,0.0,0.0,0.0,0.0,0.0,0.0,0.0,0.0,0.0,0.0,0.0,0.0,0.0,0.0,0.0,0.0,0.0,0.0,0.0,0.0,-4.0668,-4.3971,-4.5393,-4.6108,-4.7026,-4.8471,-4.8548,-4.8529,-4.8625,-4.8259,-4.7851,-4.7484,-4.753,-4.7204,-4.6358,-4.6319,-4.6216,-4.5982,-4.5901,-4.5896,-4.5967,-4.5429,-4.4949,-4.4517,-4.3272,-4.2453,-4.2029,-4.1354,-4.075,-4.0255,-4.0338,-3.9606,-3.8359,-3.8008,-3.7304,0.0,0.0,0.0,0.0,0.0,-3.248,-3.207,0.0,0.0,0.0,0.0,0.0,0.0,0.0,-1.7468,-1.8614,-2.1692,-2.482,-2.7852,-3.0686,-3.2504,-3.3825,-3.4527,-3.1857,-2.9931,-2.9448,-3.1143,-3.2884,-3.4491,-3.8238,-4.0643,-4.1368,-4.2763,-4.3551,-4.3626,-4.3626,-4.3626,-4.3626,-4.3718,-4.3718,-4.3663,-4.4488,-4.5236,-4.5989,-4.6787,-4.7565,-4.8259,-4.8259,-4.6758,-4.4289,-4.2021,-4.0629,-3.9779,-3.8895,-3.7832,-3.6566,-3.4642,0.0,0.0,0.0,0.0,0.0,0.0,0.0,0.0,0.0,0.0,0.0,0.0,0.0,0.0,0.0,0.0,0.0,0.0,0.0,0.0,0.0,0.0,0.0,0.0,-4.4221,-4.7446,-5.0423,-5.0164,-4.9644,-4.9548,-5.0144,-5.0289,-4.9606,-4.9452,-4.9086,-4.8298,-4.8163,-4.7759,-4.6942,0.0,0.0,0.0,0.0,-4.5783,-4.5803,-4.5783,-4.5336,-4.444,-4.3701,-4.2925,-4.2105,-4.1301,-4.0958,-4.0976,-4.0964,-4.0504,-3.9666,-3.8885,-3.7958,-3.6936,-3.605,-3.5176,-3.4316,-3.3437,-3.2676,-3.1934,0.0,0.0,0.0,0.0,0.0,0.0,0.0,-1.7487,-1.8607,-2.17,-2.4329,-2.659,-2.8316,-3.0515,-3.1929,-3.2082,-2.986,-2.8771,-2.9513,-3.15,-3.4259,-3.7868,-3.9884,-4.1583,-4.3002,-4.3332,-4.3809,-4.447,-4.447,-4.447,-4.4488,-4.5131,-4.5094,-4.4507,-4.5314,-4.609,-4.6825,-4.7682,-4.8471,-4.9144,-4.9144,-4.7634,-4.5315,-4.4823,-4.3382,-4.1501,-4.063,-4.113,-4.1737,-3.8631,-3.7616,-3.7088,-3.3746,-3.0578,0.0,0.0,0.0,0.0,0.0,0.0,0.0,0.0,0.0,0.0,0.0,0.0,0.0,0.0,0.0,0.0,0.0,0.0,0.0,-4.5143,-4.8551,-5.0923,-5.1587,-5.1519,-5.1183,-5.0539,-4.9971,-4.9856,-5.0404,-4.9798,-4.9336,-4.9163,-4.8509,-4.7759,-4.6942,-4.622,-4.5849,-4.5796,-4.5712,-4.5685,-4.5796,-4.5685,-4.5541,-4.5344,0.0,0.0,-4.2869,-4.2168,-4.1455,-4.0752,-4.0813,-3.9984,-3.86,-3.8438,-3.7416,-3.5855,-3.4392,-3.3351,-3.2578,-3.1699,-3.1289,-3.1133,0.0,0.0,0.0,0.0,0.0,0.0,0.0,-1.7515,-1.8516,-2.1236,-2.3734,-2.5479,-2.6135,-2.7988,-2.8868,-2.8063,-2.6933,-2.7335,-2.9883,-3.2524,-3.562,-3.9302,-4.1654,-4.3278,-4.4085,-4.4488,-4.4892,-4.5296,-4.5296,-4.5296,-4.5314,-4.5718,-4.5681,-4.5351,-4.614,-4.6826,-4.7417,-4.8451,-4.9226,-4.972,-4.95,-4.8375,-4.6817,-4.6394,-4.5316,-4.3891,-4.3046,-4.3166,-4.3301,-4.0761,-3.9902,-3.9375,-3.6307,-3.3884,-3.1461,0.0,0.0,0.0,0.0,0.0,0.0,0.0,0.0,0.0,0.0,0.0,0.0,0.0,0.0,-3.7163,0.0,0.0,-4.6039,-4.9018,-5.1568,-5.3049,-5.2596,-5.2538,-5.2087,-5.0846,-4.9933,-4.9567,-5.001,-4.926,-4.8759,-4.8759,-4.8355,-4.7759,-4.6942,-4.649,-4.608,-4.5712,-4.5211,-4.4972,-4.5063,-4.4586,-4.4355,-4.4344,-4.3979,-4.3335,-4.2439,-4.2105,-4.1491,-4.0703,-4.0736,-4.0299,-3.9474,-3.8605,-3.7506,-3.6186,-3.4464,-3.3348,-3.2607,-3.1762,-3.1155,-3.0757,0.0,0.0,0.0,0.0,0.0,0.0,0.0,-1.7272,-1.8189,-2.0561,-2.2609,-2.3929,-2.4084,-2.5281,-2.5591,-2.447,-2.4574,-2.6414,-3.0482,-3.3512,-3.6646,-3.9989,-4.3075,-4.4691,-4.4691,-4.5498,-4.5902,-4.5902,-4.6067,-4.6049,-4.5902,-4.6214,-4.6361,-4.6397,-4.7039,-4.7682,-4.8352,-4.9164,-4.9773,-5.0172,-4.9613,-4.8875,-4.8009,-4.7227,-4.6396,-4.5549,-4.4767,-4.3938,-4.2988,-4.1641,-4.0625,-3.9531,-3.7422,-3.6035,-3.453,-3.1112,-2.8983,0.0,0.0,0.0,0.0,0.0,0.0,0.0,0.0,0.0,-3.6723,-3.9779,-4.1036,-4.2535,-4.5627,-4.7959,-5.015,-5.2348,-5.3859,-5.4376,-5.3337,-5.3049,-5.2337,-5.0654,-4.9817,-4.9336,-4.9163,-4.8509,-4.8105,-4.8105,-4.7971,-4.7586,-4.6923,-4.674,-4.6336,-4.5614,-4.4739,-4.4374,-4.4547,-4.3585,-4.3181,-4.3335,-4.3162,-4.2643,-4.1788,-4.1788,-4.1381,-4.0655,-4.05,-4.0455,-4.0398,-3.8803,-3.7792,-3.7029,-3.5402,-3.4304,-3.3518,-3.2382,-3.1388,-3.0623,0.0,0.0,0.0,0.0,0.0,0.0,0.0,0.0,-1.7311,-1.9714,-2.0282,-2.0947,-2.2239,-2.2536,-2.2914,-2.3565,-2.4713,-2.7169,-3.1388,-3.3768,-3.6798,-4.0783,-4.3352,-4.4691,-4.4691,-4.5498,-4.5902,-4.5902,-4.6617,-4.6599,-4.592,-4.737,-4.8031,-4.8049,-4.8141,-4.8987,-5.032,-4.9757,-4.9936,-5.0547,-4.9731,-4.8875,-4.8028,-4.7276,-4.6084,-4.4736,-4.3983,-4.2721,-4.1365,-4.123,-4.0625,-3.9842,-3.9551,-3.8339,-3.6345,-3.291,0.0,-2.9506,-2.5488,-2.6247,0.0,-3.112,-3.285,-3.5363,0.0,0.0,-4.2437,-4.7323,-4.8927,-5.0,-5.1876,-5.3088,-5.4127,-5.5128,-5.5444,-5.5011,-5.3414,-5.2519,-5.1423,-4.974,-4.9452,-4.9106,-4.8317,-4.8163,-4.8105,-4.8105,-4.7451,-4.6981,-4.6904,-4.6163,-4.571,-4.5594,-4.4739,-4.4662,-4.546,-4.3893,-4.3451,-4.4162,-4.3431,-4.2643,-4.1788,-4.1788,-4.1324,-4.0469,-3.9776,-3.9463,-3.9381,-3.8416,-3.7973,-3.7795,-3.6811,-3.5945,-3.4975,-3.2738,-3.1345,-3.0606,0.0,0.0,0.0,0.0,0.0,0.0,0.0,0.0,0.0,-1.8365,-1.9411,-2.0071,-2.0226,-2.0609,-2.1223,-2.2092,-2.3846,-2.6858,-3.1443,-3.4263,-3.7569,-4.1625,-4.3645,-4.4929,-4.5388,-4.6195,-4.6838,-4.7297,-4.7645,-4.7645,-4.7315,-4.7994,-4.8306,-4.8324,-4.882,-4.9436,-5.0095,-5.0701,-5.0847,-5.0678,-5.0302,-4.9336,-4.793,-4.6242,-4.3976,-4.1703,-4.1986,-4.0714,0.0,-3.7753,-3.7518,-3.7459,-3.6445,-3.6308,-3.5956,-3.3007,-3.1523,0.0,-3.0488,0.0,0.0,0.0,-3.8873,-4.0096,-4.4588,-4.5202,-4.5838,-4.9483,-5.0865,-5.2068,-5.4241,-5.4953,-5.5472,0.0,-5.603,-5.5107,-5.3433,-5.2442,-5.0923,-4.8259,-4.7952,-4.7798,-4.7451,-4.6932,-4.6644,-4.6644,-4.6336,-4.6144,-4.6144,-4.5806,-4.5594,-4.5594,-4.4297,-4.3778,-4.4143,-4.2431,-4.1766,-4.2093,-4.2258,-4.1893,-4.1066,-4.1566,-4.1316,-4.0477,-4.015,-3.9996,-3.99,-3.8546,-3.8007,-3.7873,-3.6519,-3.5481,-3.4629,-3.365,-3.2414,-3.1255,0.0,0.0,0.0,0.0,0.0,0.0,0.0,0.0,0.0,0.0,-1.8499,-1.9368,-1.9216,-1.9678,-2.0316,-2.1139,-2.3038,-2.6051,-3.0417,-3.3817,-3.7357,-4.1148,-4.3277,-4.4745,-4.5553,-4.6562,-4.7278,-4.7645,-4.8086,-4.8196,-4.7957,-4.8214,-4.8563,-4.9022,-4.9427,-4.9909,-5.047,-5.1544,-5.1563,-5.0823,-5.0487,-4.9316,-4.7488,-4.4647,-4.1742,-3.9231,-3.9515,-3.7849,-3.5307,-3.4059,-3.4038,-3.4388,-3.3358,-3.3906,-3.4512,-3.2382,-3.1016,-3.0839,-3.3885,0.0,0.0,-4.2476,-4.4109,-4.4939,-4.7616,-4.8089,-4.8529,-5.0606,-5.1491,-5.2538,-5.4626,-5.5011,-5.5299,-5.6175,-5.578,-5.4857,-5.3395,-5.2049,-5.0212,-4.7538,-4.6605,-4.6182,-4.6182,-4.5836,-4.5594,-4.5594,-4.5594,-4.5594,-4.5594,-4.5594,-4.5594,-4.5594,-4.4182,-4.3547,-4.3797,-4.1835,-4.0977,-4.1227,-4.1373,-4.1104,-4.0516,-4.1143,-4.1104,-4.0496,-4.0496,-4.0496,-4.04,-3.895,-3.8354,-3.818,-3.6481,-3.5449,-3.4866,-3.4683,-3.3386,-3.1709,0.0,0.0,0.0,0.0,0.0,0.0,0.0,0.0,0.0,0.0,0.0,0.0,0.0,-1.9993,-2.0316,-2.1125,-2.2571,-2.4802,-2.7995,-3.189,-3.5487,-3.867,-4.1846,-4.3901,-4.4727,-4.6287,-4.6727,-4.5975,-4.7535,-4.7901,-4.7149,-4.792,-4.9169,-5.0692,-4.9941,-5.0655,-5.2399,-5.2127,-5.1708,-5.1167,-4.9948,-4.8472,-4.6595,-4.248,-3.9887,-3.8235,-3.6698,-3.3921,-3.0994,-3.0943,-3.0933,-3.1094,-3.1883,-3.2184,-3.205,-3.1191,-2.9726,-2.9293,0.0,0.0,-3.9465,-4.371,-4.7189,-4.9784,-5.0603,-5.069,-5.0818,-5.1692,-5.1885,-5.2173,-5.3106,-5.328,-5.3568,-5.4434,-5.4549,-5.4222,-5.3337,-5.1048,-4.9125,-4.8182,-4.5874,-4.4374,0.0,-4.5133,-4.5594,-4.5594,-4.5594,-4.5594,-4.5594,-4.5594,-4.5594,-4.5594,-4.472,-4.4662,-4.5518,-4.3028,-4.2181,-4.3008,-4.1343,-4.0535,-4.0496,-4.0535,-4.0535,-4.0496,-4.0496,-4.0496,-4.0439,-3.9611,-3.9265,-3.9092,-3.7334,-3.6654,-3.6519,-3.5757,-3.3872,-3.1698,0.0,0.0,0.0,0.0,0.0,0.0,0.0,0.0,0.0,0.0,0.0,0.0,0.0,0.0,0.0,0.0,-2.2212,-2.4305,-2.6432,-3.0739,-3.3917,-3.5501,-3.9638,-4.2029,-4.2306,-4.4397,-4.5645,-4.5902,-4.6434,-4.6581,-4.6305,-4.6581,-4.7003,-4.7553,-4.7829,-4.8309,-4.8993,-4.995,-4.9934,-4.9159,-4.8149,-4.6431,-4.4085,-4.0451,-3.7024,-3.3937,0.0,-3.0936,-2.9767,-2.8642,-2.8289,-2.8229,-2.7936,-2.9039,-3.0605,-3.1445,-3.2109,-3.3495,-3.7831,0.0,-4.398,-4.8725,-5.0696,-5.165,-5.2399,-5.2013,-5.1414,-5.1164,-4.9759,-4.867,-4.8978,-4.8148,-4.8244,-5.0769,-5.1636,-5.2251,-5.3087,-5.2472,-5.0779,-4.7682,-4.7028,0.0,0.0,0.0,0.0,-4.4739,-4.4739,-4.4998,-4.5575,-4.5594,-4.5594,-4.5594,-4.4739,-4.4432,-4.472,-4.3355,-4.2816,-4.3085,-4.2508,-4.1912,-4.1354,-4.1354,-4.1046,-4.0496,-4.0496,-4.0496,-4.0439,-3.9631,-3.9304,-3.913,-3.7392,-3.6692,-3.6596,-3.5808,-3.4584,-3.3276,0.0,0.0,0.0,0.0,0.0,0.0,0.0,0.0,0.0,0.0,0.0,0.0,0.0,0.0,0.0,0.0,0.0,-2.3292,-2.4874,-2.8619,-3.135,-3.2662,-3.6486,-3.871,-3.8958,-4.1068,-4.2426,-4.2975,-4.3495,-4.3771,-4.3839,-4.4083,-4.4488,-4.5075,-4.5714,-4.6302,-4.6907,-4.7897,-4.7837,-4.6948,-4.564,-4.3834,-4.1516,-3.7813,-3.4593,0.0,-2.9423,-2.8594,-2.8365,-2.6965,-2.6715,-2.6937,-2.6702,-2.8219,-3.0527,-3.2812,-3.4511,-3.6855,-4.2441,-4.537,-4.7985,-5.2711,-5.3549,-5.3177,-5.2981,-5.2178,-5.0818,-4.8461,-4.6446,-4.4831,-4.3921,-4.3165,-4.3763,-4.7124,-4.8612,-5.0144,-5.2414,-5.1952,-5.0606,-4.8509,-4.7644,-4.6567,0.0,0.0,0.0,-4.4297,-4.4586,-4.4874,-4.5133,-4.5441,-4.5594,-4.5594,-4.5056,-4.4759,-4.4759,-4.3932,-4.3374,-4.3104,-4.3104,-4.2643,-4.1788,-4.1788,-4.1316,-4.0496,-4.0496,-4.0496,-4.0439,-3.9631,-3.9304,-3.9169,-3.7719,-3.6962,-3.6635,-3.6115,-3.5199,-3.4129,0.0,0.0,0.0,0.0,0.0,0.0,0.0,0.0,0.0,0.0,0.0,0.0,0.0,0.0,0.0,0.0,0.0,0.0,-2.3283,-2.5672,-2.7941,-3.0017,-3.2593,-3.4245,-3.4857,-3.6551,-3.7442,-3.7502,-3.8909,-3.966,-3.9808,-4.0436,-4.1568,-4.3034,-4.3354,-4.4349,-4.5775,-4.5672,-4.5178,-4.4312,-4.2275,-4.0555,-3.8747,-3.4588,-3.2515,-3.1408,-2.8153,-2.6924,-2.6712,-2.5933,-2.6328,-2.7333,-2.832,-2.9822,-3.1913,-3.5371,-3.7031,-3.9414,-4.703,-4.9765,-5.1421,-5.5404,-5.5603,-5.4336,-5.245,-5.1175,-4.897,-4.4003,-4.2167,-4.0701,-3.8292,-3.8563,-4.026,-4.3701,-4.5789,-4.8142,-5.1491,-4.9962,-4.9048,0.0,0.0,0.0,0.0,0.0,0.0,-4.4297,0.0,-4.519,-4.4412,-4.5152,-4.5594,-4.5594,-4.5594,-4.5594,-4.5594,-4.4778,-4.397,-4.322,-4.322,-4.2777,-4.1923,-4.1923,-4.1431,-4.0573,-4.0573,-4.0535,-4.0439,-3.9688,-3.9361,-3.9284,-3.8411,-3.7565,-3.6827,-3.6731,-3.5699,-3.4321,0.0,0.0,0.0,0.0,0.0,0.0,0.0,0.0,0.0,0.0,0.0,0.0,0.0,0.0,0.0,0.0,0.0,0.0,-2.1682,-2.4481,-2.612,-2.6077,-3.0038,-3.2046,-3.1622,-3.3793,-3.4924,-3.4937,-3.5321,-3.5564,-3.5634,-3.5803,-3.6157,-3.6647,-3.6745,-3.7044,-3.7468,-3.7742,-3.7737,-3.7418,-3.5939,-3.4753,-3.3609,-3.1258,-2.9511,-2.8173,-2.7268,-2.6527,-2.6052,0.0,0.0,0.0,0.0,-3.4257,-3.6465,-4.0547,-4.2812,-4.5137,-5.0312,-5.2832,-5.4369,-5.5861,-5.5079,-5.3438,-5.1509,-4.8437,-4.5106,-4.1898,-3.808,-3.5157,-3.4501,-3.5085,-3.7189,-4.18,-4.5544,0.0,-5.2395,-5.3376,0.0,-5.0943,0.0,-4.8644,-4.6759,-4.5778,0.0,0.0,-4.4509,-4.4816,-4.5248,-4.5479,-4.5594,-4.5594,-4.5594,-4.5594,-4.5594,-4.5383,-4.5171,-4.496,-4.496,-4.4509,-4.3662,-4.3662,-4.2854,-4.147,-4.147,-4.1104,-4.0477,-4.0285,-4.0189,-4.0112,-3.9284,-3.8834,-3.8469,-3.718,-3.6423,-3.5988,0.0,0.0,0.0,0.0,0.0,0.0,0.0,0.0,0.0,0.0,0.0,0.0,0.0,0.0,0.0,0.0,0.0,0.0,0.0,-2.2729,-2.3637,-2.3512,-2.673,-2.8295,-2.7779,-2.9799,-3.0852,-3.0886,-3.115,-3.1364,-3.1511,-3.1802,-3.2189,-3.2631,-3.282,-3.3112,-3.3472,-3.3527,-3.358,0.0,0.0,-3.1229,-3.0695,-2.937,-2.8081,-2.6996,-2.6913,-2.734,0.0,0.0,0.0,-3.4802,-3.7304,-3.9277,-4.1445,-4.539,0.0,-4.9394,-5.334,-5.5137,-5.5934,-5.6218,-5.4669,-5.2197,-4.88,-4.5561,-4.1955,-3.7199,-3.3963,0.0,-3.1006,-3.2169,0.0,0.0,0.0,0.0,-5.101,-5.2337,-5.251,0.0,-5.024,0.0,-4.7567,-4.6317,-4.5402,0.0,-4.4874,-4.4921,-4.5017,-4.5402,-4.5594,-4.5594,-4.5594,-4.5594,-4.5594,-4.5594,-4.5594,-4.5594,-4.5594,-4.5152,-4.4297,-4.4297,-4.3393,-4.1788,0.0,-4.1527,-4.1019,-4.0526,-4.0619,-4.0981,-4.0019,-3.9506,-3.915,-3.7777,-3.7019,-3.6577,0.0,0.0,0.0,0.0,0.0,0.0,0.0,0.0,0.0,0.0,0.0,0.0,0.0,0.0,0.0,0.0,0.0,0.0,0.0,0.0,-2.1294,-2.1928,-2.3441,-2.4253,-2.4227,-2.5606,-2.6394,-2.6553,-2.6977,-2.736,-2.7737,-2.8206,-2.8891,-2.9766,-3.0139,-3.0682,-3.1324,-3.0994,-3.0885,-3.0825,-2.9438,-2.8917,-2.8903,0.0,-2.7418,-2.6811,-2.6761,0.0,0.0,0.0,-3.6267,-3.8574,-4.2011,-4.4297,-4.6347,-4.9726,-5.1191,-5.246,-5.5722,-5.6601,-5.6541,-5.6289,-5.404,-5.0583,-4.5569,-4.2505,-3.8756,-3.1855,0.0,-2.9501,-2.8105,-2.9924,-3.3058,-3.7392,0.0,-4.4619,-4.8961,-4.9663,-5.024,-5.1577,-4.9702,-4.8202,-4.7971,-4.6509,-4.5594,-4.5594,-4.5594,-4.5267,-4.4509,-4.519,-4.5594,-4.5594,-4.5594,-4.5594,-4.5594,-4.5594,-4.5594,-4.5594,-4.5594,-4.521,-4.447,-4.4416,-4.3485,-4.1901,-4.1848,-4.1705,-4.1419,-4.0444,-4.0616,-4.1419,-4.0425,-3.9784,-3.9296,-3.8297,-3.7463,-3.6683,0.0,0.0,0.0,0.0,0.0,0.0,0.0,0.0,0.0,0.0,-1.7132,-1.749,0.0,0.0,0.0,0.0,0.0,0.0,0.0,0.0,0.0,-2.1192,-2.2058,-2.2818,-2.3405,-2.3688,-2.4126,-2.4746,-2.4192,-2.4355,-2.5215,-2.4663,-2.4939,-2.5869,-2.606,-2.6211,-2.6358,-2.6389,-2.6443,-2.6494,-2.6275,-2.6213,-2.626,-2.6107,0.0,0.0,0.0,0.0,0.0,0.0,-3.8339,-4.2129,-4.5605,-4.7891,-4.9824,-5.2558,-5.3437,-5.4004,-5.6035,-5.6601,-5.6385,-5.5548,-5.2272,-4.826,-4.4399,-3.8878,0.0,0.0,-2.7888,-2.657,-2.6946,-2.9093,0.0,-3.7321,0.0,0.0,0.0,0.0,-5.1337,0.0,0.0,0.0,0.0,0.0,0.0,0.0,0.0,-4.5537,-4.5383,-4.5518,-4.5594,-4.5594,-4.5594,-4.5594,-4.5594,-4.5594,-4.5594,-4.5594,-4.5594,-4.5518,-4.5374,-4.5083,-4.4055,-4.245,-4.218,0.0,-3.9965,-3.9777,-3.9807,-3.9965,-3.9758,-3.9796,-3.9766,-3.8172,-3.7531,-3.7269,0.0,0.0,0.0,0.0,0.0,0.0,0.0,0.0,-1.7914,-1.8654,-1.8748,-1.8732,-1.8653,-1.8656,0.0,0.0,0.0,0.0,0.0,0.0,0.0,0.0,0.0,0.0,-2.1937,-2.2327,-2.271,-2.3098,0.0,-2.2737,-2.3249,-2.286,-2.2944,-2.3463,-2.4066,-2.436,-2.4438,-2.4577,-2.4659,-2.4721,-2.482,-2.4637,-2.4341,0.0,0.0,0.0,0.0,0.0,0.0,0.0,-3.6245,-4.0156,-4.6328,-4.9453,-5.0801,-5.0703,-5.2246,-5.3887,-5.3398,-5.4902,-5.6269,-5.4873,-5.1196,-4.6672,-4.1883,0.0,0.0,0.0,-2.6071,-2.5661,-2.6018,0.0,0.0,0.0,0.0,0.0,0.0,0.0,0.0,0.0,0.0,0.0,0.0,0.0,0.0,0.0,0.0,-4.5594,-4.5594,-4.5594,-4.5594,-4.5594,-4.5594,-4.5594,-4.5594,-4.5594,-4.5594,-4.5594,-4.5594,-4.5504,-4.5332,-4.518,-4.4333,-4.2928,-4.2339,-4.1637,-4.0813,-3.9758,-3.9701,-4.0203,-3.9602,-3.9534,-3.9678,-3.8386,-3.7657,-3.7176,0.0,0.0,0.0,0.0,0.0,0.0,0.0,-1.7911,-1.9154,-2.0083,-2.0256,-2.0015,-1.9293,-1.8858,-1.896,0.0,0.0,0.0,0.0,0.0,0.0,0.0,0.0,0.0,0.0,0.0,0.0,0.0,-2.1744,0.0,0.0,0.0,0.0,0.0,-2.2954,-2.3392,-2.3507,-2.3624,-2.3736,0.0,0.0,-2.3636,0.0,0.0,0.0,0.0,0.0,0.0,0.0,0.0,-3.2761,-3.5935,-4.3476,-4.7383,-4.8984,-4.7909,-5.0254,-5.291,-5.164,-5.3886,-5.6133,-5.4199,-5.0207,-4.5258,-3.9522,-3.4565,0.0,0.0,-2.4917,-2.5409,-2.5174,0.0,0.0,0.0,0.0,0.0,0.0,0.0,0.0,0.0,0.0,0.0,0.0,0.0,0.0,0.0,0.0,0.0,-4.5605,-4.5421,-4.5421,-4.5594,-4.5421,-4.5325,-4.5325,-4.5325,-4.5203,-4.4966,-4.513,-4.5035,-4.4722,-4.4824,-4.4247,-4.3149,-4.2275,-4.1798,-4.149,-3.9746,-3.9557,-4.0315,-3.9392,-3.9205,-3.938,-3.8529,-3.7807,-3.7164,0.0,0.0,0.0,0.0,0.0,0.0,0.0,-1.8324,-1.9432,-2.0977,-2.1173,-2.1091,-2.089,-1.9579,-1.9023,0.0,0.0,0.0,0.0,0.0,0.0,0.0,0.0,0.0,0.0,0.0,0.0,0.0,0.0,0.0,0.0,0.0,0.0,0.0,0.0,0.0,-2.2527,-2.2618,0.0,0.0,0.0,0.0,0.0,0.0,0.0,0.0,0.0,0.0,0.0,0.0,0.0,-3.0875,-3.4783,-3.8787,-4.2772,-4.6503,0.0,0.0,-5.4043,-5.5703,-5.5996,-5.3457,-4.8883,-4.3685,-3.8495,0.0,0.0,-2.4937,-2.4856,-2.5174,-2.4377,-2.5112,-2.6902,0.0,0.0,-3.4077,0.0,0.0,0.0,0.0,0.0,0.0,0.0,0.0,0.0,0.0,0.0,0.0,-4.5577,-4.4855,-4.4778,-4.5575,-4.4836,-4.4412,-4.4412,-4.4412,-4.3893,-4.2879,-4.3632,-4.3794,-4.3492,-4.3905,-4.3639,-4.2789,-4.1675,-4.0783,0.0,-3.9114,-3.8802,-3.8887,-3.8768,-3.8894,-3.9059,-3.8236,-3.7895,-3.7754,0.0,0.0,0.0,0.0,0.0,0.0,0.0,-1.8371,-1.9471,-2.1093,-2.1298,-2.129,-2.1235,-2.0136,-1.9543,0.0,0.0,0.0,0.0,0.0,0.0,0.0,0.0,0.0,0.0,0.0,0.0,-2.0455,0.0,0.0,0.0,0.0,0.0,0.0,0.0,0.0,0.0,0.0,0.0,0.0,0.0,0.0,0.0,0.0,0.0,0.0,0.0,0.0,0.0,0.0,0.0,0.0,-2.729,-2.9615,0.0,0.0,-4.3239,-4.7928,-4.822,-5.1992,-5.5312,-5.3223,-4.7539,-4.1527,-3.8007,0.0,-2.6208,-2.3887,-2.4033,-2.4295,-2.3463,-2.4476,-2.6178,-2.8406,-2.866,0.0,0.0,0.0,0.0,0.0,0.0,0.0,0.0,0.0,0.0,0.0,0.0,-4.4861,-4.4988,-4.4369,-4.3943,-4.379,-4.3465,-4.3377,-4.3585,-4.3177,-4.2853,-4.261,-4.2715,-4.2844,-4.3011,-4.3191,-4.2983,-4.2456,-4.1507,-4.0653,0.0,-3.9038,-3.8707,-3.8707,-3.8707,-3.8762,-3.8818,-3.8508,-3.8083,-3.7627,0.0,0.0,0.0,0.0,0.0,-1.585,-1.7472,-1.8413,-1.9503,-2.1124,-2.1336,-2.1309,-2.1274,-2.0223,-1.959,-1.9788,0.0,0.0,0.0,0.0,0.0,0.0,0.0,0.0,0.0,0.0,-1.9464,-1.9475,-1.9405,-1.9306,0.0,0.0,0.0,0.0,0.0,0.0,0.0,0.0,0.0,0.0,0.0,0.0,0.0,0.0,0.0,0.0,0.0,0.0,0.0,0.0,0.0,0.0,0.0,0.0,0.0,0.0,-3.7491,-4.304,-4.3812,-4.8017,-5.1967,-5.0967,-4.5365,-3.9312,0.0,0.0,-2.4769,-2.2867,-2.3287,-2.3756,-2.2924,-2.4202,-2.5798,-2.7095,-2.7061,-2.8146,0.0,0.0,0.0,0.0,0.0,0.0,0.0,0.0,0.0,0.0,0.0,-4.432,-4.4089,-4.3485,-4.3046,-4.2816,-4.2351,-4.2217,-4.245,-4.1987,-4.1687,-4.1555,-4.158,-4.1705,-4.195,-4.2192,-4.2171,-4.1901,-4.1093,-4.0414,0.0,-3.9038,-3.8707,-3.8707,-3.8707,-3.8707,-3.8707,-3.8707,-3.834,-3.786,0.0,0.0,0.0,0.0,0.0,0.0,0.0,-1.8484,-1.9575,-2.1182,-2.1393,-2.1343,-2.1218,-1.9652,-1.893,-1.9732,0.0,0.0,0.0,0.0,0.0,0.0,0.0,0.0,0.0,0.0,-1.9398,-1.9398,-1.9321,-1.9224,-1.9089,-1.8354,-1.8424,0.0,0.0,0.0,0.0,0.0,0.0,0.0,0.0,0.0,0.0,0.0,0.0,0.0,0.0,0.0,0.0,0.0,0.0,0.0,0.0,0.0,0.0,0.0,-3.2716,-3.6282,-4.2968,-4.4841,-4.5092,-4.5877,-4.2127,-3.7102,0.0,0.0,-2.4577,-2.2045,-2.2848,-2.3726,-2.2858,-2.4125,-2.5548,-2.6288,-2.7122,0.0,0.0,0.0,0.0,0.0,0.0,0.0,0.0,0.0,0.0,0.0,0.0,0.0,-4.2853,-4.206,-4.2151,-4.3265,-4.1748,-4.0929,-4.091,-4.0929,-4.0296,-3.9163,-3.9942,-4.017,-3.9953,-4.0744,-4.113,-4.1058,-4.0267,-3.9916,0.0,-3.9038,-3.8707,-3.8707,-3.8707,-3.8707,-3.8707,-3.8707,-3.8689,-3.8689,0.0,0.0,0.0,0.0,0.0,0.0,0.0,-1.7136,-1.7677,-1.8739,-1.9349,-1.9657,-1.9559,-1.9522,-1.9573,-1.9788,0.0,0.0,0.0,0.0,0.0,0.0,0.0,0.0,0.0,0.0,-1.9298,-1.918,-1.9216,-1.916,-1.9025,-1.8842,-1.8618,-1.8388,-1.8289,0.0,0.0,0.0,0.0,0.0,0.0,0.0,0.0,0.0,0.0,0.0,0.0,0.0,0.0,0.0,0.0,0.0,0.0,0.0,0.0,-2.4084,-2.8577,0.0,-3.6941,-3.9538,-4.1239,-4.09,-3.6848,-3.2438,-3.0529,-2.6223,-2.2417,-2.1664,-2.2321,-2.2952,-2.2682,-2.4061,-2.5465,-2.6218,-2.7017,-2.7828,0.0,0.0,0.0,0.0,0.0,0.0,0.0,0.0,0.0,0.0,0.0,-4.274,-4.2463,-4.1172,-4.0689,-4.1239,-4.0218,-3.9771,-4.0007,-3.9594,-3.9291,-3.9099,-3.9168,-3.9455,-3.9916,-4.0157,-4.0286,-4.0267,-4.001,-3.9588,-3.9056,-3.8817,-3.8707,-3.8707,-3.8707,-3.8707,-3.8707,-3.8707,-3.8707,-3.8707,0.0,0.0,0.0,0.0,0.0,0.0,0.0,-1.6542,-1.683,-1.7629,-1.8157,-1.8413,-1.8353,-1.8441,-1.8607,-1.8845,0.0,0.0,0.0,0.0,0.0,0.0,0.0,0.0,0.0,-1.898,-1.9127,-1.9067,-1.9076,-1.906,-1.8992,-1.8753,-1.8588,-1.8477,-1.8331,-1.8534,0.0,0.0,0.0,0.0,0.0,0.0,-1.6364,0.0,0.0,0.0,0.0,0.0,0.0,0.0,0.0,0.0,0.0,0.0,0.0,0.0,-2.4822,-2.8783,0.0,-3.3668,-3.5301,-3.5371,-3.2154,0.0,0.0,-2.4192,-2.1378,-2.1421,-2.2046,-2.2697,-2.3004,-2.4441,-2.5736,-2.6182,-2.7176,0.0,0.0,0.0,0.0,0.0,0.0,0.0,0.0,0.0,0.0,0.0,0.0,-4.2304,-4.2304,-4.0763,-3.9989,-4.0141,-3.9373,-3.904,-3.9268,-3.8892,-3.8773,-3.8947,-3.8773,-3.8964,-3.9441,-3.9441,-3.9441,-3.9441,-3.9441,-3.9166,0.0,-3.8707,-3.8707,-3.8707,-3.8707,-3.8707,-3.8707,-3.8707,-3.8707,-3.8707,0.0,0.0,0.0,0.0,0.0,0.0,0.0,0.0,0.0,-1.7518,-1.7612,-1.76,-1.7512,-1.6789,-1.6564,-1.724,0.0,0.0,0.0,0.0,0.0,0.0,0.0,0.0,-1.7892,-1.8559,-1.8948,-1.8984,-1.8948,-1.8948,-1.8992,-1.8306,-1.8479,-1.9275,-1.8662,-1.8858,-1.9597,-1.8978,-1.7849,-1.6488,-1.6493,-1.6068,0.0,0.0,0.0,0.0,0.0,0.0,0.0,0.0,0.0,0.0,0.0,0.0,0.0,0.0,0.0,0.0,0.0,-2.7558,0.0,0.0,0.0,0.0,0.0,-2.2593,0.0,-2.1295,-2.2037,-2.2894,-2.3567,-2.5068,-2.6176,-2.6115,0.0,0.0,0.0,0.0,0.0,0.0,0.0,0.0,0.0,0.0,0.0,0.0,-4.2671,-4.2194,-4.2139,-4.0653,-3.9808,-3.9808,-3.9093,-3.8707,-3.8707,-3.8707,-3.8707,-3.8707,-3.8707,-3.8707,-3.8707,-3.8658,-3.8643,0.0,-3.8643,-3.8643,-3.8643,-3.8673,-3.8707,-3.8707,-3.8707,-3.8707,-3.8707,-3.8707,-3.8707,-3.8707,0.0,0.0,0.0,0.0,0.0,0.0,0.0,0.0,0.0,0.0,-1.6403,-1.674,-1.6625,-1.6954,-1.7212,0.0,0.0,0.0,0.0,0.0,0.0,0.0,0.0,0.0,-1.7761,-1.8652,-1.906,-1.8914,-1.9017,-1.9024,-1.8992,-1.8978,-1.9123,-1.9353,-1.8687,-1.8275,-1.8032,-1.7937,-1.7309,-1.6423,-1.6532,-1.6066,0.0,0.0,0.0,0.0,-1.6694,-1.7577,0.0,0.0,0.0,0.0,0.0,0.0,0.0,0.0,-2.1189,-2.1796,-2.2163,0.0,-2.4331,-2.5331,-2.453,-2.3568,0.0,-2.2947,-2.1975,-2.1343,0.0,0.0,-2.2811,-2.4596,0.0,0.0,0.0,0.0,0.0,0.0,0.0,0.0,0.0,0.0,0.0,0.0,0.0,0.0,-4.1846,-4.1111,-4.0487,-3.9515,-3.8982,-3.8982,-3.8799,-3.8707,-3.8707,-3.8707,-3.8707,-3.8707,-3.8707,-3.8707,-3.8692,-3.8283,-3.8082,-3.8082,-3.8082,-3.8082,-3.8115,-3.853,-3.8707,-3.8707,-3.8707,-3.8707,-3.8707,-3.8707,-3.8707,-3.8707,0.0,0.0,0.0,0.0,0.0,0.0,0.0,0.0,0.0,0.0,0.0,0.0,0.0,0.0,0.0,0.0,0.0,0.0,0.0,0.0,0.0,0.0,0.0,-1.7172,-1.6661,-1.7872,-1.8433,-1.8306,-1.8786,-1.9009,-1.8992,-1.9202,-1.9347,-1.9368,-1.87,-1.783,-1.69,-1.6916,-1.6487,-1.5821,-1.5876,0.0,0.0,0.0,0.0,0.0,-1.5935,-1.6665,0.0,-1.7789,-1.8784,-1.9953,0.0,0.0,0.0,0.0,-2.0776,-2.1134,-2.1105,-2.1984,-2.2893,-2.2904,-2.2747,-2.2717,-2.3106,0.0,0.0,0.0,0.0,0.0,0.0,0.0,0.0,0.0,0.0,0.0,0.0,0.0,0.0,0.0,0.0,0.0,0.0,0.0,0.0,0.0,-4.1222,-4.0194,-3.9386,-3.8248,-3.7771,-3.8138,-3.8138,-3.8322,-3.8707,-3.8707,-3.8707,-3.8707,-3.8707,-3.8562,-3.8316,-3.8013,-3.7772,-3.7596,-3.7807,-3.7772,-3.7614,-3.8133,-3.8218,-3.8016,-3.8016,-3.8016,-3.8033,-3.8251,-3.8332,-3.8332,0.0,0.0,0.0,0.0,0.0,0.0,0.0,0.0,0.0,0.0,0.0,0.0,0.0,0.0,0.0,0.0,0.0,0.0,0.0,0.0,0.0,0.0,0.0,-1.6226,-1.5598,-1.7,-1.7749,-1.778,-1.8655,-1.912,-1.919,-1.9385,-1.9337,-1.9022,-1.8347,-1.7275,-1.5974,-1.5932,-1.5517,-1.4886,-1.4907,0.0,0.0,0.0,0.0,0.0,0.0,0.0,0.0,-1.7497,-1.8372,-1.9329,-2.0002,0.0,0.0,0.0,0.0,0.0,-2.1391,-2.2236,-2.2713,-2.2036,-2.2411,-2.2929,-2.2868,0.0,0.0,0.0,0.0,0.0,0.0,0.0,0.0,0.0,0.0,0.0,0.0,0.0,0.0,0.0,0.0,0.0,0.0,0.0,0.0,-4.1956,-4.0561,-3.9368,-3.856,-3.711,-3.6684,-3.7474,-3.7492,-3.7896,-3.8689,-3.8707,-3.8658,-3.8578,-3.8578,-3.83,-3.779,-3.772,-3.7433,-3.7097,0.0,0.0,-3.7133,-3.7596,-3.756,-3.7209,-3.7209,-3.7209,-3.7248,-3.7649,-3.779,-3.779,0.0,0.0,0.0,0.0,0.0,0.0,0.0,0.0,0.0,0.0,0.0,0.0,0.0,0.0,0.0,0.0,0.0,0.0,0.0,0.0,0.0,-1.4593,-1.5353,-1.5978,-1.6406,-1.7367,-1.8113,-1.8619,-1.9497,-1.9975,-2.0101,-2.024,-1.9286,-1.7423,-1.6696,-1.586,-1.5024,-1.5066,-1.4627,-1.3929,-1.3975,0.0,0.0,0.0,0.0,0.0,0.0,0.0,0.0,-1.6835,-1.7912,-1.9216,-1.9355,0.0,0.0,0.0,0.0,0.0,-2.0659,-2.1732,-2.2929,-2.3409,-2.4033,-2.4523,-2.4466,0.0,0.0,0.0,0.0,0.0,0.0,0.0,0.0,0.0,0.0,0.0,0.0,0.0,0.0,0.0,0.0,0.0,0.0,0.0,0.0,-4.0359,-3.9405,-3.8524,-3.7731,-3.6813,-3.6684,-3.7474,-3.7492,-3.7896,-3.8689,-3.8707,-3.8465,-3.8013,-3.8013,-3.7773,-3.7285,-3.6825,-3.6583,-3.6539,0.0,-3.6583,-3.6563,-3.7078,-3.7267,-3.7209,-3.7209,-3.7209,-3.7209,-3.7267,-3.7304,-3.7304,0.0,0.0,0.0,0.0,0.0,0.0,0.0,0.0,0.0,0.0,0.0,0.0,0.0,0.0,0.0,0.0,0.0,0.0,0.0,0.0,0.0,-1.4399,-1.5132,-1.5664,-1.5896,-1.6718,-1.7452,-1.8102,-1.9013,-1.9524,-1.9654,-1.9374,-1.848,-1.7059,-1.6259,-1.5474,-1.476,-1.4827,-1.438,-1.3655,0.0,0.0,0.0,0.0,0.0,0.0,0.0,0.0,0.0,0.0,-1.7188,-1.7936,-1.8358,0.0,0.0,0.0,0.0,0.0,-2.1064,-2.1961,-2.2906,-2.3623,-2.4645,-2.5476,-2.5364,0.0,0.0,0.0,0.0,0.0,0.0,0.0,0.0,0.0,0.0,0.0,0.0,0.0,0.0,0.0,0.0,0.0,0.0,0.0,-4.0524,-3.935,-3.8505,-3.7496,-3.6229,-3.5385,-3.5312,-3.6119,-3.6597,-3.7098,-3.7612,-3.8049,-3.8132,-3.7911,-3.7649,-3.7267,-3.6764,-3.6519,-3.6245,-3.5968,0.0,-3.6245,-3.6028,-3.6542,-3.6603,-3.6336,-3.6336,-3.6336,-3.6357,-3.6664,-3.6764,-3.6764,0.0,0.0,0.0,0.0,0.0,0.0,0.0,0.0,0.0,0.0,0.0,0.0,0.0,0.0,0.0,0.0,0.0,0.0,0.0,0.0,-1.4487,-1.4404,-1.4936,-1.5352,-1.5568,-1.6337,-1.7075,-1.7764,-1.8699,-1.9155,-1.913,-1.8489,-1.7691,-1.6756,-1.5916,-1.5215,-1.4687,-1.4759,-1.4191,-1.3276,0.0,0.0,0.0,0.0,0.0,0.0,0.0,0.0,0.0,0.0,0.0,0.0,0.0,0.0,0.0,-1.9448,-1.9972,-2.0646,-2.1303,-2.2065,-2.2815,-2.3288,0.0,-2.6045,-2.6034,-2.6795,0.0,0.0,0.0,0.0,0.0,0.0,0.0,0.0,0.0,0.0,0.0,0.0,0.0,0.0,0.0,0.0,0.0,-3.9918,-3.9074,-3.8469,-3.7477,-3.6358,-3.5078,-3.4247,-3.4133,-3.484,-3.5513,-3.5994,-3.6282,-3.6771,-3.7202,-3.7542,-3.7192,-3.6724,-3.6224,-3.6224,-3.6006,-3.5605,-3.6032,-3.5985,-3.5644,-3.6032,-3.5985,-3.56,-3.56,-3.56,-3.5667,-3.6054,-3.6224,-3.6224,0.0,0.0,0.0,0.0,0.0,0.0,0.0,0.0,0.0,0.0,0.0,0.0,0.0,0.0,0.0,0.0,0.0,0.0,0.0,0.0,-1.454,-1.4411,-1.4453,-1.5087,-1.6381,-1.7079,-1.7799,-1.8524,-1.9466,-1.9695,-1.9277,-1.854,-1.7364,-1.5857,-1.5101,-1.4728,-1.4601,-1.4682,-1.377,-1.2313,-1.244,0.0,0.0,0.0,0.0,0.0,0.0,0.0,0.0,0.0,0.0,0.0,0.0,0.0,-1.937,-2.0169,-2.0455,-2.0498,-2.0493,-2.1571,-2.268,-2.2615,-2.4404,0.0,-2.6647,-2.8071,0.0,-2.9071,0.0,0.0,0.0,0.0,0.0,0.0,0.0,0.0,0.0,0.0,0.0,0.0,0.0,0.0,-3.9974,-3.8594,-3.7658,-3.7584,-3.6101,-3.5133,-3.5023,-3.4247,-3.4004,-3.4434,-3.4509,-3.4699,-3.5029,-3.465,-3.5151,-3.6519,-3.6478,-3.6182,-3.565,-3.565,-3.5644,-3.56,-3.5644,-3.5644,-3.56,-3.5644,-3.5627,-3.56,-3.56,-3.56,-3.56,-3.5627,-3.565,-3.565,0.0,0.0,0.0,0.0,0.0,0.0,0.0,0.0,0.0,0.0,0.0,0.0,0.0,0.0,0.0,0.0,0.0,0.0,0.0,-1.4497,-1.4452,-1.4393,-1.479,-1.5252,-1.5734,-1.6454,-1.7391,-1.86,-1.8654,-1.8885,-1.9204,-1.7594,-1.6725,-1.6497,-1.525,-1.464,-1.4532,-1.4648,-1.4024,-1.2915,-1.2506,-1.1736,0.0,0.0,0.0,0.0,0.0,0.0,0.0,0.0,-1.5627,-1.5952,-1.6271,-1.6951,-1.7801,-1.8643,-1.928,-1.9793,-2.0279,-2.1829,-2.3163,-2.2524,-2.4585,0.0,0.0,-2.8778,-2.9909,-2.9784,-3.076,0.0,0.0,0.0,0.0,0.0,0.0,0.0,0.0,0.0,0.0,0.0,0.0,0.0,-3.7698,-3.711,-3.6523,-3.5991,-3.489,-3.4151,-3.3891,-3.3114,-3.2852,-3.3205,-3.3703,-3.3878,-3.3736,-3.4038,-3.432,-3.4537,-3.4537,-3.4432,-3.4247,-3.4709,-3.4912,-3.4945,-3.5397,-3.56,-3.56,-3.56,-3.56,-3.56,-3.56,-3.56,-3.56,-3.56,-3.56,-3.56,0.0,0.0,0.0,0.0,0.0,0.0,0.0,0.0,0.0,0.0,0.0,0.0,0.0,0.0,0.0,0.0,0.0,0.0,-1.4541,-1.4474,-1.4422,-1.4405,-1.4871,-1.5173,-1.5336,-1.5874,-1.6712,-1.7868,-1.7643,-1.7712,-1.8063,-1.6583,-1.6003,-1.6171,-1.5417,-1.4876,-1.4552,-1.4916,-1.4423,-1.3327,-1.2575,-1.1864,0.0,0.0,0.0,0.0,0.0,0.0,0.0,0.0,-1.5409,-1.5442,-1.5714,-1.6396,-1.7248,-1.8078,-1.8898,-1.9675,-2.0222,-2.1783,-2.3101,0.0,0.0,0.0,-2.8133,-2.9528,-3.0742,-3.1182,-3.1905,0.0,0.0,0.0,0.0,0.0,0.0,0.0,0.0,0.0,0.0,0.0,0.0,-3.6352,-3.5903,-3.5399,-3.4854,-3.4291,-3.3713,-3.3085,-3.231,-3.1975,-3.1851,-3.1929,-3.2456,-3.2651,-3.2431,-3.2984,-3.3083,-3.2713,-3.2713,-3.2949,-3.3423,-3.3931,-3.415,-3.4184,-3.4928,-3.5245,-3.5261,-3.5498,-3.56,-3.56,-3.56,-3.56,-3.56,-3.56,-3.56,-3.5566,0.0,0.0,0.0,0.0,0.0,0.0,0.0,0.0,0.0,0.0,0.0,0.0,0.0,0.0,0.0,0.0,0.0,0.0,-1.4605,-1.4532,-1.4462,-1.4392,-1.4458,-1.477,-1.5372,-1.5526,-1.581,-1.6309,-1.6563,-1.6347,-1.571,-1.5692,-1.5264,-1.4546,-1.5479,-1.5421,-1.4655,-1.5536,-1.4921,-1.3323,-1.2525,-1.1806,-1.1136,0.0,0.0,0.0,0.0,0.0,0.0,0.0,-1.5396,-1.5559,-1.6435,-1.7251,-1.8064,-1.8949,-1.972,-2.0286,-2.0304,-2.1282,0.0,0.0,0.0,0.0,-2.8761,-3.0356,-3.1943,-3.3503,0.0,0.0,0.0,0.0,0.0,0.0,0.0,0.0,0.0,0.0,0.0,0.0,0.0,-3.4485,-3.4817,-3.3419,-3.2516,-3.2565,-3.2516,-3.1825,-3.0363,-3.0987,-3.1152,-3.0699,-3.0699,-3.0848,-3.1193,-3.119,-3.119,-3.119,-3.119,-3.1968,-3.3389,-3.3389,-3.3389,-3.344,-3.4167,-3.4472,-3.4539,-3.5301,-3.5583,-3.56,-3.56,-3.56,-3.56,-3.56,-3.56,-3.5481,0.0,0.0,0.0,0.0,0.0,0.0,0.0,0.0,0.0,0.0,0.0,0.0,0.0,0.0,0.0,0.0,0.0,0.0,-1.4533,-1.4476,-1.4428,-1.4392,-1.4458,-1.4615,-1.484,-1.4822,-1.5378,-1.6517,-1.6067,-1.6046,-1.6376,-1.5337,-1.5013,-1.5288,-1.5708,-1.5352,-1.4526,-1.5439,-1.484,-1.3196,-1.238,-1.2044,-1.1952,0.0,0.0,0.0,0.0,0.0,0.0,0.0,0.0,0.0,-1.6436,-1.6799,-1.7211,-1.869,-1.9185,-1.9495,-2.0687,0.0,0.0,0.0,0.0,0.0,0.0,-3.1085,0.0,0.0,0.0,0.0,0.0,0.0,0.0,0.0,0.0,0.0,0.0,0.0,0.0,0.0,0.0,-3.1551,-3.1639,-3.1217,-3.0951,-3.0985,-3.0437,-3.0033,-2.9819,-2.9474,-2.9365,-2.95,-3.001,-3.0326,-3.0429,-3.0937,-3.119,-3.119,-3.119,-3.1427,-3.1867,-3.2374,-3.2632,-3.2682,-3.3406,-3.3728,-3.3778,-3.4523,-3.5131,-3.56,-3.56,-3.56,-3.56,-3.56,-3.5261,-3.4793,0.0,0.0,0.0,0.0,0.0,0.0,0.0,0.0,0.0,0.0,0.0,0.0,0.0,0.0,0.0,0.0,0.0,0.0,0.0,-1.4463,-1.4416,-1.4487,-1.4498,-1.456,-1.4687,-1.4648,-1.5027,-1.5852,-1.5315,-1.5301,-1.5726,-1.4787,-1.4781,-1.5569,-1.5711,-1.5441,-1.4927,-1.5508,-1.4801,-1.3201,-1.2349,-1.1964,-1.1828,0.0,0.0,0.0,0.0,0.0,0.0,0.0,0.0,0.0,-1.6012,-1.6587,-1.7267,-1.8288,-1.8673,-1.9138,-2.0799,0.0,0.0,0.0,0.0,0.0,0.0,0.0,0.0,0.0,0.0,0.0,0.0,0.0,0.0,0.0,0.0,0.0,0.0,0.0,0.0,0.0,0.0,-2.9948,-2.9806,-2.9772,-2.965,-2.9336,-2.9145,-2.8893,-2.8457,-2.827,-2.8408,-2.8976,-2.9433,-2.9803,-3.0108,-3.0548,-3.0768,-3.0768,-3.0463,-3.0635,-3.1207,-3.1667,-3.187,-3.1904,-3.2628,-3.3305,-3.388,-3.432,-3.4928,-3.56,-3.56,-3.56,-3.56,-3.56,-3.4981,-3.4119,0.0,0.0,0.0,0.0,0.0,0.0,0.0,0.0,0.0,0.0,0.0,0.0,0.0,0.0,0.0,0.0,0.0,0.0,0.0,0.0,-1.4389,-1.4594,-1.4552,-1.4614,-1.4813,-1.4823,-1.477,-1.4703,-1.4504,-1.4387,-1.4293,-1.4165,-1.4605,-1.5528,-1.5573,-1.5605,-1.5629,-1.5686,-1.4759,-1.3181,-1.2427,-1.1766,-1.1191,-1.0406,0.0,0.0,0.0,0.0,0.0,0.0,0.0,0.0,-1.5493,-1.6565,-1.7787,-1.7893,-1.8283,-1.9068,-2.0828,0.0,0.0,0.0,0.0,0.0,0.0,0.0,0.0,0.0,0.0,0.0,0.0,0.0,0.0,0.0,0.0,0.0,0.0,0.0,0.0,0.0,-2.9399,-2.9197,-2.8826,-2.879,-2.8484,-2.7756,-2.8366,-2.818,-2.6759,-2.7351,-2.8044,-2.8773,-2.8857,-2.9211,-2.9869,-2.9954,-3.0006,-2.9989,-2.9381,-2.9771,-3.0987,-3.1072,-3.114,-3.1241,-3.1911,-3.3005,-3.43,-3.4324,-3.4734,-3.5424,-3.5424,-3.5424,-3.5407,-3.534,-3.4507,-3.34,0.0,0.0,0.0,0.0,0.0,0.0,0.0,0.0,0.0,0.0,0.0,0.0,0.0,0.0,0.0,0.0,0.0,0.0,0.0,0.0,-1.385,-1.4576,-1.4698,-1.4803,-1.4944,-1.4956,-1.4907,-1.479,-1.4622,-1.4469,-1.43,-1.4229,-1.4719,-1.5655,-1.5625,-1.5686,-1.5826,-1.5795,-1.4372,-1.2193,-1.2733,-1.2492,-1.1811,-1.1794,-1.2943,0.0,0.0,0.0,0.0,0.0,0.0,0.0,-1.6198,-1.6605,-1.7076,-1.8421,-1.8701,-1.9058,0.0,-2.188,0.0,0.0,0.0,0.0,0.0,0.0,0.0,0.0,0.0,0.0,0.0,0.0,0.0,0.0,0.0,0.0,0.0,0.0,0.0,-2.8789,-2.7892,-2.7284,-2.7199,-2.7182,-2.7114,-2.6945,-2.7097,-2.7046,-2.6708,-2.6843,-2.7012,-2.7182,-2.7774,-2.8128,-2.8297,-2.8924,-2.9247,-2.9247,-2.9651,-2.9719,-2.9501,-3.0074,-3.0649,-3.1205,-3.1424,-3.2006,-3.2861,-3.2916,-3.3356,-3.4028,-3.4028,-3.4028,-3.3989,-3.3445,-3.2708,-3.1932,0.0,0.0,0.0,0.0,0.0,0.0,0.0,0.0,0.0,0.0,0.0,0.0,0.0,0.0,0.0,0.0,0.0,0.0,0.0,0.0,-1.4166,-1.4637,-1.4785,-1.49,-1.4992,-1.5026,-1.4977,-1.4852,-1.4757,-1.4844,-1.5103,-1.5012,-1.5428,-1.6266,-1.5896,-1.5709,-1.5643,-1.527,-1.4116,-1.255,-1.3059,-1.2598,-1.1627,-1.1693,-1.2395,-1.3336,-1.3363,0.0,0.0,0.0,0.0,0.0,0.0,0.0,-1.6805,-1.8145,-1.8334,-1.8545,0.0,0.0,0.0,0.0,0.0,0.0,0.0,0.0,0.0,0.0,0.0,0.0,0.0,0.0,0.0,0.0,0.0,0.0,0.0,0.0,-2.7498,-2.7138,-2.6568,-2.6031,-2.5692,-2.6285,-2.6404,-2.5709,-2.6302,-2.6539,-2.6184,-2.6505,-2.686,-2.7232,-2.7604,-2.7807,-2.7807,-2.823,-2.8433,-2.8433,-2.8467,-2.8342,-2.8141,-2.919,-3.0075,-3.0736,-3.0495,-3.0807,-3.1521,-3.1879,-3.2462,-3.3111,-3.3111,-3.3319,-3.3479,-3.2504,-3.1684,-3.1059,0.0,0.0,0.0,0.0,0.0,0.0,0.0,0.0,0.0,0.0,0.0,0.0,0.0,0.0,0.0,0.0,0.0,0.0,0.0,0.0,0.0,-1.4106,-1.4485,-1.4737,-1.4813,-1.4859,-1.4903,-1.492,-1.4715,-1.5172,-1.6297,-1.5977,-1.6252,-1.6994,-1.6417,-1.5908,-1.5453,-1.4903,-1.4123,-1.3267,-1.3464,-1.2765,-1.1592,-1.1561,-1.166,-1.1902,-1.2659,-1.3428,-1.4227,-1.5097,0.0,0.0,0.0,0.0,-1.6551,-1.7431,-1.7675,-1.7999,0.0,0.0,0.0,0.0,0.0,0.0,0.0,0.0,0.0,0.0,0.0,0.0,0.0,0.0,0.0,0.0,0.0,0.0,0.0,0.0,0.0,-2.566,-2.549,-2.5169,-2.4558,-2.5608,-2.5811,-2.4592,-2.5642,-2.6048,-2.5439,-2.6116,-2.6725,-2.7215,-2.735,-2.7418,-2.7418,-2.7418,-2.7451,-2.7464,-2.679,-2.6677,-2.7183,-2.8114,-2.9001,-2.9784,-2.9534,-2.9701,-3.0202,-3.0894,-3.1582,-3.2241,-3.2241,-3.2643,-3.3087,-3.1743,-3.0914,-3.0401,0.0,0.0,0.0,0.0,0.0,0.0,0.0,0.0,0.0,0.0,0.0,0.0,0.0,0.0,0.0,0.0,0.0,0.0,-1.3838,0.0,0.0,-1.1697,-1.3124,-1.3981,-1.4042,-1.4066,-1.4384,-1.5078,-1.4194,0.0,0.0,0.0,0.0,-1.7493,-1.7298,-1.6683,-1.5823,-1.5805,-1.4721,-1.3141,-1.4125,-1.399,-1.3196,-1.3314,-1.3408,-1.3511,-1.3744,-1.3918,-1.4154,-1.5095,-1.539,0.0,0.0,0.0,-1.571,-1.6538,-1.7172,-1.7921,0.0,0.0,0.0,0.0,0.0,0.0,0.0,0.0,0.0,0.0,0.0,0.0,0.0,0.0,0.0,0.0,0.0,0.0,0.0,0.0,0.0,-2.5609,-2.5033,-2.4609,-2.4508,-2.4677,-2.4711,-2.4508,-2.4677,-2.4745,-2.466,-2.5355,-2.5507,-2.4965,-2.5558,-2.588,-2.588,-2.588,-2.6,-2.6235,-2.5666,-2.6086,-2.7324,-2.6346,-2.6598,-2.7835,-2.899,-2.9197,-2.8839,-2.9535,-3.0223,-3.0782,-3.0782,-3.1177,-3.163,-3.0328,-2.9818,-2.9637,0.0,0.0,0.0,0.0,0.0,0.0,0.0,0.0,0.0,0.0,0.0,0.0,0.0,0.0,0.0,-1.4389,-1.4356,-1.4143,-1.3732,-1.3311,-1.2757,-1.2018,-1.3615,-1.4319,-1.3912,-1.4428,-1.4822,-1.5107,-1.4589,0.0,0.0,-1.6858,-1.7351,0.0,0.0,-1.7681,-1.6639,0.0,-1.6011,-1.4687,-1.5323,0.0,-1.3626,-1.3768,-1.3558,-1.3307,-1.4227,-1.4347,-1.4258,-1.5492,-1.5685,-1.5407,-1.5395,0.0,0.0,0.0,-1.7136,0.0,0.0,0.0,0.0,0.0,0.0,0.0,0.0,0.0,0.0,0.0,0.0,0.0,0.0,0.0,0.0,0.0,0.0,0.0,0.0,0.0,0.0,-2.4374,-2.4069,-2.3714,-2.3308,-2.4017,-2.4152,-2.3325,-2.4034,-2.4321,-2.3915,-2.4592,-2.4846,-2.4508,-2.522,-2.5406,-2.4983,-2.5531,-2.5736,-2.5559,-2.5012,-2.5087,-2.571,-2.5198,-2.5663,-2.6918,-2.7595,-2.7704,-2.7528,-2.8602,-2.919,-2.9445,-2.9445,-2.9849,-3.0283,-2.8978,-2.8723,-2.8944,0.0,0.0,0.0,0.0,0.0,0.0,0.0,0.0,0.0,0.0,0.0,0.0,0.0,0.0,0.0,0.0,-1.3965,-1.3806,-1.3808,-1.3505,-1.3016,-1.23,-1.3916,-1.4442,-1.3618,-1.4495,-1.5025,-1.5124,0.0,0.0,-1.6406,-1.6887,-1.7663,0.0,-1.9168,-1.8583,0.0,0.0,0.0,0.0,0.0,0.0,0.0,0.0,0.0,-1.386,-1.5142,0.0,0.0,0.0,0.0,0.0,0.0,0.0,0.0,0.0,0.0,0.0,0.0,0.0,0.0,0.0,0.0,0.0,0.0,0.0,0.0,0.0,0.0,0.0,0.0,0.0,0.0,0.0,0.0,0.0,0.0,0.0,0.0,-2.3393,-2.3224,-2.2902,-2.2347,-2.3291,-2.3477,-2.2381,-2.3203,-2.3573,-2.3139,-2.3707,-2.3964,-2.3764,-2.4487,-2.454,-2.3908,-2.4852,-2.5153,-2.4738,-2.4357,-2.4199,-2.4214,-2.4294,-2.4949,-2.605,-2.6428,-2.6587,-2.6677,-2.7859,-2.8442,-2.8607,-2.8607,-2.9011,-2.9472,-2.8289,-2.8184,-2.8502,0.0,0.0,0.0,0.0,0.0,0.0,0.0,0.0,0.0,0.0,0.0,0.0,-1.4158,-1.3328,-1.3417,-1.4998,-1.4328,-1.3793,-1.3796,-1.3017,-1.2207,-1.1404,-1.3096,0.0,-1.2774,-1.3614,-1.4437,0.0,0.0,0.0,-1.6396,-1.6174,-1.6678,-1.7859,-1.9638,-1.9289,-1.7456,0.0,0.0,0.0,0.0,0.0,0.0,0.0,0.0,0.0,0.0,0.0,0.0,0.0,0.0,0.0,0.0,0.0,0.0,0.0,0.0,0.0,0.0,0.0,0.0,0.0,0.0,0.0,0.0,0.0,0.0,0.0,0.0,0.0,0.0,0.0,0.0,0.0,0.0,0.0,0.0,0.0,0.0,-2.3393,-2.2784,-2.233,-2.2296,-2.2364,-2.2381,-2.2296,-2.1965,-2.1923,-2.2333,-2.2632,-2.2466,-2.1775,-2.2466,-2.2654,-2.2229,-2.3088,-2.3526,-2.3487,-2.3597,-2.3638,-2.3638,-2.3661,-2.4029,-2.4769,-2.6057,-2.6587,-2.6632,-2.736,-2.8034,-2.8607,-2.8607,-2.9011,-2.9517,-2.8801,-2.8562,-2.8502,0.0,0.0,0.0,0.0,0.0,0.0,0.0,0.0,0.0,0.0,0.0,0.0,0.0,-1.4134,-1.3824,-1.4375,-1.3533,-1.2982,-1.3035,-1.3182,-1.2703,-1.1414,-1.3554,-1.4379,-1.3549,-1.4394,-1.4903,0.0,0.0,-1.4852,-1.5378,-1.5767,-1.6148,-1.6636,-1.8556,-1.9015,-1.8434,-1.952,0.0,0.0,0.0,0.0,0.0,0.0,0.0,0.0,0.0,0.0,0.0,0.0,0.0,0.0,0.0,0.0,0.0,0.0,0.0,0.0,0.0,0.0,0.0,0.0,0.0,0.0,0.0,0.0,0.0,0.0,0.0,0.0,0.0,0.0,0.0,0.0,0.0,0.0,0.0,0.0,0.0,-2.2699,-2.2448,-2.2296,-2.2296,-2.2032,-2.1838,-2.1838,-2.1461,-2.1291,-2.1462,-2.155,-2.1487,-2.1213,-2.194,-2.2307,-2.2281,-2.2126,-2.2144,-2.2308,-2.2786,-2.3032,-2.3047,-2.3415,-2.4208,-2.5262,-2.5749,-2.6198,-2.6632,-2.733,-2.775,-2.7959,-2.7959,-2.8109,-2.8289,-2.8049,-2.7959,-2.7929,0.0,0.0,0.0,0.0,0.0,0.0,0.0,0.0,0.0,0.0,0.0,0.0,0.0,0.0,-1.375,-1.3945,-1.3624,-1.3414,-1.3442,-1.393,-1.363,-1.234,-1.4167,-1.4852,-1.4014,-1.4577,-1.4924,0.0,0.0,0.0,0.0,-1.5192,-1.5404,-1.5555,-1.7081,-1.7984,0.0,0.0,0.0,-1.7827,0.0,0.0,-1.8346,0.0,0.0,0.0,0.0,0.0,0.0,0.0,0.0,0.0,0.0,0.0,0.0,0.0,0.0,0.0,0.0,0.0,0.0,0.0,0.0,0.0,0.0,0.0,0.0,0.0,0.0,0.0,0.0,0.0,0.0,0.0,0.0,0.0,0.0,0.0,0.0,-2.2092,-2.2077,-2.2003,-2.1886,-2.1568,-2.1399,-2.1399,-2.1023,0.0,-2.0991,-2.0845,-2.078,-2.078,-2.1123,-2.1354,-2.1477,-2.124,-2.1193,-2.138,-2.2283,-2.2703,-2.2718,-2.331,-2.4208,-2.5277,-2.551,-2.6108,-2.6986,-2.742,-2.76,-2.76,-2.76,-2.76,-2.76,-2.76,-2.76,-2.76,0.0,0.0,0.0,0.0,0.0,0.0,0.0,0.0,0.0,-1.4256,0.0,0.0,0.0,0.0,0.0,-1.3881,-1.4712,-1.5164,-1.5063,-1.5142,-1.4849,-1.4043,-1.4844,-1.4912,-1.4052,-1.4031,-1.4385,-1.5098,-1.4252,-1.4205,-1.4881,0.0,-1.4447,-1.4727,-1.5386,-1.6269,-1.7274,0.0,-1.7798,-1.7901,0.0,-2.0362,-2.012,0.0,0.0,0.0,-2.0278,-1.969,0.0,0.0,0.0,0.0,0.0,0.0,0.0,0.0,0.0,0.0,0.0,0.0,0.0,0.0,0.0,0.0,0.0,0.0,0.0,0.0,0.0,0.0,0.0,0.0,0.0,0.0,0.0,0.0,0.0,0.0,0.0,0.0,-2.1582,-2.143,-2.1039,-2.0991,-2.0975,-2.0975,-2.055,-2.0483,-2.0943,-2.0533,-2.028,-2.028,-1.9894,-1.9708,-1.9708,-2.0348,-2.0673,-2.0718,-2.2044,-2.2673,-2.2718,-2.331,-2.3984,-2.4649,-2.5277,-2.6318,-2.754,-2.7585,-2.76,-2.76,-2.76,-2.7585,-2.757,-2.7585,-2.7585,-2.757,0.0,0.0,0.0,0.0,0.0,0.0,0.0,-1.5366,-1.5232,0.0,0.0,0.0,-1.5108,-1.4776,-1.4693,-1.4883,-1.5086,-1.4957,-1.4333,-1.4873,-1.4862,-1.4106,-1.4907,-1.5239,-1.4944,-1.4983,-1.5074,-1.5177,-1.4879,-1.4791,-1.4886,-1.4635,-1.4508,0.0,-1.4824,-1.5436,-1.6318,-1.7923,0.0,0.0,-1.9943,-2.0189,0.0,0.0,0.0,0.0,0.0,-1.7504,-1.7744,0.0,-1.7369,-1.8829,0.0,0.0,0.0,0.0,0.0,0.0,-1.8132,0.0,0.0,0.0,0.0,0.0,0.0,0.0,0.0,0.0,0.0,0.0,0.0,0.0,0.0,0.0,0.0,0.0,0.0,0.0,0.0,0.0,-2.1337,-2.1118,-2.1007,-2.0682,-2.05,0.0,-2.0089,-1.9927,-2.005,-1.9945,-1.9874,-1.9874,-1.9764,-1.9708,-1.9708,-1.9869,-2.0228,-2.0703,-2.156,-2.2239,-2.2718,-2.331,-2.3984,-2.4619,-2.4799,-2.5352,-2.6228,-2.721,-2.76,-2.76,-2.76,-2.73,-2.6941,-2.742,-2.7285,-2.6956,0.0,0.0,0.0,0.0,0.0,0.0,-1.5368,-1.5329,-1.5309,0.0,0.0,0.0,-1.5993,-1.5908,-1.5727,-1.5338,-1.5289,-1.5078,-1.4566,-1.4981,-1.5053,-1.4666,-1.5096,-1.5347,-1.5339,-1.5019,-1.4978,-1.5197,-1.48,-1.4714,-1.4938,-1.4736,-1.4625,-1.4606,0.0,0.0,0.0,0.0,0.0,0.0,-2.038,0.0,0.0,-2.0494,-2.0255,0.0,0.0,0.0,-1.7466,-1.5957,-1.6542,0.0,0.0,0.0,0.0,0.0,0.0,0.0,0.0,0.0,0.0,0.0,0.0,0.0,-1.7053,-1.7713,-1.8222,0.0,0.0,0.0,0.0,0.0,0.0,0.0,0.0,0.0,0.0,0.0,0.0,0.0,-2.048,-2.0366,-2.0449,-2.021,-2.0052,-2.0052,-1.9821,-1.9708,-1.9708,-1.9708,-1.9708,-1.9708,-1.9708,-1.9708,-1.9708,-1.9708,-1.9884,-2.0288,-2.1246,-2.1889,-2.2313,-2.3191,-2.3819,-2.4201,-2.4485,-2.4829,-2.5262,-2.606,-2.654,-2.6806,-2.7076,-2.6752,-2.6228,-2.6617,-2.6692,-2.6626,0.0,0.0,0.0,0.0,0.0,0.0,-1.5431,-1.5447,-1.5446,0.0,-1.6133,-1.6632,-1.6699,-1.6695,-1.6329,-1.5381,-1.5368,-1.5377,-1.5324,-1.5314,-1.5333,-1.5404,-1.5332,-1.5347,-1.5396,-1.4641,-1.4565,-1.5216,-1.4454,-1.4393,-1.5034,-1.4851,-1.4818,-1.4928,0.0,0.0,0.0,0.0,0.0,-1.8309,-2.0762,-2.092,0.0,0.0,-2.1487,0.0,-1.7704,-1.7363,-1.7677,-1.5698,-1.541,0.0,0.0,0.0,0.0,0.0,-1.7695,0.0,0.0,0.0,0.0,0.0,0.0,0.0,-1.6166,-1.688,-1.719,-1.6459,0.0,0.0,0.0,0.0,0.0,0.0,0.0,0.0,0.0,0.0,0.0,0.0,-1.9277,-1.928,-1.9459,-1.9483,-1.9513,-1.9588,-1.9663,-1.9708,-1.9708,-1.9708,-1.9708,-1.9708,-1.9708,-1.9708,-1.9708,-1.9708,-1.9738,-1.9828,-2.1021,-2.1665,-2.1844,-2.2981,-2.3513,-2.3538,-2.4127,-2.435,-2.4288,-2.4413,-2.4878,-2.5565,-2.6074,-2.5872,-2.5284,-2.5358,-2.5723,-2.6094,0.0,0.0,0.0,0.0,0.0,0.0,0.0,-1.6353,-1.6353,-1.6346,-1.6537,-1.668,-1.6697,-1.6697,-1.6334,-1.5464,-1.5398,-1.5381,-1.5376,-1.5375,-1.5391,-1.54,-1.5399,-1.5398,-1.5408,-1.5232,-1.5213,-1.537,-1.5181,-1.5184,-1.5319,-1.5234,-1.5141,-1.5068,0.0,0.0,0.0,0.0,0.0,-1.9863,-1.9611,0.0,-1.8721,-1.7704,-1.6743,-1.5823,-1.5245,-1.5133,-1.5563,0.0,-1.7102,-1.6244,0.0,0.0,0.0,0.0,0.0,0.0,0.0,0.0,0.0,0.0,0.0,0.0,-1.5745,-1.6982,-1.7759,0.0,0.0,0.0,0.0,0.0,0.0,0.0,0.0,0.0,0.0,0.0,0.0,0.0,0.0,-1.8051,-1.8089,-1.8087,-1.8311,-1.8852,-1.9408,-1.9708,-1.9708,-1.9708,-1.9708,-1.9708,-1.9708,-1.9708,-1.9708,-1.9708,-1.9959,-2.0494,-2.0763,-2.1455,-2.2508,-2.2763,-2.2896,-2.2889,-2.302,-2.2775,-2.2311,-2.286,-2.379,-2.4815,-2.4423,-2.3872,-2.3329,-2.3886,-2.3805,-2.3583,0.0,0.0,0.0,0.0,0.0,0.0,0.0,-1.7229,-1.7249,-1.7244,-1.7651,-1.7968,-1.7982,-1.8008,-1.765,-1.6768,-1.7098,-1.7156,-1.6732,-1.6695,-1.6499,-1.6065,-1.564,-1.5404,-1.5392,-1.5401,-1.5404,-1.5402,-1.5394,-1.5407,-1.5403,-1.5329,-1.5283,-1.5276,-1.5697,0.0,0.0,0.0,-1.8652,-1.9914,-1.9623,0.0,-1.872,-1.7581,-1.6426,-1.5315,-1.4713,-1.475,-1.5573,-1.8657,-1.8744,0.0,0.0,-2.0026,-1.9884,0.0,-1.8743,-1.867,0.0,0.0,0.0,-1.4669,0.0,0.0,0.0,-1.6181,-1.6538,-1.6351,0.0,0.0,0.0,0.0,0.0,0.0,0.0,0.0,0.0,0.0,0.0,0.0,-1.744,-1.7339,-1.7669,-1.7713,-1.7983,-1.8657,-1.9016,-1.9346,-1.9693,-1.9708,-1.9708,-1.9708,-1.9708,-1.9708,-1.9708,-1.9708,-1.9872,-2.0213,-2.0539,-2.0916,-2.1318,-2.1663,-2.1794,-2.1815,-2.1815,-2.175,-2.17,-2.173,-2.2166,-2.2776,-2.3081,-2.2793,-2.2232,-2.2585,-2.271,-2.274,-1.6838,0.0,0.0,0.0,0.0,0.0,0.0,0.0,-1.8069,-1.7907,-1.8659,-1.915,-1.9052,-1.9335,0.0,0.0,-1.9082,-1.9336,0.0,0.0,0.0,-1.6991,-1.6111,-1.5562,-1.5405,-1.5407,-1.5409,-1.539,-1.5407,-1.5405,-1.5403,-1.535,-1.5441,-1.5679,-1.6314,0.0,0.0,0.0,0.0,-1.9367,0.0,-1.9496,-1.9258,-1.8433,-1.7496,-1.6485,-1.5306,-1.5275,-1.6225,-1.9043,0.0,-1.8925,-1.9565,-2.0311,0.0,0.0,0.0,0.0,0.0,0.0,0.0,0.0,0.0,-1.3878,0.0,0.0,0.0,-1.549,0.0,0.0,0.0,0.0,0.0,0.0,0.0,0.0,0.0,0.0,0.0,0.0,-1.6729,-1.6863,-1.7491,-1.7519,-1.7788,-1.8446,-1.8627,-1.8986,-1.9663,-1.9708,-1.9708,-1.9708,-1.9708,-1.9708,-1.9708,-1.9603,-1.9548,-1.9548,-1.9986,-2.0045,-1.9767,-2.0309,-2.062,-2.0726,-2.0603,-2.0853,-2.129,-2.0688,-2.0505,-2.0724,-2.1736,-2.1811,-2.1315,-2.1315,-2.1689,-2.2095,-1.7717,-1.8238,0.0,0.0,0.0,0.0,0.0,0.0,-1.8612,-1.7892,-1.8615,0.0,0.0,0.0,0.0,0.0,0.0,0.0,-1.9254,0.0,0.0,0.0,0.0,0.0,-1.5425,-1.5409,-1.5391,-1.5391,-1.5391,-1.539,-1.5407,-1.5389,-1.5797,0.0,-1.6592,0.0,0.0,0.0,-1.8328,0.0,-1.8053,-1.8774,0.0,-1.7876,-1.7709,-1.8374,-1.6828,-1.6215,-1.6465,0.0,-1.7942,-1.6918,0.0,-2.0365,-1.9161,0.0,0.0,0.0,0.0,0.0,0.0,0.0,-1.477,0.0,0.0,0.0,-1.5918,-1.5633,0.0,0.0,0.0,0.0,0.0,0.0,0.0,0.0,0.0,0.0,0.0,0.0,-1.6823,-1.6519,-1.694,-1.6877,-1.71,-1.7773,-1.8356,-1.8986,-1.9663,-1.9708,-1.9708,-1.9708,-1.9708,-1.9708,-1.9708,-1.9225,-1.8987,-1.9001,-1.8586,-1.8673,-1.9189,-1.9259,-1.9598,-2.0063,-1.9554,-1.9577,-1.9978,-1.9421,-1.9485,-1.9939,-2.0067,-2.0067,-2.0016,-2.0016,-2.0054,-2.0207,-1.8555,-1.867,0.0,0.0,0.0,0.0,0.0,0.0,-1.9594,-1.9336,-1.964,0.0,0.0,0.0,0.0,0.0,0.0,-2.1966,0.0,0.0,0.0,0.0,0.0,0.0,0.0,-1.639,-1.5903,-1.5395,-1.5398,-1.5403,-1.5407,-1.5407,-1.5878,0.0,-1.6836,0.0,-1.8603,0.0,0.0,0.0,0.0,0.0,0.0,-1.7723,-1.6525,-1.6776,-1.6445,-1.6577,-1.6985,0.0,-1.7947,0.0,0.0,0.0,0.0,0.0,0.0,0.0,0.0,0.0,0.0,0.0,0.0,0.0,-1.4496,0.0,-1.4048,0.0,0.0,0.0,0.0,0.0,0.0,0.0,-1.6299,0.0,0.0,0.0,0.0,0.0,0.0,0.0,-1.6378,-1.6742,-1.7212,-1.7782,-1.8477,-1.9123,-1.9732,-1.9726,-1.9708,-1.9708,-1.9708,-1.9548,-1.9244,-1.9006,-1.8727,-1.8438,-1.8224,-1.807,-1.8051,-1.8051,-1.8216,-1.8495,-1.8536,-1.887,-1.9334,-1.9447,-1.961,-1.9798,-1.9798,-1.9798,-1.9798,-1.9798,-1.9798,-1.9836,-1.9306,0.0,0.0,0.0,0.0,0.0,0.0,0.0,0.0,0.0,0.0,0.0,-2.2388,-2.2429,0.0,0.0,0.0,-2.2911,0.0,0.0,-2.1317,0.0,0.0,0.0,0.0,0.0,-1.7018,-1.6324,-1.5938,-1.5726,-1.5714,-1.5505,-1.5984,-1.7067,0.0,-1.7879,-1.8866,0.0,0.0,-2.0317,-2.0671,-2.1071,-2.1156,-1.8279,-1.6724,-1.6157,-1.6589,-1.7069,-1.7458,-1.7112,-1.7984,0.0,-1.8105,0.0,0.0,0.0,0.0,0.0,-1.691,0.0,0.0,0.0,0.0,0.0,0.0,0.0,0.0,0.0,0.0,0.0,0.0,0.0,0.0,0.0,0.0,-1.6155,0.0,0.0,0.0,0.0,0.0,0.0,0.0,-1.665,-1.7268,-1.799,-1.8458,-1.9061,-1.9806,-1.9621,-1.9479,-1.9479,-1.935,-1.9062,-1.8669,-1.8535,-1.8283,-1.7887,-1.7727,-1.7463,-1.7076,-1.7076,-1.729,-1.7614,-1.7865,-1.8455,-1.9233,-1.9497,-1.9673,-1.9798,-1.9798,-1.9798,-1.9798,-1.9798,-1.9798,-1.9798,-1.9961,-2.0031,0.0,0.0,0.0,0.0,0.0,0.0,0.0,0.0,0.0,0.0,0.0,0.0,0.0,0.0,0.0,-2.3557,-2.1911,0.0,-2.2215,0.0,0.0,-1.9831,0.0,0.0,0.0,0.0,-1.7256,-1.656,-1.6546,-1.5769,-1.6326,-1.7958,-1.79,-1.8709,-2.0147,-2.0095,-1.9464,-1.8533,-1.907,-1.8711,-1.8061,0.0,-1.9462,-1.8114,-1.8121,0.0,0.0,-1.7771,-1.759,0.0,0.0,0.0,0.0,0.0,0.0,0.0,0.0,0.0,0.0,-1.5493,0.0,0.0,0.0,0.0,-1.5511,0.0,0.0,0.0,0.0,0.0,0.0,0.0,0.0,0.0,0.0,0.0,0.0,0.0,0.0,0.0,0.0,-1.6495,-1.6974,-1.8298,-1.8175,-1.8608,-1.9912,-1.9314,-1.893,-1.893,-1.8419,-1.8145,-1.8145,-1.7605,-1.7353,-1.7333,-1.6795,-1.6531,-1.6543,-1.6543,-1.7124,-1.8154,-1.7626,-1.8304,-1.9748,-1.9221,-1.9321,-1.9798,-1.9798,-1.9798,-1.9798,-1.9798,-1.9798,-1.9798,0.0,0.0,0.0,0.0,0.0,0.0,0.0,-2.1361,0.0,0.0,0.0,0.0,0.0,0.0,-2.2311,0.0,0.0,-2.2416,-2.1894,-2.2078,0.0,0.0,0.0,-2.1568,0.0,0.0,0.0,0.0,0.0,-1.7553,-1.8117,-1.7392,-1.7673,-1.8797,0.0,-1.8763,0.0,0.0,0.0,0.0,0.0,-2.0035,-2.0182,0.0,-1.845,-1.7691,-1.7868,-1.7889,0.0,-1.7537,-1.7392,-1.733,-1.7422,-1.7729,-1.805,-1.7944,-1.7883,-1.7709,0.0,0.0,-1.5552,-1.4999,0.0,0.0,0.0,0.0,0.0,0.0,0.0,0.0,0.0,0.0,0.0,0.0,0.0,0.0,0.0,0.0,0.0,0.0,0.0,0.0,0.0,0.0,-1.7535,-1.7721,-1.8113,-1.8655,-1.9379,-1.9034,-1.884,-1.8897,-1.8708,-1.8302,-1.7585,-1.7394,-1.7105,-1.6774,-1.6595,-1.65,-1.65,-1.65,-1.6936,-1.7664,-1.7852,-1.8442,-1.9271,-1.9447,-1.9648,-1.9798,-1.9798,-1.9798,-1.9798,-1.9798,-1.9798,-1.9721,-2.0516,0.0,0.0,0.0,0.0,0.0,0.0,0.0,0.0,0.0,-2.247,0.0,-2.3324,0.0,-2.197,0.0,-2.152,-2.1487,-2.1832,-2.1523,0.0,-2.2462,-2.2427,0.0,0.0,0.0,0.0,0.0,0.0,-1.8723,-1.9239,-1.8272,-1.8304,-1.9158,0.0,-1.9183,-1.9645,0.0,-1.9578,0.0,0.0,-2.0536,0.0,0.0,-1.8484,-1.8056,0.0,-1.7715,-1.7584,-1.7368,-1.7134,-1.6956,-1.6968,-1.7117,-1.7288,-1.7287,-1.7139,-1.6866,-1.6417,-1.5822,0.0,-1.4799,-1.516,0.0,-1.4844,0.0,0.0,0.0,0.0,0.0,0.0,0.0,0.0,0.0,0.0,0.0,0.0,-1.5122,0.0,0.0,0.0,0.0,0.0,0.0,-1.7588,-1.7652,-1.7902,-1.83,-1.8865,-1.8468,-1.8263,-1.8333,-1.8165,-1.7706,-1.7013,-1.7013,-1.6837,-1.65,-1.65,-1.65,-1.65,-1.65,-1.6914,-1.7689,-1.8053,-1.8618,-1.9309,-1.966,-1.9798,-1.9798,-1.9798,-1.9798,-1.9798,-1.9798,-1.9631,-1.9307,0.0,0.0,0.0,0.0,-2.1049,0.0,0.0,0.0,-2.3699,0.0,-2.4258,-2.3645,-2.6139,-2.4177,-2.2413,-2.1788,-2.0975,0.0,-2.169,-2.0997,0.0,0.0,-2.1471,-2.1307,-2.0998,0.0,0.0,0.0,0.0,0.0,-1.9972,-1.8501,-1.8313,-1.9209,-1.922,0.0,-2.1376,-2.0179,-2.0015,-2.0535,-2.0184,-2.0099,-2.0155,-1.9874,-1.9595,-1.9188,-1.8144,-1.7572,-1.728,-1.7272,-1.6853,-1.6564,-1.7745,-1.709,-1.6069,-1.689,-1.6273,-1.5162,-1.4299,-1.5019,-1.5834,-1.4969,-1.6161,0.0,0.0,0.0,-1.6034,0.0,0.0,0.0,0.0,0.0,0.0,0.0,0.0,0.0,0.0,0.0,0.0,0.0,0.0,0.0,0.0,-1.6885,-1.7158,-1.7985,-1.7562,-1.7609,0.0,-1.7644,-1.7219,-1.7287,-1.6803,-1.6543,-1.65,-1.65,-1.65,-1.65,-1.65,-1.65,-1.65,-1.6466,-1.7057,-1.8133,-1.8097,-1.8709,-1.9695,-1.9695,-1.9695,-1.9695,-1.9695,-1.9695,-1.9695,-1.9721,-1.9267,-1.8501,-2.0311,-1.9823,-1.9349,0.0,-2.1086,-2.2254,0.0,0.0,0.0,0.0,-2.3821,-2.2954,-2.3636,-2.2049,-2.0861,-2.0697,-2.0576,0.0,0.0,0.0,0.0,-2.0518,-2.164,-2.1866,-2.0939,-2.1672,0.0,-2.2785,0.0,0.0,-2.1589,-2.0146,-1.996,-2.0804,0.0,0.0,-2.2137,-2.2114,-2.1826,-2.1269,-1.9802,-2.0008,-2.109,0.0,-1.9599,-1.9542,-1.7995,-1.7368,-1.7219,-1.6722,-1.6763,-1.7049,-1.7076,-1.7149,-1.7249,-1.748,-1.6823,-1.6078,-1.6236,-1.5751,-1.5253,-1.5406,-1.6189,-1.6806,0.0,0.0,0.0,0.0,0.0,0.0,0.0,0.0,0.0,0.0,0.0,0.0,0.0,0.0,0.0,-1.6219,0.0,0.0,0.0,-1.7045,-1.7071,-1.72,-1.6947,-1.6991,-1.7502,0.0,-1.7134,-1.7147,-1.7108,-1.6888,-1.65,-1.65,-1.65,-1.65,-1.65,-1.65,-1.6466,-1.603,-1.6399,-1.7376,-1.6911,-1.728,-1.8167,-1.8167,-1.8167,-1.8167,-1.8167,-1.8167,-1.8221,-1.8768,-1.8178,-1.7088,-2.0078,0.0,0.0,-1.9539,0.0,0.0,-2.2027,0.0,0.0,-2.5187,-2.3403,0.0,-2.3184,-2.1486,-2.0308,-2.0307,-2.0363,0.0,-2.0893,0.0,0.0,-2.0638,-2.1046,-2.0989,-2.0354,-2.1102,0.0,-2.1833,0.0,0.0,-2.1442,-2.0494,-2.0527,-2.1369,0.0,-2.1895,0.0,-2.2372,-2.23,-2.235,-2.0286,-2.0271,0.0,-2.0355,-1.9744,-1.9262,-1.81,-1.7334,-1.686,-1.6764,-1.6869,-1.7091,-1.7463,-1.7623,-1.7677,-1.7559,-1.6944,-1.629,-1.6169,-1.5524,-1.5022,-1.5575,-1.5981,-1.625,-1.625,-1.6713,-1.6935,0.0,-1.643,-1.6446,0.0,0.0,0.0,0.0,0.0,0.0,0.0,0.0,0.0,0.0,-1.5995,0.0,-1.6717,-1.6743,-1.6772,-1.6772,-1.6532,-1.6535,-1.6915,0.0,-1.6986,-1.7042,-1.7412,-1.7497,-1.726,-1.7011,-1.6945,-1.7024,-1.6673,-1.6358,-1.6095,-1.5742,-1.5997,-1.669,-1.6353,-1.6737,-1.7605,-1.7605,-1.7605,-1.7605,-1.7605,-1.7517,-1.749,-1.7902,-1.7518,-1.6809,0.0,0.0,0.0,0.0,0.0,0.0,0.0,-2.4104,0.0,-2.5203,0.0,-2.2098,-2.3645,-2.1705,-2.0281,-2.0254,0.0,-2.0598,-2.1339,-2.0624,-2.0423,-2.1053,-2.0132,-1.9588,-1.952,-2.0357,0.0,0.0,0.0,0.0,-2.0583,-2.0145,-2.0469,0.0,0.0,0.0,0.0,-2.1934,-2.2148,-2.3377,-2.113,-2.0642,-2.1212,-2.0796,-1.9909,-1.8818,-1.8408,-1.7529,-1.6628,-1.7174,-1.7167,-1.7174,-1.8326,-1.8323,-1.7806,-1.7574,-1.7001,-1.624,-1.5434,-1.5156,-1.5223,-1.568,-1.5806,-1.5806,-1.5806,-1.6107,-1.5978,-1.4499,-1.5311,-1.5833,-1.4382,0.0,0.0,0.0,0.0,0.0,0.0,0.0,0.0,0.0,0.0,0.0,0.0,-1.6274,-1.6353,-1.6557,-1.6274,-1.6219,-1.6493,0.0,-1.6821,-1.6879,-1.7446,-1.7891,-1.8207,-1.752,-1.7324,-1.763,-1.6781,-1.6073,-1.5477,-1.5446,-1.567,-1.6061,-1.6026,-1.6504,-1.7302,-1.7302,-1.7302,-1.7302,-1.7368,-1.7266,-1.7075,-1.7107,-1.7169,-1.7131,0.0,0.0,0.0,0.0,0.0,-2.5401,-2.1908,-2.3635,-2.5043,-2.4243,-2.2595,-2.1828,-2.2663,-2.1297,-2.0226,-2.0077,-2.01,0.0,0.0,0.0,0.0,-1.9888,-1.9712,-1.9441,-1.9119,-1.9839,-2.0338,0.0,0.0,0.0,-2.1071,-2.0067,0.0,0.0,0.0,0.0,-2.4626,-2.2782,0.0,-2.3175,-2.1228,-2.0687,-2.1007,-2.0533,-1.9916,-1.9231,-1.8776,-1.8277,-1.7838,-1.7681,-1.7942,-1.8386,-1.8627,-1.8691,-1.8683,-1.8635,-1.791,-1.7089,-1.6907,-1.6563,-1.6237,-1.6337,-1.635,-1.635,-1.635,-1.6055,-1.5672,-1.5384,-1.5159,-1.5051,-1.5183,0.0,0.0,0.0,0.0,0.0,0.0,0.0,0.0,0.0,0.0,-1.558,0.0,0.0,-1.6258,-1.6355,-1.6207,-1.6089,-1.6025,0.0,-1.6542,0.0,-1.6393,-1.7053,0.0,0.0,-1.6414,-1.7351,-1.6259,-1.5432,-1.4846,-1.4699,-1.4854,-1.5284,-1.5127,-1.5335,-1.5806,-1.5806,-1.5806,-1.5807,-1.6207,-1.6347,-1.6316,-1.6661,-1.7026,-1.7342,0.0,0.0,0.0,0.0,0.0,0.0,0.0,-2.2836,0.0,-2.2742,-2.1924,-2.1521,-2.1839,-2.0783,-2.0006,-1.9906,-1.9925,-1.9935,-1.9906,-1.9805,-1.9707,-1.9596,-1.9398,0.0,-1.8992,-1.9118,-1.9549,-2.0349,0.0,0.0,-2.1444,-2.0833,0.0,0.0,0.0,-2.3361,0.0,0.0,0.0,-2.2744,-2.0663,-2.0162,-2.0583,-2.0141,-1.9817,-1.9541,-1.9299,-1.9108,-1.8896,-1.8378,-1.8431,-1.871,-1.8776,-1.8848,-1.8798,-1.8243,-1.7706,-1.7229,-1.6951,-1.6689,-1.65,-1.65,-1.65,-1.6423,-1.6095,-1.582,-1.5432,-1.479,-1.4664,-1.4753,-1.4965,-1.4809,0.0,0.0,0.0,0.0,0.0,0.0,0.0,0.0,0.0,0.0,0.0,0.0,0.0,0.0,0.0,0.0,0.0,0.0,-1.6655,0.0,0.0,0.0,-1.8434,0.0,-1.6527,-1.7536,-1.6114,-1.5249,-1.4909,-1.4809,-1.4831,-1.4945,-1.4826,-1.5029,-1.543,-1.5654,-1.5752,-1.5791,-1.624,-1.6553,-1.6809,-1.6992,-1.7344,-1.7676,0.0,-2.1871,0.0,0.0,-2.3281,0.0,-2.2687,-2.2337,-2.1941,-2.1225,-2.1043,-2.0966,-2.0934,-2.0263,-1.9797,-1.9762,-1.9762,-1.9762,-1.9762,-1.9617,-1.9534,-1.9534,-1.919,-1.8966,-1.8914,-1.85,-1.8784,0.0,0.0,0.0,-2.1447,-2.1491,0.0,0.0,0.0,0.0,0.0,0.0,-2.1196,-2.1956,-2.0174,-1.9732,-2.0141,-1.9836,-1.9708,-1.9708,-1.9708,-1.9708,-1.96,-1.8953,-1.874,-1.8759,-1.8865,-1.8727,-1.84,-1.7544,-1.7209,-1.7034,-1.6616,-1.65,-1.6466,-1.6337,-1.6315,-1.6151,-1.5543,-1.5309,-1.4949,-1.4003,-1.4084,-1.4294,-1.4167,-1.3733,0.0,0.0,0.0,0.0,0.0,0.0,0.0,0.0,0.0,0.0,-1.4821,0.0,0.0,0.0,0.0,0.0,-1.567,0.0,0.0,0.0,0.0,-1.8287,-1.8595,0.0,-1.6761,-1.7786,-1.5966,-1.5028,-1.4898,-1.5001,-1.4942,-1.4785,-1.4883,-1.5156,-1.5576,-1.5948,-1.6153,-1.6281,-1.6699,-1.708,-1.7393,-1.749,-1.7725,-1.7959,0.0,0.0,0.0,0.0,0.0,0.0,-2.3889,-2.2787,-2.1661,-2.0159,-1.9957,-1.9893,-1.9774,-1.9788,-1.975,-1.9629,-1.9616,-1.9616,-1.9616,-1.9449,-1.9327,-1.9327,-1.9127,-1.8887,-1.8632,-1.8361,-1.8402,0.0,0.0,-2.0133,0.0,0.0,0.0,0.0,0.0,0.0,-2.1664,-2.1406,-2.099,-2.051,-2.0285,-2.0026,-1.9747,-1.9711,-1.9708,-1.9708,-1.9708,-1.9708,-1.9621,-1.9078,-1.8881,-1.8877,-1.8897,-1.8243,-1.7422,-1.7333,-1.6951,-1.6552,-1.6522,-1.65,-1.638,-1.582,-1.5676,-1.5521,-1.4926,-1.4352,-1.3933,-1.3815,-1.3396,-1.3065,-1.3041,-1.3515,-1.394,0.0,0.0,0.0,0.0,0.0,0.0,0.0,0.0,0.0,0.0,-1.4922,0.0,0.0,-1.5344,0.0,0.0,0.0,0.0,-1.6157,-1.7087,-1.8004,-1.886,-1.6788,-1.6443,-1.7773,-1.5553,-1.4374,-1.4204,-1.4623,-1.483,-1.4805,-1.5186,-1.5605,-1.6036,-1.6075,-1.6299,-1.6677,-1.7148,-1.7344,-1.7432,-1.7812,-1.7978,-1.8008,0.0,0.0,0.0,0.0,0.0,0.0,0.0,-2.1358,-2.0229,-1.9578,-1.9617,-1.965,-1.9614,-1.9543,-1.9476,-1.9416,-1.9409,-1.9409,-1.9409,-1.9238,-1.9117,-1.9117,-1.8734,-1.8469,-1.8361,-1.811,-1.8589,0.0,0.0,0.0,0.0,0.0,-2.2144,-2.194,-2.1746,-2.1472,-2.1114,-2.0605,-2.0212,-1.9929,-1.9929,-1.9839,-1.9708,-1.9708,-1.9497,-1.9225,-1.9225,-1.9006,-1.8708,-1.8496,-1.8631,-1.8798,-1.8145,-1.7646,-1.7229,-1.6909,-1.668,-1.65,-1.65,-1.65,-1.6358,-1.5742,-1.561,-1.5343,-1.4376,-1.398,-1.3708,-1.3324,-1.3065,-1.2905,-1.2905,-1.314,-1.3427,-1.3709,0.0,0.0,0.0,0.0,0.0,0.0,0.0,0.0,0.0,0.0,0.0,0.0,0.0,0.0,0.0,0.0,0.0,-1.5449,0.0,-1.6709,-1.6988,-1.6004,-1.5799,-1.6354,-1.5188,-1.4718,-1.4874,-1.5078,-1.5156,-1.5176,-1.5342,-1.5664,-1.6114,-1.6357,-1.6728,-1.7168,-1.7588,-1.7764,-1.7783,-1.7949,-1.8008,-1.8008,-2.0999,0.0,-2.2142,0.0,-2.1369,-2.1134,-2.174,-2.0383,-1.9297,-1.9297,-1.9631,-1.9766,-1.9532,-1.9398,-1.9297,-1.9297,-1.9297,-1.9266,-1.9222,-1.9086,-1.8958,-1.8887,-1.844,0.0,-1.8198,-1.7938,-1.8567,-2.0177,-2.0489,0.0,0.0,0.0,-2.2295,-2.1714,-2.1046,-2.0713,-2.0573,-1.9975,-1.9708,-1.9708,-1.9708,-1.9603,-1.946,-1.946,-1.9132,-1.865,-1.865,-1.8419,-1.8086,-1.7927,-1.8125,-1.8302,-1.7544,-1.7188,-1.6993,-1.6616,-1.65,-1.65,-1.65,-1.638,-1.6095,-1.5477,-1.5197,-1.479,-1.3779,-1.3529,-1.342,-1.2992,-1.2905,-1.2905,-1.2905,-1.2905,-1.3042,-1.3488,0.0,0.0,0.0,0.0,0.0,0.0,-1.4321,-1.3914,-1.4,-1.4244,0.0,0.0,0.0,0.0,0.0,0.0,0.0,0.0,0.0,0.0,-1.6074,-1.5913,-1.5813,-1.5722,-1.5232,-1.5127,-1.5391,-1.5537,-1.5674,-1.5771,-1.5771,-1.6045,-1.6506,-1.6797,-1.7178,-1.7598,-1.79,-1.8008,-1.8027,-1.8144,-1.7934,-1.7598,-2.0848,-2.1939,-2.2908,-2.2043,-2.1943,-2.1967,-2.1914,-2.0415,-1.9297,-1.9297,-1.9987,-2.0189,-1.9389,-1.9297,-1.9297,-1.9297,-1.9297,-1.9222,-1.9027,-1.8992,-1.8887,0.0,0.0,-1.8198,-1.8198,-1.7938,-1.8172,-1.891,0.0,0.0,-2.1438,-2.2101,-2.1778,-2.063,-2.08,-2.0463,-1.9708,-1.9708,-1.9708,-1.9708,-1.9708,-1.9387,-1.8912,-1.8912,-1.8574,-1.8125,-1.8125,-1.8125,-1.8027,-1.7483,-1.7312,-1.7333,-1.7312,-1.693,-1.6522,-1.65,-1.65,-1.65,-1.65,-1.6051,-1.5477,-1.4858,-1.426,-1.3661,-1.3065,-1.2905,-1.2905,-1.2905,-1.2905,-1.2905,-1.2905,-1.2905,-1.3067,-1.3625,0.0,0.0,0.0,0.0,0.0,0.0,-1.3876,-1.329,-1.3766,-1.4172,0.0,0.0,0.0,0.0,0.0,0.0,0.0,-1.6356,-1.7427,0.0,-1.6903,-1.6956,-1.6817,-1.6472,-1.5738,-1.541,-1.543,-1.5889,-1.6299,-1.6687,-1.6687,-1.6963,-1.7363,-1.7406,-1.7627,-1.8008,-1.8008,-1.8008,-1.8057,-1.8442,-1.7738,-1.6656,-2.0627,-2.0523,-2.046,-2.0178,-2.0139,-2.0146,-2.0123,-1.9651,-1.9297,-1.9297,-1.9997,-2.0142,-1.9191,-2.0037,-2.0236,0.0,-1.939,-1.9334,0.0,-1.8556,-1.8638,-1.9052,-1.8817,-1.8915,-1.942,-1.8844,-1.9026,-1.9983,0.0,0.0,-2.1128,-2.1029,-2.0617,-1.998,-2.0044,-1.9936,-1.9708,-1.9708,-1.9708,-1.9708,-1.9708,-1.9387,-1.8893,-1.8893,-1.8341,-1.7544,-1.7544,-1.7333,-1.6972,-1.6816,-1.6752,-1.6752,-1.6752,-1.6637,-1.65,-1.65,-1.65,-1.65,-1.65,-1.6051,-1.5454,-1.4858,-1.426,-1.3637,-1.3041,-1.2905,-1.2905,-1.2905,-1.2905,-1.2905,-1.2905,-1.2905,-1.3042,-1.3488,-1.3224,0.0,-1.453,0.0,0.0,0.0,-1.4188,-1.3837,-1.3609,-1.317,0.0,0.0,0.0,0.0,0.0,0.0,0.0,0.0,-1.5361,0.0,-1.5462,-1.5939,-1.6048,-1.5758,-1.5831,-1.6016,-1.6287,-1.6455,-1.657,-1.6697,-1.6697,-1.6982,-1.7383,-1.7383,-1.7803,-1.8333,-1.7612,-1.753,-1.7715,-1.7072,-1.6576,-1.6195,-2.0393,-1.9653,-1.9031,-1.9031,-1.9115,-1.9148,-1.9048,-1.9196,-1.9345,-1.9438,-2.0007,-2.0208,-1.9738,-2.0721,0.0,-1.8995,-1.9371,-1.9462,-1.8906,-1.8975,-1.9188,-1.9556,-1.9396,-1.9462,-1.9762,-1.9324,-1.9475,-2.0264,-2.0391,-2.0541,-2.0717,-2.0429,-2.0089,-1.9708,-1.9708,-1.9708,-1.9708,-1.9708,-1.9584,-1.9406,-1.9406,-1.8968,-1.8302,-1.8302,-1.7767,-1.6993,-1.6993,-1.6774,-1.65,-1.65,-1.65,-1.65,-1.65,-1.6324,-1.6216,-1.6423,-1.6337,-1.6173,-1.6173,-1.5555,-1.4835,-1.4468,-1.3897,-1.3348,-1.2992,-1.2905,-1.2905,-1.2905,-1.2905,-1.2905,-1.2905,-1.2905,-1.2993,-1.3232,-1.3047,-1.3075,-1.3599,0.0,-1.3485,0.0,0.0,0.0,0.0,-1.2466,-1.2215,0.0,0.0,0.0,0.0,0.0,-1.4358,-1.4646,-1.4944,-1.5129,-1.5187,-1.5876,-1.6063,-1.5664,-1.6103,-1.6631,-1.7174,-1.7019,-1.6857,-1.6656,-1.6656,-1.6642,-1.6616,-1.7122,-1.7376,-1.7477,-1.7306,-1.7181,-1.6989,-1.6461,-1.593,-1.5488,-2.0201,-1.9343,-1.8595,-1.8595,-1.8807,-1.8896,-1.865,-1.8964,-1.9363,-1.9651,-2.0014,-2.0384,-2.0724,-2.1272,-2.0825,-1.887,0.0,0.0,-1.937,-1.9958,-2.0233,-2.0044,-2.0005,-1.9837,-1.9523,-1.946,-1.9571,-1.9844,-2.056,-2.0698,-2.0263,-2.0263,-2.0054,-1.9708,-1.9708,-1.969,-1.9639,-1.9639,-1.9332,-1.8836,-1.8836,-1.8224,-1.7312,-1.7312,-1.6972,-1.65,-1.65,-1.65,-1.65,-1.65,-1.65,-1.6488,-1.6445,-1.6051,-1.5698,-1.6259,-1.6008,-1.5543,-1.5543,-1.4675,-1.3792,-1.3792,-1.3348,-1.2905,-1.2905,-1.2905,-1.2905,-1.2905,-1.2905,-1.2905,-1.2905,-1.2905,-1.2881,-1.2822,-1.2822,-1.2727,-1.251,-1.2657,-1.2885,0.0,0.0,0.0,-1.2329,-1.1901,-1.1464,0.0,0.0,0.0,0.0,0.0,-1.4764,-1.531,-1.5762,-1.5955,-1.5848,-1.6588,-1.6691,-1.6193,-1.6539,-1.7138,-1.7886,-1.7464,-1.6972,-1.6498,-1.6498,-1.6018,-1.5336,-1.6553,-1.6546,-1.5799,-1.7026,-1.6872,-1.6037,-1.6377,-1.5709,-1.4641,-2.0084,0.0,-1.8595,-1.8595,-1.8642,-1.866,-1.8604,-1.8698,-1.8992,-1.9628,-2.0301,-2.0672,-2.0512,-2.116,-2.1075,-1.9776,-2.0392,-2.0572,-1.9889,-1.9714,-1.9864,-2.0356,-2.0094,-2.0148,-2.0619,-2.0059,-1.9638,-1.937,-1.98,-1.9945,-1.9839,-1.9839,-1.98,-1.9708,-1.9708,-1.946,-1.9095,-1.9095,-1.8779,-1.8302,-1.8302,-1.7887,-1.7312,-1.7312,-1.6972,-1.65,-1.65,-1.65,-1.65,-1.65,-1.65,-1.6423,-1.5952,-1.572,-1.5632,-1.5776,-1.5399,-1.4926,-1.4926,-1.4376,-1.3792,-1.3792,-1.3348,-1.2905,-1.2905,-1.2905,-1.2905,-1.2905,-1.2905,-1.2905,-1.2905,-1.2905,-1.2725,-1.2153,-1.2055,-1.2107,-1.2258,-1.2067,-1.2039,0.0,-1.21,-1.1704,-1.1225,-1.0622,-1.0508,0.0,0.0,-1.1636,-1.213,-1.3122,-1.3937,-1.4471,-1.4907,-1.5537,-1.6478,-1.6369,-1.6566,-1.708,-1.6764,-1.6738,-1.6879,-1.6096,-1.5651,-1.5544,-1.5544,-1.5535,-1.5539,-1.5841,-1.6171,-1.6409,-1.5929,-1.5728,-1.5675,-1.4959,-1.4497,-1.4248,-1.9765,-1.8976,-1.8229,-1.8229,-1.8341,-1.8381,-1.8249,-1.844,-1.8903,-1.972,-2.0033,-2.0453,-2.1182,-2.116,-2.1002,-2.0752,-2.0819,-2.0685,-2.0271,-2.0176,-2.0301,-2.0721,-2.0524,-2.048,-2.0682,-2.0287,-1.987,-1.9431,-1.9602,-1.9708,-1.969,-1.9442,-1.9332,-1.9332,-1.908,-1.8817,-1.8535,-1.8535,-1.8224,-1.7727,-1.7727,-1.7415,-1.693,-1.693,-1.6752,-1.65,-1.65,-1.65,-1.6457,-1.6194,-1.6095,-1.5986,-1.5365,-1.5005,-1.4767,-1.4767,-1.4549,-1.4283,-1.4283,-1.3849,-1.3396,-1.3396,-1.3152,-1.2905,-1.2905,-1.2905,-1.2905,-1.2905,-1.2905,-1.2798,-1.2452,-1.2393,-1.2163,-1.1466,-1.169,-1.2002,-1.2058,-1.1938,-1.1981,-1.2268,-1.1799,-1.1266,-1.0795,-1.0417,-1.0302,-1.0501,-1.096,0.0,-1.1569,-1.2832,-1.3751,-1.424,-1.4327,-1.4848,-1.5782,-1.5501,-1.5779,-1.6575,-1.6166,-1.6077,-1.6289,-1.5657,-1.5158,-1.473,-1.473,-1.4576,-1.4388,-1.4984,-1.525,-1.5305,-1.5342,-1.5226,-1.4894,-1.4328,-1.4088,-1.4088,-1.9251,-1.8453,-1.78,-1.78,-1.7992,-1.805,-1.7816,-1.8291,-1.8958,-1.9799,-1.967,-2.015,-2.1916,-2.1187,-2.0834,-2.1457,-2.0873,-2.0499,-2.0574,-2.078,-2.0894,-2.0894,-2.0829,-2.0615,-2.0212,-2.021,-2.0052,-1.9708,-1.9708,-1.9657,-1.9566,-1.9114,-1.8855,-1.8746,-1.8302,-1.8066,-1.7987,-1.7987,-1.7666,-1.7167,-1.7167,-1.6909,-1.65,-1.65,-1.65,-1.65,-1.6402,-1.6358,-1.6259,-1.5666,-1.5454,-1.5365,-1.4744,-1.4213,-1.3768,-1.3684,-1.3661,-1.3661,-1.3661,-1.3286,-1.2905,-1.2905,-1.2905,-1.2881,-1.2774,-1.2715,-1.2715,-1.2593,-1.2569,-1.2387,-1.1765,-1.1641,-1.1476,-1.091,-1.1564,-1.204,-1.1842,0.0,-1.2066,-1.211,-1.1497,-1.0942,-1.0638,-1.0617,-1.0407,-0.9932,-1.0891,-1.1321,-1.0865,-1.2507,-1.3638,-1.4153,-1.3995,-1.4162,-1.4665,-1.4639,-1.4925,-1.5618,-1.525,-1.53,-1.5763,-1.5399,-1.4786,-1.4056,-1.4005,-1.3587,-1.3015,-1.4093,-1.4212,-1.3769,-1.4988,-1.4894,-1.4088,-1.4088,-1.4088,-1.4088,-1.8392,-1.8061,-1.78,-1.78,-1.7816,-1.7856,-1.7811,-1.8399,-1.9,-1.9435,-1.9978,-2.0541,-2.1131,-2.1022,-2.0974,-2.107,-2.0637,-2.0508,-2.0894,-2.0603,-2.0416,-2.0416,-2.0087,-1.9871,-1.98,-1.98,-1.9764,-1.9708,-1.9708,-1.946,-1.9024,-1.8949,-1.865,-1.8224,-1.8145,-1.7847,-1.7435,-1.7435,-1.7118,-1.6616,-1.6616,-1.6573,-1.65,-1.65,-1.65,-1.6423,-1.593,-1.5754,-1.5666,-1.5039,-1.4835,-1.4744,-1.412,-1.3886,-1.3708,-1.32,-1.3041,-1.3041,-1.3041,-1.2968,-1.2905,-1.2905,-1.2905,-1.2749,-1.2104,-1.1972,-1.1798,-1.125,-1.1124,-1.1099,-1.099,-1.0965,-1.0968,-1.0969,-1.1428,-1.1727,-1.1503,-1.1356,-1.117,-1.0899,-1.0332,-1.001,-1.0193,-1.019,-1.037,-1.0787,-1.0981,-1.1323,-1.1922,-1.2115,-1.2606,-1.3522,-1.3764,-1.4106,-1.4521,-1.4901,-1.5251,-1.5581,-1.4737,-1.4509,-1.4794,-1.3956,-1.348,-1.3355,-1.3129,-1.3189,-1.3487,-1.3439,-1.3689,-1.4021,-1.4272,-1.425,-1.4088,-1.4088,-1.4088,-1.4088,-1.8014,-1.7872,-1.78,-1.78,-1.78,-1.78,-1.78,-1.8227,-1.8771,-1.9331,-1.9839,-2.0391,-2.0943,-2.0764,-2.0616,-2.0616,-2.0227,-2.007,-2.0294,-2.0104,-1.9982,-1.9982,-1.98,-1.9708,-1.9708,-1.9708,-1.9708,-1.9708,-1.9406,-1.9151,-1.8893,-1.8322,-1.7907,-1.7666,-1.7374,-1.7097,-1.6879,-1.6879,-1.6731,-1.65,-1.65,-1.65,-1.6466,-1.6139,-1.603,-1.5942,-1.532,-1.513,-1.5028,-1.4422,-1.4213,-1.4097,-1.3515,-1.331,-1.3262,-1.2968,-1.2905,-1.2905,-1.2905,-1.2905,-1.2905,-1.2905,-1.2608,-1.2212,-1.1888,-1.1516,-1.1166,-1.0864,-1.0788,-1.0695,-1.0346,-1.0261,-1.0313,-1.0456,-1.0694,-1.1159,-1.1884,-1.1329,-1.1064,-1.1664,-1.0813,-1.0365,-1.0749,-1.0789,-1.0935,-1.1202,-1.1376,-1.172,-1.2229,-1.2177,-1.239,-1.3068,-1.3469,-1.3658,-1.3593,-1.3925,-1.4257,-1.4528,-1.3948,-1.3891,-1.4307,-1.3709,-1.3407,-1.3393,-1.3293,-1.3387,-1.3593,-1.346,-1.3701,-1.4088,-1.4088,-1.4088,-1.4088,-1.4088,-1.4088,-1.4088,-1.7845,-1.7743,-1.7704,-1.7789,-1.7743,-1.7748,-1.7893,-1.8269,-1.8745,-1.9283,-1.9729,-2.0162,-2.0651,-2.0381,-2.0108,-1.9989,-1.9699,-1.946,-1.935,-1.9332,-1.9387,-1.9512,-1.9387,-1.9387,-1.9512,-1.9387,-1.9332,-1.9332,-1.893,-1.865,-1.8516,-1.7686,-1.7229,-1.7097,-1.668,-1.65,-1.65,-1.65,-1.65,-1.65,-1.65,-1.6423,-1.6238,-1.5776,-1.5521,-1.532,-1.4721,-1.4491,-1.4399,-1.3779,-1.36,-1.3505,-1.3041,-1.2905,-1.2905,-1.2905,-1.2905,-1.2905,-1.2905,-1.2905,-1.2847,-1.2691,-1.2212,-1.1715,-1.1416,-1.0939,-1.0517,-1.0364,-1.0338,-1.0192,-0.9666,-0.9562,-0.9674,-0.9958,-1.0217,-1.0787,-1.185,-1.1374,-1.1241,-1.2129,-1.1319,-1.0921,-1.147,-1.153,-1.1522,-1.1588,-1.1844,-1.2134,-1.2392,-1.2405,-1.2538,-1.2884,-1.3189,-1.3175,-1.2891,-1.3093,-1.3313,-1.36,-1.3373,-1.3581,-1.4082,-1.3848,-1.3706,-1.37,-1.3633,-1.364,-1.37,-1.3633,-1.3814,-1.4088,-1.4088,-1.4088,-1.4088,-1.4088,-1.4088,-1.4088,-1.78,-1.7549,-1.7427,-1.7755,-1.7537,-1.7551,-1.8168,-1.8861,-1.9301,-1.9216,-1.9834,-2.0148,-1.9821,-1.9764,-1.9551,-1.9062,-1.8987,-1.8746,-1.8263,-1.8224,-1.8438,-1.8949,-1.8477,-1.8458,-1.8949,-1.8477,-1.8224,-1.8224,-1.8185,-1.7907,-1.7435,-1.7353,-1.7034,-1.6552,-1.6522,-1.65,-1.65,-1.65,-1.65,-1.65,-1.65,-1.6173,-1.5654,-1.561,-1.5253,-1.4698,-1.4073,-1.3873,-1.3779,-1.3176,-1.2978,-1.2968,-1.2905,-1.2905,-1.2905,-1.2905,-1.2905,-1.2905,-1.2905,-1.2905,-1.2749,-1.2055,-1.1839,-1.1458,-1.0236,-0.9917,-0.9684,-0.9087,-0.8962,-0.8929,-0.8883,-0.8883,-0.9133,-0.9879,-1.0593,-1.0917,-1.0599,-1.1343,-1.1605,-1.0859,-1.0873,-1.1223,-1.1819,-1.1873,-1.1986,-1.2218,-1.2258,-1.2398,-1.2737,-1.275,-1.2898,-1.3166,-1.295,-1.2936,-1.3173,-1.32,-1.3313,-1.36,-1.358,-1.3774,-1.4088,-1.4062,-1.4055,-1.4041,-1.372,-1.3801,-1.4035,-1.372,-1.3814,-1.4088,-1.4088,-1.4088,-1.4088,-1.4088,-1.4088,-1.4088,-1.7526,-1.738,-1.7272,-1.7187,-1.7425,-1.7697,-1.7945,-1.8714,-1.9264,-1.921,-1.9623,-1.9734,-1.9262,-1.9207,-1.8987,-1.8458,-1.84,-1.8322,-1.8125,-1.7787,-1.7847,-1.838,-1.8224,-1.8204,-1.84,-1.8204,-1.8106,-1.8106,-1.7767,-1.7504,-1.7291,-1.6951,-1.6689,-1.65,-1.65,-1.6281,-1.5964,-1.6337,-1.6064,-1.5433,-1.5776,-1.5577,-1.5005,-1.4641,-1.4342,-1.405,-1.3467,-1.3238,-1.3214,-1.2968,-1.2905,-1.2905,-1.2905,-1.2905,-1.2905,-1.2905,-1.2584,-1.2212,-1.2212,-1.2212,-1.2055,-1.1341,-1.0864,-1.044,-0.9917,-0.9484,-0.9113,-0.8857,-0.8804,-0.8804,-0.8804,-0.8804,-0.9112,-1.0091,-1.0064,-1.0149,-1.0856,-1.0871,-1.0874,-1.1062,-1.1196,-1.1496,-1.2084,-1.2138,-1.2295,-1.2589,-1.2616,-1.2831,-1.328,-1.33,-1.3353,-1.3433,-1.336,-1.336,-1.344,-1.3661,-1.3808,-1.3921,-1.4102,-1.4206,-1.4355,-1.4355,-1.4355,-1.4342,-1.4048,-1.3981,-1.4082,-1.3968,-1.3981,-1.4088,-1.4088,-1.4088,-1.4088,-1.4088,-1.4088,-1.4115,-1.7187,-1.7064,-1.7016,-1.7103,-1.7416,-1.7778,-1.8175,-1.8796,-1.9252,-1.935,-1.9411,-1.9314,-1.8949,-1.8746,-1.8438,-1.7907,-1.7847,-1.7787,-1.7605,-1.725,-1.7291,-1.7827,-1.7686,-1.7686,-1.7847,-1.7686,-1.7605,-1.7605,-1.7229,-1.7055,-1.7034,-1.668,-1.65,-1.65,-1.6303,-1.5986,-1.561,-1.5854,-1.5456,-1.4744,-1.5141,-1.496,-1.4376,-1.3956,-1.3684,-1.3457,-1.3065,-1.2905,-1.2905,-1.2905,-1.2905,-1.2905,-1.2905,-1.2905,-1.2856,-1.2608,-1.2187,-1.1715,-1.1291,-1.1166,-1.1065,-1.0593,-1.0141,-0.9736,-0.9536,-0.9182,-0.8891,-0.8824,-0.8951,-0.9058,-0.8931,-0.9018,-0.9334,-1.0064,-0.9778,-0.9829,-1.0798,-1.0622,-1.0648,-1.1309,-1.151,-1.1757,-1.2251,-1.2305,-1.2425,-1.2764,-1.2784,-1.3045,-1.3573,-1.3693,-1.374,-1.374,-1.3826,-1.3873,-1.3873,-1.4028,-1.4088,-1.4088,-1.4382,-1.4522,-1.4479,-1.4616,-1.4609,-1.4516,-1.4409,-1.4262,-1.4095,-1.4182,-1.4168,-1.4088,-1.4088,-1.4088,-1.4088,-1.4088,-1.4088,-1.4115,-1.6802,-1.6528,-1.6612,-1.762,-1.7523,-1.7728,-1.8992,-1.9208,-1.9321,-1.9654,-1.9225,-1.8893,-1.8893,-1.8419,-1.7887,-1.7353,-1.7291,-1.7076,-1.6543,-1.65,-1.6731,-1.7271,-1.6774,-1.6752,-1.7271,-1.6774,-1.65,-1.65,-1.65,-1.65,-1.65,-1.65,-1.65,-1.6466,-1.5864,-1.5576,-1.5543,-1.4949,-1.4698,-1.4686,-1.4686,-1.4329,-1.3802,-1.3802,-1.342,-1.2905,-1.2905,-1.2905,-1.2905,-1.2905,-1.2905,-1.2905,-1.2905,-1.2905,-1.2749,-1.1996,-1.1789,-1.1491,-1.0167,-0.9788,-0.9788,-0.9788,-0.9788,-0.9614,-0.8962,-0.9004,-0.9131,-0.8871,-0.9279,-0.9593,-0.9271,-0.9486,-0.9715,-0.9715,-0.9927,-1.009,-1.0127,-1.0628,-1.1102,-1.1362,-1.169,-1.202,-1.2271,-1.2305,-1.2425,-1.2764,-1.279,-1.3052,-1.3573,-1.3928,-1.4088,-1.4088,-1.4362,-1.4516,-1.4516,-1.4235,-1.4095,-1.4095,-1.4389,-1.4529,-1.4536,-1.4836,-1.4803,-1.4536,-1.4836,-1.4673,-1.4115,-1.4396,-1.4349,-1.4088,-1.4088,-1.4088,-1.4088,-1.4088,-1.4088,-1.4088,-1.6503,-1.6367,-1.6447,-1.6952,-1.7334,-1.7861,-1.8721,-1.925,-1.9592,-1.9696,-1.9225,-1.8746,-1.838,-1.7867,-1.7333,-1.6795,-1.6731,-1.668,-1.6522,-1.65,-1.6573,-1.6731,-1.6595,-1.6573,-1.6731,-1.6573,-1.65,-1.65,-1.65,-1.65,-1.65,-1.65,-1.6259,-1.5864,-1.5676,-1.5129,-1.4342,-1.4606,-1.4201,-1.3478,-1.3897,-1.3718,-1.3176,-1.3176,-1.3065,-1.2905,-1.2905,-1.2905,-1.2905,-1.2905,-1.2905,-1.2905,-1.2905,-1.2535,-1.208,-1.1864,-1.1141,-1.032,-0.9917,-0.9465,-0.9113,-0.9113,-0.9113,-0.9089,-0.9092,-0.9151,-0.9244,-0.9399,-0.9566,-0.9659,-0.9566,-0.9626,-0.9746,-0.9953,-1.0234,-1.0533,-1.0701,-1.1056,-1.1403,-1.1703,-1.1852,-1.202,-1.2271,-1.2529,-1.2784,-1.3053,-1.3454,-1.3761,-1.3948,-1.4041,-1.4088,-1.4088,-1.4168,-1.4215,-1.4215,-1.4543,-1.4747,-1.4747,-1.4997,-1.513,-1.5137,-1.5224,-1.5104,-1.4823,-1.4703,-1.4556,-1.4382,-1.4262,-1.3797,-1.3163,-1.2924,-1.2334,-1.1649,-1.1649,-1.1649,-1.1699,-1.6445,-1.6463,-1.6681,-1.7372,-1.7833,-1.8311,-1.8986,-1.9259,-1.9387,-1.9387,-1.8727,-1.8145,-1.7827,-1.7312,-1.6858,-1.6543,-1.65,-1.65,-1.65,-1.65,-1.65,-1.65,-1.65,-1.65,-1.65,-1.65,-1.65,-1.65,-1.65,-1.638,-1.6139,-1.6139,-1.582,-1.5231,-1.4994,-1.448,-1.3802,-1.392,-1.3573,-1.2929,-1.331,-1.3224,-1.2905,-1.2905,-1.2905,-1.2905,-1.2905,-1.2905,-1.2905,-1.2905,-1.2905,-1.2856,-1.2559,-1.2163,-1.169,-1.1166,-1.044,-0.9736,-0.9484,-0.9196,-0.8951,-0.8951,-0.8951,-0.9031,-0.9317,-0.9477,-0.9577,-0.9673,-0.9903,-1.0023,-0.9873,-1.004,-1.0261,-1.0434,-1.0708,-1.0962,-1.1142,-1.1416,-1.167,-1.1886,-1.2107,-1.2128,-1.1724,-1.2489,-1.3053,-1.336,-1.3821,-1.4088,-1.4088,-1.4088,-1.4088,-1.4088,-1.4315,-1.4479,-1.4479,-1.5017,-1.513,-1.4796,-1.5084,-1.5284,-1.5398,-1.5518,-1.5344,-1.5001,-1.4897,-1.4669,-1.4299,-1.3791,-1.3182,-1.2545,-1.1871,-1.1209,-1.0611,-1.0611,-1.0611,-1.0646,-1.6517,-1.6696,-1.7159,-1.8335,-1.8589,-1.884,-1.9462,-1.9151,-1.8836,-1.8836,-1.7947,-1.7312,-1.7312,-1.6816,-1.65,-1.65,-1.65,-1.65,-1.65,-1.65,-1.65,-1.65,-1.65,-1.65,-1.65,-1.65,-1.65,-1.65,-1.6457,-1.6139,-1.561,-1.5543,-1.5208,-1.4606,-1.405,-1.3768,-1.3684,-1.3128,-1.2905,-1.2905,-1.2905,-1.2905,-1.2905,-1.2905,-1.2905,-1.2881,-1.2832,-1.2798,-1.2798,-1.2725,-1.27,-1.2593,-1.1922,-1.1665,-1.1391,-1.0167,-0.9762,-0.9595,-0.899,-0.9011,-0.9224,-0.9277,-0.9311,-0.9391,-0.9666,-0.9927,-1.0053,-0.9846,-1.0258,-1.0559,-1.0281,-1.0668,-1.1035,-1.1035,-1.1276,-1.1435,-1.1462,-1.1686,-1.185,-1.187,-1.2265,-1.205,-1.0802,-1.2033,-1.3039,-1.3326,-1.3719,-1.3955,-1.3955,-1.4039,-1.4059,-1.3952,-1.4504,-1.4751,-1.4636,-1.5153,-1.5134,-1.4643,-1.491,-1.5177,-1.5444,-1.5712,-1.5524,-1.5062,-1.5257,-1.4859,-1.3962,-1.3095,-1.2464,-1.1929,-1.0875,-1.0409,-1.0294,-1.0269,-1.0318,-1.0342,-1.6069,-1.6802,-1.7434,-1.7316,-1.7713,-1.8158,-1.8398,-1.8361,-1.8283,-1.8283,-1.7706,-1.7312,-1.7312,-1.6816,-1.65,-1.65,-1.65,-1.65,-1.65,-1.65,-1.65,-1.65,-1.65,-1.65,-1.65,-1.65,-1.65,-1.65,-1.603,-1.572,-1.5588,-1.513,-1.4583,-1.398,-1.3862,-1.3552,-1.3079,-1.2954,-1.2905,-1.2905,-1.2905,-1.2905,-1.2905,-1.2905,-1.2905,-1.2822,-1.2236,-1.2055,-1.1947,-1.1425,-1.125,-1.1225,-1.1065,-1.0661,-1.0192,-0.9891,-0.9439,-0.9037,-0.9085,-0.9164,-0.9324,-0.9777,-1.01,-1.0258,-1.006,-1.0067,-1.0227,-1.0628,-1.0808,-1.0949,-1.1082,-1.1243,-1.1295,-1.1295,-1.1577,-1.185,-1.2078,-1.1571,-1.128,-1.1567,-1.0857,-1.0258,-0.9966,-1.0504,-1.0977,-1.1251,-1.2128,-1.2674,-1.2674,-1.3597,-1.3749,-1.2951,-1.3065,-1.2725,-1.1954,-1.2061,-1.3252,-1.5498,-1.5611,-1.5671,-1.5738,-1.5751,-1.5638,-1.5291,-1.513,-1.4443,-1.3335,-1.2693,-1.1451,-0.9883,-0.9468,-0.8802,-0.8065,-0.793,-0.7964,-0.8099,-1.6844,-1.734,-1.7742,-1.7499,-1.7768,-1.8021,-1.809,-1.7887,-1.7727,-1.7727,-1.725,-1.6909,-1.6909,-1.668,-1.65,-1.65,-1.65,-1.65,-1.65,-1.6238,-1.6073,-1.6073,-1.5788,-1.5634,-1.5634,-1.5634,-1.5788,-1.6073,-1.5742,-1.5309,-1.4721,-1.4411,-1.3944,-1.3372,-1.3372,-1.32,-1.2905,-1.2905,-1.2905,-1.2905,-1.2905,-1.2905,-1.2847,-1.2501,-1.2369,-1.227,-1.1575,-1.1316,-1.1266,-1.0914,-1.0788,-1.0737,-1.0415,-1.009,-0.9773,-0.9565,-0.9274,-0.9051,-0.9372,-0.9653,-0.9947,-1.0254,-1.0655,-1.0862,-1.0428,-1.0541,-1.0756,-1.0962,-1.1102,-1.1243,-1.1362,-1.1543,-1.1637,-1.1637,-1.1478,-1.1463,-1.1665,-1.0858,-1.0365,-1.0608,-1.0249,-0.9985,-1.0131,-1.023,-1.0368,-1.0595,-1.1638,-1.2066,-1.1509,-1.2155,-1.2281,-1.1744,-1.1961,-1.1814,-1.1285,-1.1442,-1.2331,-1.3932,-1.3802,-1.4141,-1.4902,-1.4902,-1.4751,-1.4433,-1.4289,-1.3389,-1.2007,-1.1128,-1.0113,-0.9025,-0.8312,-0.7767,-0.7405,-0.7282,-0.7346,-0.7502,-1.7623,-1.7776,-1.7899,-1.7812,-1.7898,-1.7927,-1.7847,-1.7442,-1.7146,-1.7146,-1.6774,-1.6457,-1.6358,-1.6358,-1.6358,-1.6358,-1.6358,-1.6358,-1.6358,-1.5776,-1.5454,-1.5454,-1.4971,-1.4698,-1.4698,-1.4698,-1.4949,-1.5454,-1.5343,-1.4767,-1.3792,-1.3684,-1.3372,-1.2905,-1.2905,-1.2905,-1.2905,-1.2905,-1.2905,-1.2905,-1.2905,-1.2822,-1.2642,-1.203,-1.174,-1.1541,-1.0864,-1.0568,-1.0466,-1.0466,-1.0466,-1.0372,-0.9855,-0.9694,-0.9655,-0.9363,-0.9291,-0.9351,-0.9679,-1.0184,-1.06,-1.0653,-1.1069,-1.1363,-1.0861,-1.1082,-1.1335,-1.1182,-1.1193,-1.1246,-1.1309,-1.141,-1.1512,-1.1527,-1.1008,-1.065,-1.0835,-0.9932,-0.9368,-0.9543,-0.9642,-0.9771,-0.9986,-0.9885,-0.9899,-0.999,-1.1073,-1.1354,-1.0405,-1.0657,-1.0751,-1.0564,-1.0949,-1.1095,-1.0891,-1.1124,-1.1214,-1.1214,-1.1029,-1.1849,-1.3536,-1.3536,-1.3421,-1.3127,-1.3081,-1.2134,-1.056,-0.9533,-0.8939,-0.8589,-0.7574,-0.7312,-0.7448,-0.7448,-0.7526,-0.7651,-1.654,-1.7282,-1.7746,-1.6705,-1.7009,-1.725,-1.6795,-1.6659,-1.6616,-1.6616,-1.6552,-1.6303,-1.5776,-1.572,-1.572,-1.572,-1.572,-1.572,-1.572,-1.5175,-1.4812,-1.4812,-1.4744,-1.4698,-1.4698,-1.4698,-1.4744,-1.4812,-1.4295,-1.3956,-1.3802,-1.3262,-1.2968,-1.2905,-1.2905,-1.2905,-1.2905,-1.2905,-1.2905,-1.2905,-1.2905,-1.2535,-1.1947,-1.1839,-1.1441,-1.0838,-1.0192,-0.9562,-0.9087,-0.9087,-0.9087,-0.9102,-0.9234,-0.9288,-0.9322,-0.9568,-0.9626,-0.9686,-0.998,-1.0332,-1.0653,-1.0901,-1.1376,-1.1759,-1.1383,-1.1335,-1.1455,-1.1739,-1.1127,-1.0634,-1.098,-1.039,-0.9857,-0.998,-0.9833,-0.9829,-1.0259,-0.921,-0.8545,-0.8944,-0.8138,-0.7552,-0.7573,-0.7555,-0.7552,-0.7573,-0.8803,-0.9468,-0.9293,-1.0426,-1.0626,-0.9686,-0.9741,-0.9365,-0.8495,-0.8517,-0.8528,-0.8528,-0.8506,-0.9776,-1.2188,-1.2188,-1.2173,-1.2083,-1.1872,-1.1047,-0.991,-0.9465,-0.8699,-0.7769,-0.7583,-0.7628,-0.775,-0.775,-0.7767,-0.7784,-1.6938,-1.7256,-1.7383,-1.6566,-1.665,-1.6774,-1.6531,-1.6216,-1.6117,-1.6457,-1.5898,-1.5511,-1.5588,-1.5298,-1.5096,-1.5096,-1.5096,-1.5096,-1.5096,-1.4537,-1.419,-1.419,-1.386,-1.3681,-1.3681,-1.3681,-1.3681,-1.3681,-1.3779,-1.3637,-1.3286,-1.3017,-1.2905,-1.2905,-1.2905,-1.2905,-1.2881,-1.2452,-1.2295,-1.2236,-1.1891,-1.1525,-1.1191,-1.0838,-1.0491,-1.0164,-0.9659,-0.9391,-0.9299,-0.9299,-0.9299,-0.9319,-0.9446,-0.9486,-0.9546,-0.984,-1.0077,-1.0271,-1.0528,-1.0975,-1.1357,-1.1484,-1.1832,-1.2078,-1.1944,-1.1525,-1.1181,-1.115,-1.0928,-1.0644,-1.0335,-0.9921,-0.9632,-0.969,-0.9183,-0.8864,-0.9158,-0.8203,-0.758,-0.7855,-0.7404,-0.7095,-0.7095,-0.7786,-0.7971,-0.7313,-0.8395,-0.884,-0.831,-0.8846,-0.8965,-0.8571,-0.862,-0.8459,-0.7988,-0.7988,-0.7988,-0.7988,-0.7988,-0.9019,-1.0828,-1.0828,-1.0828,-1.0823,-1.0727,-0.9904,-0.8664,-0.8545,-0.8135,-0.76,-0.76,-0.7685,-0.7821,-0.7909,-0.7891,-0.7891]},{"header":{"parameterUnit":"m.s-1","parameterCategory":1,"la1":30.6,"la2":28.766,"lo1":-90.7593,"lo2":-88.6598,"dy":0.0162,"dx":0.0183,"nx":116,"ny":114,"refTime":"2023-09-23T06:00:00:Z","depth":0,"parameterNumber":3,"parameterNumberName":"V-component_of_WINDS"},"data":[0.0,0.0,0.0,0.0,0.0,0.0,0.0,0.0,0.0,0.0,0.0,0.0,0.0,0.0,0.0,0.0,0.0,0.0,0.0,0.0,0.0,0.0,0.0,0.0,0.0,0.0,0.0,0.0,0.0,0.0,0.0,0.0,0.0,0.0,0.0,0.0,0.0,0.0,0.0,0.0,0.0,0.0,0.0,0.0,0.0,0.0,0.0,0.0,0.0,0.0,0.0,0.0,0.0,0.0,0.0,0.0,0.0,0.0,0.0,0.0,0.0,0.0,0.0,0.0,0.0,0.0,0.0,0.0,0.0,0.0,0.0,0.0,0.0,0.0,0.0,0.0,0.0,0.0,0.0,0.0,0.0,0.0,0.0,0.0,0.0,0.0,0.0,0.0,0.0,0.0,0.0,0.0,0.0,0.0,0.0,0.0,0.0,0.0,0.0,0.0,0.0,0.0,0.0,0.0,0.0,0.0,0.0,0.0,0.0,0.0,0.0,0.0,0.0,0.0,0.0,0.0,0.0,0.0,0.0,0.0,0.0,0.0,0.0,0.0,0.0,0.0,0.0,0.0,0.0,0.0,0.0,0.0,0.0,0.0,0.0,0.0,0.0,0.0,0.0,0.0,0.0,0.0,0.0,0.0,0.0,0.0,0.0,0.0,0.0,0.0,0.0,0.0,0.0,0.0,0.0,0.0,0.0,0.0,0.0,0.0,0.0,0.0,0.0,0.0,0.0,0.0,0.0,0.0,0.0,0.0,0.0,0.0,0.0,0.0,0.0,0.0,0.0,0.0,0.0,0.0,0.0,0.0,0.0,0.0,0.0,0.0,0.0,0.0,0.0,0.0,0.0,0.0,0.0,0.0,0.0,0.0,0.0,0.0,0.0,0.0,0.0,0.0,0.0,0.0,0.0,0.0,0.0,0.0,0.0,0.0,0.0,0.0,0.0,0.0,0.0,0.0,0.0,0.0,0.0,0.0,0.0,0.0,0.0,0.0,0.0,0.0,0.0,0.0,0.0,0.0,0.0,0.0,0.0,0.0,0.0,0.0,0.0,0.0,0.0,0.0,0.0,0.0,0.0,0.0,0.0,0.0,0.0,0.0,0.0,0.0,0.0,0.0,0.0,0.0,0.0,0.0,0.0,0.0,0.0,0.0,0.0,0.0,0.0,0.0,0.0,0.0,0.0,0.0,0.0,0.0,0.0,0.0,0.0,0.0,0.0,0.0,0.0,0.0,0.0,0.0,0.0,0.0,0.0,0.0,0.0,0.0,0.0,0.0,0.0,0.0,0.0,0.0,0.0,0.0,0.0,0.0,0.0,0.0,0.0,0.0,0.0,0.0,0.0,0.0,0.0,0.0,0.0,0.0,0.0,0.0,0.0,0.0,0.0,0.0,0.0,0.0,0.0,0.0,0.0,0.0,0.0,0.0,0.0,0.0,0.0,0.0,0.0,0.0,0.0,0.0,0.0,0.0,0.0,0.0,0.0,0.0,0.0,0.0,0.0,0.0,0.0,0.0,0.0,0.0,0.0,0.0,0.0,0.0,0.0,0.0,0.0,0.0,0.0,0.0,0.0,0.0,0.0,0.0,0.0,0.0,0.0,0.0,0.0,0.0,0.0,0.0,0.0,0.0,0.0,0.0,0.0,0.0,0.0,0.0,0.0,0.0,0.0,0.0,0.0,0.0,0.0,0.0,0.0,0.0,0.0,0.0,0.0,0.0,0.0,0.0,0.0,0.0,0.0,0.0,0.0,0.0,0.0,0.0,0.0,0.0,0.0,0.0,0.0,0.0,0.0,0.0,0.0,0.0,0.0,0.0,0.0,0.0,0.0,0.0,0.0,0.0,0.0,0.0,0.0,0.0,0.0,0.0,0.0,0.0,0.0,0.0,0.0,0.0,0.0,0.0,0.0,0.0,0.0,0.0,0.0,0.0,0.0,0.0,0.0,0.0,0.0,0.0,0.0,0.0,0.0,0.0,0.0,0.0,0.0,0.0,0.0,0.0,0.0,0.0,0.0,0.0,0.0,0.0,0.0,0.0,0.0,0.0,0.0,0.0,0.0,0.0,0.0,0.0,0.0,0.0,0.0,0.0,0.0,0.0,0.0,0.0,0.0,0.0,0.0,0.0,0.0,0.0,0.0,0.0,0.0,0.0,0.0,0.0,0.0,0.0,0.0,0.0,0.0,0.0,0.0,0.0,0.0,0.0,0.0,0.0,0.0,0.0,0.0,0.0,0.0,0.0,0.0,0.0,0.0,0.0,0.0,0.0,0.0,0.0,0.0,0.0,0.0,0.0,0.0,0.0,0.0,0.0,0.0,0.0,0.0,0.0,0.0,0.0,0.0,0.0,0.0,0.0,0.0,0.0,0.0,0.0,0.0,0.0,0.0,0.0,0.0,0.0,0.0,0.0,0.0,0.0,0.0,0.0,0.0,0.0,0.0,0.0,0.0,0.0,0.0,0.0,0.0,0.0,0.0,0.0,0.0,0.0,0.0,0.0,0.0,0.0,0.0,0.0,0.0,0.0,0.0,0.0,0.0,0.0,0.0,0.0,0.0,0.0,0.0,0.0,0.0,0.0,0.0,0.0,0.0,0.0,0.0,0.0,0.0,0.0,0.0,0.0,0.0,0.0,0.0,0.0,0.0,0.0,0.0,0.0,0.0,0.0,0.0,0.0,0.0,0.0,0.0,0.0,0.0,0.0,0.0,0.0,0.0,0.0,0.0,0.0,0.0,0.0,0.0,0.0,0.0,0.0,0.0,0.0,0.0,0.0,0.0,0.0,0.0,0.0,0.0,0.0,0.0,0.0,0.0,0.0,0.0,0.0,0.0,0.0,0.0,0.0,0.0,0.0,0.0,0.0,0.0,0.0,0.0,0.0,0.0,0.0,0.0,0.0,0.0,0.0,0.0,0.0,0.0,0.0,0.0,0.0,0.0,0.0,0.0,0.0,0.0,0.0,0.0,0.0,0.0,0.0,0.0,0.0,0.0,0.0,0.0,0.0,0.0,0.0,0.0,0.0,0.0,0.0,0.0,0.0,0.0,0.0,0.0,0.0,0.0,0.0,0.0,0.0,0.0,0.0,0.0,0.0,0.0,0.0,0.0,0.0,0.0,0.0,0.0,0.0,0.0,0.0,0.0,0.0,0.0,0.0,0.0,0.0,0.0,0.0,0.0,0.0,0.0,0.0,0.0,0.0,0.0,0.0,0.0,0.0,0.0,0.0,0.0,0.0,0.0,0.0,0.0,0.0,0.0,0.0,0.0,0.0,0.0,0.0,0.0,0.0,0.0,0.0,0.0,0.0,0.0,0.0,0.0,0.0,0.0,0.0,0.0,0.0,0.0,0.0,0.0,0.0,0.0,0.0,0.0,0.0,0.0,0.0,0.0,0.0,0.0,0.0,0.0,0.0,0.0,0.0,0.0,0.0,0.0,0.0,0.0,0.0,0.0,0.0,0.0,0.0,0.0,0.0,0.0,0.0,0.0,0.0,0.0,0.0,0.0,0.0,0.0,0.0,0.0,0.0,0.0,0.0,0.0,0.0,0.0,0.0,0.0,0.0,0.0,0.0,0.0,0.0,0.0,0.0,0.0,0.0,0.0,0.0,0.0,0.0,0.0,0.0,0.0,0.0,0.0,0.0,0.0,0.0,0.0,0.0,0.0,0.0,0.0,0.0,0.0,0.0,0.0,0.0,0.0,0.0,0.0,0.0,0.0,0.0,0.0,0.0,0.0,0.0,0.0,0.0,0.0,0.0,0.0,0.0,0.0,0.0,0.0,0.0,0.0,0.0,0.0,0.0,0.0,0.0,0.0,0.0,0.0,0.0,0.0,0.0,0.0,0.0,0.0,0.0,0.0,0.0,0.0,0.0,0.0,0.0,0.0,0.0,0.0,0.0,0.0,0.0,0.0,0.0,0.0,0.0,0.0,0.0,0.0,0.0,0.0,0.0,0.0,0.0,0.0,0.0,0.0,0.0,0.0,0.0,0.0,0.0,0.0,0.0,0.0,0.0,0.0,0.0,0.0,0.0,0.0,0.0,0.0,0.0,0.0,0.0,0.0,0.0,0.0,0.0,0.0,0.0,0.0,0.0,0.0,0.0,0.0,0.0,0.0,0.0,0.0,0.0,0.0,0.0,0.0,0.0,0.0,0.0,0.0,0.0,0.0,0.0,0.0,0.0,0.0,0.0,0.0,0.0,0.0,0.0,0.0,0.0,0.0,0.0,0.0,0.0,0.0,0.0,0.0,0.0,0.0,0.0,0.0,0.0,0.0,0.0,0.0,0.0,0.0,0.0,0.0,0.0,0.0,0.0,0.0,0.0,0.0,0.0,0.0,0.0,0.0,0.0,0.0,0.0,0.0,0.0,0.0,0.0,0.0,0.0,0.0,0.0,0.0,0.0,0.0,0.0,0.0,0.0,0.0,0.0,0.0,0.0,0.0,0.0,0.0,0.0,0.0,0.0,0.0,0.0,0.0,0.0,0.0,0.0,0.0,0.0,0.0,0.0,0.0,0.0,0.0,0.0,0.0,0.0,0.0,0.0,0.0,0.0,0.0,0.0,0.0,0.0,0.0,0.0,0.0,0.0,0.0,0.0,0.0,0.0,0.0,0.0,0.0,0.0,0.0,0.0,0.0,0.0,0.0,0.0,0.0,0.0,0.0,0.0,0.0,0.0,0.0,0.0,0.0,0.0,0.0,0.0,0.0,0.0,0.0,0.0,0.0,0.0,0.0,0.0,0.0,0.0,0.0,0.0,0.0,0.0,0.0,0.0,0.0,0.0,0.0,0.0,0.0,0.0,0.0,0.0,0.0,0.0,0.0,0.0,0.0,0.0,0.0,0.0,0.0,0.0,0.0,0.0,0.0,0.0,0.0,0.0,0.0,0.0,0.0,0.0,0.0,0.0,0.0,0.0,0.0,0.0,0.0,0.0,0.0,0.0,0.0,0.0,0.0,0.0,0.0,0.0,0.0,0.0,0.0,0.0,0.0,0.0,0.0,0.0,0.0,0.0,0.0,0.0,0.0,0.0,0.0,0.0,0.0,0.0,0.0,0.0,0.0,0.0,0.0,0.0,0.0,0.0,0.0,0.0,0.0,0.0,0.0,0.0,0.0,0.0,0.0,0.0,0.0,0.0,0.0,0.0,0.0,0.0,0.0,0.0,0.0,0.0,0.0,0.0,0.0,0.0,0.0,0.0,0.0,0.0,0.0,0.0,0.0,0.0,0.0,0.0,0.0,0.0,0.0,0.0,0.0,0.0,0.0,0.0,0.0,0.0,0.0,0.0,0.0,0.0,0.0,0.0,0.0,0.0,0.0,0.0,0.0,0.0,0.0,0.0,0.0,0.0,0.0,0.0,0.0,0.0,0.0,0.0,0.0,0.0,0.0,0.0,0.0,0.0,0.0,0.0,0.0,0.0,0.0,0.0,0.0,0.0,0.0,0.0,0.0,0.0,0.0,0.0,0.0,0.0,0.0,0.0,0.0,0.0,0.0,0.0,0.0,0.0,0.0,0.0,0.0,0.0,0.0,0.0,0.0,0.0,0.0,0.0,0.0,0.0,0.0,0.0,0.0,0.0,0.0,0.0,0.0,0.0,0.0,0.0,0.0,0.0,0.0,0.0,0.0,0.0,0.0,0.0,0.0,0.0,0.0,0.0,0.0,0.0,0.0,0.0,0.0,0.0,0.0,0.0,0.0,0.0,0.0,0.0,0.0,0.0,0.0,0.0,0.0,0.0,0.0,0.0,0.0,0.0,0.0,0.0,0.0,0.0,0.0,0.0,0.0,0.0,0.0,0.0,0.0,0.0,0.0,0.0,0.0,0.0,0.0,0.0,0.0,0.0,0.0,0.0,0.0,0.0,0.0,0.0,0.0,0.0,0.0,0.0,0.0,0.0,0.0,0.0,0.0,0.0,0.0,0.0,0.0,0.0,0.0,0.0,0.0,0.0,0.0,0.0,0.0,0.0,0.0,0.0,0.0,0.0,0.0,0.0,0.0,0.0,0.0,0.0,0.0,0.0,0.0,0.0,0.0,0.0,0.0,0.0,0.0,0.0,0.0,0.0,0.0,0.0,0.0,0.0,0.0,0.0,0.0,0.0,0.0,0.0,-0.023,0.0,0.0,0.0,0.0,0.0,0.0,0.0,0.0,0.0,0.0,0.0,0.0,0.0,0.0,0.0,0.0,0.0,0.0,0.0,0.0,0.0,0.0,0.0,0.0,0.0,0.0,0.0,0.0,0.0,0.0,0.0,0.0,0.0,0.0,0.0,0.0,0.0,0.0,-0.2136,-0.2891,-0.4035,-0.5517,-0.5277,-0.4725,-0.3885,0.0,0.0,0.0,0.0,0.0,0.0,0.0,0.0,0.0,0.0,0.0,0.0,0.0,0.0,0.0,0.0,0.0,0.0,0.0,0.0,0.0,0.0,0.0,0.0,0.0,0.0,0.0,0.0,0.0,0.0,0.0,0.0,0.0,0.0,0.0,0.0,0.0,0.0,0.0,0.0,0.0,0.0,0.0,0.0,0.0,0.0,0.0,0.0,0.0,0.0,0.0,0.0,0.0,0.0,0.0,0.0,0.0,0.0,0.0,0.0,0.0,0.0,0.0,0.0,0.0,0.0,0.0,0.0,0.0,0.0,0.0,-0.0302,0.0,0.0,0.0,0.0,0.0,0.0,0.0,0.0,0.0,0.0,0.0,0.0,0.0,0.0,0.0,0.0,0.0,0.0,0.0,0.0,0.0,0.0,0.0,-0.2777,-0.2885,-0.28,-0.3089,-0.3176,0.0,0.0,0.0,0.0,0.0,0.0,0.0,-0.216,-0.2413,-0.264,-0.426,-0.575,-0.7094,-0.7762,-0.7305,-0.5867,-0.4697,0.0,0.0,0.0,0.0,0.0,0.0,0.0,0.0,0.0,0.0,0.0,0.0,0.0,0.0,0.0,0.0,0.0,0.0,0.0,0.0,0.0,0.0,0.0,0.0,0.0,0.0,0.0,0.0,0.0,0.0,0.0,0.0,0.0,0.0,0.0,0.0,0.0,0.0,0.0,0.0,0.0,0.0,0.0,0.0,0.0,0.0,0.0,0.0,0.0,0.0,0.0,0.0,0.0,0.0,0.0,0.0,0.0,0.0,0.0,0.0,0.0,0.0,0.0,0.0392,0.033,0.0342,0.0205,0.0034,-0.0163,-0.0294,-0.0296,-0.0198,-0.0303,0.0,0.0,0.0,0.0,0.0,0.0,0.0,0.0,0.0,0.0,0.0,0.0,0.0,0.0,0.0,0.0,0.0,0.0,0.0,0.0,0.0,-0.2926,-0.3246,-0.3921,-0.424,-0.4467,-0.4665,0.0,0.0,0.0,0.0,0.0,-0.2239,-0.2265,-0.2871,-0.4033,-0.6711,-0.8346,-0.8972,-0.9996,-1.0287,-0.988,-0.6987,-0.5868,-0.6053,0.0,0.0,0.0,0.0,0.0,0.0,0.0,0.0,0.0,0.0,0.0,0.0,0.0,0.0,0.0,0.0,0.0,0.0,0.0,0.0,0.0,0.0,0.0,0.0,0.0,0.0,0.0,0.0,0.0,0.0,0.0,0.0,0.0,0.0,0.0,0.0,0.0,0.0,0.0,0.0,0.0,0.1579,0.1927,0.0,0.0,0.0,0.0,0.0,0.0,0.0,0.0,0.0,0.0,0.0,0.0,0.0,0.0731,0.0492,0.0294,0.0187,0.0074,0.0076,0.0037,0.0036,0.0036,0.0,-0.0035,-0.0171,0.0,-0.0199,-0.0151,0.0,0.0,0.0,0.0,0.0,0.0,0.0,0.0,0.0,0.0,0.0,0.0,0.0,0.0,0.0,0.0,0.0,0.0,0.0,0.0,0.0,-0.4161,-0.4868,-0.5855,-0.6749,-0.6897,-0.6124,-0.5959,0.0,0.0,0.0,-0.3097,-0.2913,-0.3519,-0.4965,-0.7335,-0.9304,-1.0683,-1.1501,-1.2315,-1.2681,-1.2529,-0.972,-0.7937,-0.6894,-0.5466,0.0,0.0,0.0,0.0,0.0,0.0,0.0,0.0,0.0,0.0,0.0,0.0,0.0,0.0,0.0,0.0,0.0,0.0,0.0,0.0,0.0,0.0,0.0,0.0,0.0,0.0,0.0,0.0,0.0,0.0,0.0,0.0,0.0,0.0,0.0,0.0,0.0,0.0,0.0,0.1296,0.1838,0.2286,0.2263,0.2246,0.0,0.0,0.0,0.0,0.0,0.0,0.0,0.0,0.0,0.0634,0.0506,0.0382,0.0158,0.0121,0.0041,0.0,0.0,0.0,0.0,0.0,0.0,0.0,-0.0075,-0.0071,-0.0097,-0.0149,-0.0028,0.0167,0.0,0.0,0.0,0.0,-0.0116,-0.0297,0.0,0.0,0.0,0.0,0.0,0.0,0.0,0.0,0.0,0.0,0.0,0.0,-0.467,-0.558,-0.667,-0.7923,-0.8859,-0.8863,-0.7559,-0.7421,-0.6623,-0.4871,-0.4385,-0.3964,-0.3636,-0.5093,-0.7226,-0.9996,-1.1397,-1.259,-1.3561,-1.4148,-1.4422,-1.4329,-1.1891,-0.9827,-0.81,-0.6288,-0.5063,-0.4247,0.0,0.0,0.0,0.0,0.0,0.0,0.0,0.0,0.0,0.0,0.0,0.0,0.0,0.0,0.0,0.0,0.0,0.0,0.0,0.0,0.0,0.0,0.0,0.0,0.0,0.0,0.0,0.0,0.0,0.0,0.0,0.0,0.0,0.0,0.0,0.0,0.0,0.1856,0.2386,0.2769,0.2919,0.2963,0.0,0.0,0.0,0.0,0.0,0.0,0.104,0.0813,0.0576,0.0386,0.0245,0.0085,0.0,0.0,0.0,0.0,0.0,0.0,0.0,0.0,0.0,0.0,0.0,0.0,0.0,-0.0101,-0.0095,0.0,0.0,0.0,0.0,-0.0052,-0.0159,-0.0308,0.0,0.0,0.0,0.0,0.0,0.0,0.0,0.0,0.0,0.0,0.0,-0.4969,-0.5827,-0.6987,-0.8344,-0.9902,-0.9805,-0.9499,-0.9125,-0.8212,-0.6989,-0.5427,-0.5331,-0.4971,-0.4279,-0.6863,-0.9053,-1.073,-1.2589,-1.3818,-1.4469,-1.5057,-1.5331,-1.5245,-1.2877,-1.1405,-1.0534,-0.764,-0.6129,-0.5549,-0.4953,0.0,0.0,0.0,0.0,0.0,0.0,0.0,0.0,0.0,0.0,0.0,0.0,0.0,0.0,0.0,0.0,0.0,0.0,0.0,0.0,0.0,0.0,0.0,0.0,0.0,0.0,0.0,0.0,0.0,0.0,0.0,0.0,0.0,0.0,0.0,0.0,0.0,0.0,0.3125,0.4184,0.0,0.0,0.0,0.0,0.2377,0.136,0.0634,0.0374,0.0341,0.0218,0.0044,0.0,0.0,0.0,0.0,0.0,0.0,0.0,0.0,0.0,0.0,0.0,0.0,0.0,0.0,0.0,0.0,0.0,0.0,0.0,0.0,0.0,0.0,0.0,-0.0032,0.0,0.0,0.0,0.0,0.0,0.0,0.0,0.0,-0.39,-0.3764,-0.4933,-0.627,-0.7535,-0.9046,-1.0645,-1.2263,-1.2622,-1.2304,-1.1132,-1.0109,-0.8744,-0.6894,-0.6059,-0.6127,-0.7177,-0.9101,-1.1071,-1.3194,-1.4246,-1.4977,-1.5318,-1.5578,-1.5671,-1.5537,-1.3021,-1.1768,-1.1326,-0.8368,-0.6658,-0.5967,-0.5498,-0.4722,0.0,0.0,0.0,0.0,0.0,0.0,0.0,0.0,0.0,0.0,0.0,0.0,0.0,0.0,0.0,0.0,0.0,0.0,0.0,0.0,0.0,0.0,0.0,0.0,0.0,0.0,0.0,0.0,0.0,0.0,0.0,0.0,0.0,0.0,0.0,0.0,0.0,0.3932,0.444,0.0,0.4681,0.3297,0.2413,0.2446,0.1096,0.0217,0.0134,0.0093,0.0095,0.0,0.0,0.0,0.0,0.0,0.0,0.0,0.0,0.0,0.0,0.0,0.0,0.0,0.0,0.0,0.0,0.0,0.0,0.0,0.0,0.0,0.0,0.0,0.0,0.0,0.0,0.0,0.0,0.0,0.0,0.0,0.0,0.0,-0.4358,-0.4426,-0.5872,-0.7502,-0.9102,-1.0748,-1.2369,-1.3936,-1.4061,-1.3408,-1.1853,-1.0862,-0.9385,-0.7307,-0.6829,-0.7613,-0.9798,-1.1086,-1.2704,-1.4669,-1.5257,-1.5645,-1.5784,-1.5784,-1.5784,-1.573,-1.3542,-1.2334,-1.1726,-0.9321,-0.7603,-0.6461,-0.6035,-0.5364,-0.45,0.0,0.0,0.0,0.0,0.0,0.0,0.0,0.0,0.0,0.0,0.0,0.0,0.0,0.0,0.0,0.0,0.0,0.0,0.0,0.0,0.0,0.0,0.0,0.0,0.0,0.0,0.0,0.0,0.0,0.0,0.0,0.0,0.0,0.0,0.0,0.4329,0.4925,0.5479,0.5694,0.547,0.4353,0.3627,0.3571,0.2192,0.1352,0.133,0.1365,0.1137,0.0693,0.0651,0.0656,0.0656,0.0697,0.0885,0.1261,0.0851,0.0649,0.0594,0.0181,0.0,0.0,0.0,0.0,0.0,0.0,0.0,0.0,0.0,0.0,0.0,0.0,0.0,0.0,0.0,0.0,0.0,0.0,0.0,0.0,0.0,-0.4224,-0.4626,-0.5236,-0.6849,-0.8628,-1.0443,-1.1957,-1.3414,-1.4867,-1.3874,-1.259,-1.1234,-1.0279,-0.8814,-0.6648,-0.7679,-0.9432,-1.1888,-1.2802,-1.385,-1.5035,-1.5558,-1.5784,-1.5784,-1.5784,-1.5784,-1.573,-1.4459,-1.3151,-1.1799,-1.0538,-0.8883,-0.7105,-0.6626,-0.5922,-0.5108,0.0,0.0,0.0,0.0,0.0,0.0,0.0,0.0,0.0,0.0,0.0,0.0,0.0,0.0,0.0,0.0,0.0,0.0,0.0,0.0,0.0,0.0,0.0,0.0,0.0,0.0,0.0,0.0,0.0,0.0,0.0,0.0,0.0,0.3874,0.5523,0.6553,0.6129,0.7415,0.7984,0.721,0.6438,0.5922,0.5663,0.46,0.3997,0.4012,0.4016,0.3366,0.2063,0.2063,0.2063,0.2013,0.2062,0.2664,0.3801,0.2566,0.1956,0.1836,0.0584,0.0,0.0044,0.0,0.0,0.0,0.0,0.0,0.0,0.0,0.0,0.0,0.0,0.0,0.0,0.0,0.0,0.0,0.0,0.0,0.0,0.0,-0.4132,-0.4744,-0.568,-0.7608,-0.9494,-1.1016,-1.2693,-1.3968,-1.4589,-1.3574,-1.2627,-1.1948,-0.9936,-0.85,-0.7923,-0.9497,-1.1164,-1.2805,-1.3687,-1.4596,-1.5591,-1.5752,-1.5784,-1.5784,-1.5784,-1.5784,-1.573,-1.4459,-1.3151,-1.1809,-1.0626,-0.9287,-0.7913,-0.7348,-0.6737,-0.6084,0.0,0.0,0.0,0.0,0.0,0.0,0.0,0.0,0.0,0.0,0.0,0.0,0.0,0.0,0.0,0.0,0.0,0.0,0.0,0.0,0.0,0.0,0.0,0.0,0.0,0.0,0.0,0.0,0.0,0.0,0.0,0.0,0.5892,0.5892,0.6615,0.7286,0.777,0.8106,0.8231,0.8123,0.6956,0.6186,0.6102,0.4867,0.4104,0.4017,0.4016,0.3366,0.2063,0.2966,0.2964,0.2013,0.2976,0.3627,0.3928,0.2642,0.2451,0.3196,0.0993,0.0488,0.1258,0.0391,0.0,0.0,0.0,0.0,0.0,0.0,0.0,0.0,0.0,0.0,0.0,0.0,0.0,0.0,0.0,0.0,0.0,0.0,-0.4145,-0.4748,-0.6177,-0.7894,-0.9593,-1.1209,-1.2565,-1.346,-1.3754,-1.2553,-1.1575,-1.1053,-0.9502,-0.8985,-0.9788,-1.1246,-1.2641,-1.3945,-1.4661,-1.5271,-1.5784,-1.5784,-1.5784,-1.5784,-1.5784,-1.5784,-1.5784,-1.5172,-1.3842,-1.1998,-1.1455,-1.0131,-0.833,-0.7977,-0.7473,-0.6861,-0.6341,-0.506,-0.3525,-0.3181,-0.213,-0.0922,-0.083,0.0,0.0,0.0,0.0,0.0,0.0,0.0,0.0,0.0,0.0,0.0,0.0,0.0,0.0,0.0,0.0,0.0,0.0,0.0,0.0,0.0,0.0,0.0,0.0,0.5897,0.7161,0.7545,0.7768,0.808,0.8547,0.856,0.8557,0.8574,0.7806,0.7258,0.7202,0.6469,0.5953,0.5795,0.579,0.5164,0.372,0.442,0.447,0.3668,0.4424,0.5072,0.5565,0.4214,0.3948,0.4464,0.2439,0.1601,0.1758,0.1056,0.0475,0.0,0.0,0.0285,0.0,0.0,0.0,0.0,0.0,0.0,0.0,0.0,0.0,0.0,0.0,0.0,0.0,0.0,-0.4214,-0.4706,-0.6606,-0.7796,-0.915,-1.1055,-1.183,-1.2311,-1.261,-1.1203,-1.0015,-0.9356,-0.9225,-1.0014,-1.1834,-1.2887,-1.3945,-1.5057,-1.5565,-1.5798,-1.5879,-1.5879,-1.5879,-1.5879,-1.5912,-1.5912,-1.5892,-1.6192,-1.4807,-1.2269,-1.2537,-1.1036,-0.8509,-0.8509,-0.8139,-0.7511,-0.6985,-0.562,-0.4006,-0.3617,-0.2438,-0.1077,-0.0642,0.0,0.0,0.0,0.0,0.0,0.0,0.0,0.0,0.0,0.0,0.0,0.0,0.0,0.0,0.0,0.0,0.0,0.0,0.0,0.0,0.0,0.0,0.0,0.0,0.6707,0.794,0.8834,0.8845,0.8754,0.8737,0.8842,0.8811,0.8747,0.872,0.8655,0.8516,0.8492,0.8421,0.833,0.0,0.0,0.0,0.0,0.6129,0.5979,0.6129,0.6776,0.7786,0.6482,0.5842,0.5777,0.4295,0.3089,0.2192,0.2057,0.137,0.0389,0.0382,0.0911,0.1653,0.059,0.0115,0.0,0.0,0.0,0.0,0.0,0.0,0.0,0.0,0.0,0.0,0.0,-0.4218,-0.4812,-0.6376,-0.7467,-0.8672,-1.0201,-1.1069,-1.1582,-1.1677,-1.0464,-0.9418,-0.8812,-1.0121,-1.1422,-1.2579,-1.3928,-1.4981,-1.5651,-1.5772,-1.5945,-1.6186,-1.6186,-1.6186,-1.6192,-1.6426,-1.6413,-1.6199,-1.6493,-1.5087,-1.2547,-1.2665,-1.119,-0.8665,-0.8665,-0.8346,-0.7888,-0.7752,-0.6097,-0.3859,-0.3733,-0.2246,-0.0273,-0.0337,-0.0328,-0.0364,-0.0515,-0.0701,0.0,0.0,0.0,0.0,0.0,0.0,0.0,0.0,0.0,0.0,0.0,0.0,0.0,0.0,0.0,0.0,0.0,0.0,0.0,0.6747,0.7961,0.8922,0.9096,0.9142,0.9025,0.8854,0.8811,0.8791,0.8831,0.8781,0.8699,0.8669,0.8554,0.8421,0.833,0.815,0.7416,0.6029,0.7036,0.7083,0.6029,0.7083,0.7723,0.7944,0.0,0.0,0.7126,0.4804,0.4129,0.4643,0.366,0.3015,0.2657,0.273,0.2781,0.2704,0.169,0.0764,0.0,0.0,0.0,0.0,0.0,0.0,0.0,0.0,0.0,0.0,0.0,-0.4185,-0.4531,-0.5864,-0.6722,-0.7577,-0.8555,-0.9297,-0.9624,-0.9322,-0.8881,-0.8783,-0.9208,-1.0883,-1.2395,-1.3581,-1.4955,-1.5805,-1.6046,-1.6192,-1.6339,-1.6486,-1.6486,-1.6486,-1.6493,-1.664,-1.6627,-1.6506,-1.6794,-1.5781,-1.3765,-1.3266,-1.1818,-0.9834,-0.9007,-0.853,-0.8255,-0.818,-0.6369,-0.3888,-0.3908,-0.2215,0.0,-0.0133,-0.0131,-0.0129,-0.0277,-0.0444,-0.0515,0.0,0.0,0.0,0.0,0.0,0.0,0.0,0.0,0.0,0.0,0.0,0.0,0.0,0.0,0.5016,0.0,0.0,0.7343,0.7764,0.8745,0.9354,0.9333,0.9323,0.9184,0.8908,0.8804,0.874,0.8818,0.8686,0.8598,0.8598,0.8526,0.8421,0.833,0.8197,0.7815,0.7036,0.7566,0.7576,0.6886,0.7511,0.7821,0.7769,0.7113,0.7058,0.7435,0.6199,0.5508,0.5359,0.4776,0.4102,0.3497,0.3972,0.3777,0.3206,0.3167,0.2442,0.1388,0.097,0.102,0.1208,0.0,0.0,0.0,0.0,0.0,0.0,0.0,-0.4107,-0.422,-0.5365,-0.5873,-0.6384,-0.6991,-0.7489,-0.7611,-0.7132,-0.7601,-0.8519,-0.9904,-1.1498,-1.3067,-1.4506,-1.5678,-1.6321,-1.6321,-1.656,-1.6707,-1.6707,-1.6767,-1.676,-1.6707,-1.682,-1.6874,-1.6887,-1.7179,-1.636,-1.4667,-1.3692,-1.2295,-1.055,-0.9251,-0.8618,-0.8465,-0.8062,-0.6263,-0.3985,-0.372,-0.2014,0.0094,0.0,0.0044,0.0086,0.0041,-0.0118,-0.0264,-0.0305,-0.0316,0.0,0.0,0.0,0.0,0.0,0.0,0.0,0.0,0.0,0.5202,0.5635,0.595,0.6357,0.7074,0.7703,0.8224,0.8701,0.9255,0.9588,0.9405,0.9354,0.9228,0.8875,0.8784,0.8699,0.8669,0.8554,0.8482,0.8482,0.8459,0.8391,0.8327,0.8241,0.817,0.7992,0.7889,0.7824,0.7855,0.7685,0.7614,0.7641,0.7611,0.7519,0.7415,0.7415,0.6786,0.5714,0.5692,0.5147,0.4291,0.4979,0.4724,0.4014,0.4779,0.444,0.3412,0.2264,0.2195,0.2477,0.0,0.0,0.0,0.0,0.0,0.0,0.0,0.0,-0.4196,-0.5053,-0.5198,-0.5588,-0.6482,-0.6649,-0.6679,-0.6674,-0.794,-0.9223,-1.0274,-1.1834,-1.3394,-1.4894,-1.5832,-1.6321,-1.6321,-1.656,-1.6707,-1.6707,-1.7025,-1.7018,-1.6714,-1.7241,-1.7482,-1.7488,-1.7522,-1.6154,-1.3837,-1.3449,-1.1701,-0.914,-0.8825,-0.8618,-0.8361,-0.7013,-0.5454,-0.3865,-0.2642,-0.1072,0.0406,0.009,0.0177,0.0391,0.0086,-0.0209,-0.0396,-0.0144,0.0,-0.0579,0.0111,0.0401,0.0,0.2108,0.2549,0.2977,0.0,0.0,0.6484,0.6546,0.7585,0.8648,0.903,0.9242,0.9422,0.9597,0.9714,0.97,0.9418,0.932,0.9125,0.8771,0.872,0.8659,0.852,0.8492,0.8482,0.8482,0.8367,0.8337,0.8323,0.814,0.8008,0.7988,0.7889,0.7875,0.7965,0.774,0.7662,0.7787,0.7658,0.7519,0.7415,0.7415,0.724,0.6908,0.679,0.6648,0.6546,0.6515,0.644,0.6325,0.6284,0.6136,0.5657,0.3549,0.2742,0.2678,0.0,0.0,0.0,0.0,0.0,0.0,0.0,0.0,0.0,-0.424,-0.4481,-0.4749,-0.502,-0.5258,-0.5538,-0.5919,-0.7376,-0.8921,-1.0483,-1.2133,-1.3674,-1.515,-1.5939,-1.6353,-1.652,-1.6814,-1.7048,-1.7215,-1.7341,-1.7341,-1.7221,-1.7468,-1.7582,-1.7589,-1.7769,-1.7203,-1.6096,-1.4359,-1.2913,-1.1525,-0.9607,-0.8699,-0.8236,-0.5934,-0.4622,-0.3786,-0.2338,-0.0844,0.0,0.0247,0.0286,0.0409,0.008,-0.0079,-0.0196,-0.018,-0.0206,0.0,0.02,0.0,0.0,0.0,0.2378,0.3773,0.4195,0.6051,0.7722,0.7948,0.8569,0.9181,0.9564,0.969,0.9781,0.0,0.988,0.9717,0.9422,0.9306,0.9036,0.8509,0.8455,0.8428,0.8367,0.8275,0.8225,0.8225,0.817,0.8136,0.8136,0.8025,0.7988,0.7988,0.7811,0.7719,0.7784,0.7482,0.7318,0.7375,0.7451,0.7387,0.7241,0.7329,0.7285,0.7092,0.7034,0.7007,0.6991,0.6797,0.6702,0.6678,0.648,0.6296,0.595,0.4467,0.4124,0.4254,0.0,0.0,0.0,0.0,0.0,0.0,0.0,0.0,0.0,0.0,-0.3995,-0.4227,-0.4282,-0.4543,-0.4901,-0.5393,-0.6742,-0.8308,-1.0104,-1.181,-1.3458,-1.4977,-1.5752,-1.6286,-1.658,-1.7005,-1.7266,-1.7341,-1.7502,-1.7542,-1.7514,-1.7549,-1.7675,-1.7842,-1.7929,-1.7858,-1.7501,-1.4963,-1.3575,-1.2848,-0.9985,-0.8474,-0.7681,-0.5136,-0.379,-0.3131,-0.1682,-0.0413,0.0616,0.0483,0.0594,0.0675,0.0327,0.0148,0.0038,-0.0177,0.0034,0.0269,0.0296,0.0,0.0,0.0602,0.2505,0.4426,0.4742,0.6705,0.8557,0.8923,0.9079,0.9323,0.9632,0.97,0.9751,0.9842,0.9836,0.9673,0.9415,0.9178,0.891,0.8436,0.8218,0.8143,0.8143,0.8082,0.7988,0.7988,0.7988,0.7988,0.7988,0.7988,0.7988,0.7988,0.779,0.7678,0.7723,0.7377,0.7179,0.7223,0.7295,0.7248,0.7098,0.7255,0.7248,0.7095,0.7095,0.7095,0.7078,0.6868,0.6763,0.6732,0.6474,0.6251,0.6069,0.5377,0.5325,0.5413,0.0,0.0,0.0,0.0,0.0,0.0,0.0,0.0,0.0,0.0,0.0,0.0,0.0,-0.4985,-0.5065,-0.5291,-0.6313,-0.7524,-0.8961,-1.0748,-1.2479,-1.4075,-1.5231,-1.5979,-1.6279,-1.6904,-1.7065,-1.6734,-1.7301,-1.7494,-1.7219,-1.7501,-1.7896,-1.845,-1.8115,-1.7504,-1.6584,-1.4701,-1.3012,-1.1402,-0.9483,-0.784,-0.6393,-0.4652,-0.3008,-0.1419,-0.028,0.0592,0.115,0.0945,0.1215,0.1562,0.087,0.0456,0.0175,0.0034,0.0227,0.0479,0.0,0.0,0.0775,0.1861,0.33,0.4848,0.6157,0.7689,0.896,0.9173,0.9207,0.9258,0.9364,0.9395,0.9445,0.9598,0.9618,0.9561,0.9405,0.9001,0.8662,0.8496,0.8089,0.7824,0.0,0.7907,0.7988,0.7988,0.7988,0.7988,0.7988,0.7988,0.7988,0.7988,0.7885,0.7875,0.7975,0.7587,0.7438,0.7584,0.7243,0.7102,0.7095,0.7102,0.7102,0.7095,0.7095,0.7095,0.7085,0.694,0.6879,0.6849,0.6583,0.6504,0.648,0.6305,0.5973,0.5589,0.0,0.0,0.0,0.0,0.0,0.0,0.0,0.0,0.0,0.0,0.0,0.0,0.0,0.0,0.0,0.0,-0.6291,-0.7344,-0.827,-1.0248,-1.1761,-1.2615,-1.4329,-1.5297,-1.545,-1.6214,-1.6613,-1.6707,-1.6901,-1.6954,-1.6854,-1.6954,-1.7108,-1.7308,-1.7408,-1.7285,-1.687,-1.45,-1.3088,-1.2257,-0.9523,-0.7614,-0.6147,-0.4341,-0.2792,-0.137,0.0,0.1148,0.1495,0.1313,0.1328,0.1356,0.0854,0.0475,0.02,0.0137,0.021,0.0292,0.0289,0.0,0.0624,0.2074,0.3545,0.503,0.6434,0.7948,0.9066,0.9022,0.855,0.8199,0.8251,0.8003,0.8019,0.8553,0.8815,0.9037,0.9361,0.9252,0.8954,0.8408,0.8292,0.0,0.0,0.0,0.0,0.7889,0.7889,0.7884,0.7985,0.7988,0.7988,0.7988,0.7889,0.7834,0.7885,0.7645,0.755,0.7597,0.7495,0.739,0.7292,0.7292,0.7238,0.7095,0.7095,0.7095,0.7085,0.6943,0.6886,0.6856,0.6593,0.6511,0.6494,0.6354,0.6098,0.5867,0.0,0.0,0.0,0.0,0.0,0.0,0.0,0.0,0.0,0.0,0.0,0.0,0.0,0.0,0.0,0.0,0.0,-0.6706,-0.7486,-0.9127,-1.0452,-1.1326,-1.2876,-1.3851,-1.4083,-1.4796,-1.5233,-1.5324,-1.5724,-1.5823,-1.5632,-1.5936,-1.6192,-1.635,-1.6188,-1.6226,-1.6209,-1.3508,-1.2149,-1.1597,-0.8717,-0.6649,-0.5006,-0.3433,-0.1964,0.0,0.0803,0.1499,0.1735,0.159,0.1517,0.1382,0.0932,0.0431,0.0033,0.0107,0.0113,0.0161,0.0231,0.0247,0.0576,0.2129,0.3627,0.5062,0.6505,0.8031,0.896,0.849,0.7877,0.7351,0.7104,0.6885,0.698,0.7727,0.8189,0.8616,0.9242,0.9161,0.8923,0.8554,0.8401,0.8211,0.0,0.0,0.0,0.7811,0.7862,0.7913,0.7907,0.7961,0.7988,0.7988,0.7894,0.7892,0.7892,0.7746,0.7648,0.76,0.76,0.7519,0.7415,0.7415,0.7285,0.7095,0.7095,0.7095,0.7085,0.6943,0.6886,0.6862,0.6651,0.6559,0.6501,0.6409,0.6207,0.5979,0.0,0.0,0.0,0.0,0.0,0.0,0.0,0.0,0.0,0.0,0.0,0.0,0.0,0.0,0.0,0.0,0.0,0.0,-0.6594,-0.7544,-0.8743,-1.0189,-1.0985,-1.1708,-1.2386,-1.2809,-1.2984,-1.2867,-1.3874,-1.4093,-1.361,-1.4418,-1.5078,-1.5504,-1.4401,-1.425,-1.4598,-1.1705,-1.0171,-0.9469,-0.7122,-0.4979,-0.3049,-0.204,-0.0532,0.1062,0.1321,0.1617,0.1868,0.1813,0.1754,0.1642,0.1051,0.0325,-0.0244,-0.0039,0.0,0.0043,0.0257,0.0271,0.0673,0.2237,0.3644,0.5053,0.6498,0.7877,0.8525,0.7561,0.7056,0.6583,0.5937,0.5978,0.6377,0.7117,0.7662,0.8272,0.9079,0.8866,0.8648,0.0,0.0,0.0,0.0,0.0,0.0,0.7811,0.0,0.7917,0.7831,0.7911,0.7988,0.7988,0.7988,0.7988,0.7988,0.7896,0.7753,0.7621,0.7621,0.7543,0.7439,0.7439,0.7305,0.7109,0.7109,0.7102,0.7085,0.6953,0.6896,0.6883,0.6773,0.6624,0.6535,0.6518,0.6295,0.6013,0.0,0.0,0.0,0.0,0.0,0.0,0.0,0.0,0.0,0.0,0.0,0.0,0.0,0.0,0.0,0.0,0.0,0.0,-0.5937,-0.7165,-0.7955,-0.816,-0.9941,-1.0956,-1.0927,-1.176,-1.2196,-1.2158,-1.2421,-1.2376,-1.2053,-1.2284,-1.2274,-1.204,-1.1674,-1.1503,-1.1455,-0.9366,-0.8452,-0.8082,-0.5692,-0.3806,-0.235,-0.1399,-0.0097,0.1292,0.1757,0.171,0.1479,0.0,0.0,0.0,0.0,0.0187,-0.008,0.0,0.0,0.0,0.0055,0.0058,0.0771,0.36,0.4395,0.5204,0.7756,0.8051,0.7599,0.7011,0.5904,0.498,0.4734,0.4931,0.5392,0.6387,0.7468,0.0,0.9239,0.9412,0.0,0.8925,0.0,0.8577,0.8245,0.8072,0.0,0.0,0.7848,0.7902,0.7928,0.7968,0.7988,0.7988,0.7988,0.7988,0.7988,0.7951,0.7914,0.7877,0.7877,0.7848,0.7699,0.7699,0.7556,0.7312,0.7312,0.7248,0.7092,0.7058,0.7041,0.7028,0.6883,0.6848,0.6783,0.6556,0.6463,0.6346,0.0,0.0,0.0,0.0,0.0,0.0,0.0,0.0,0.0,0.0,0.0,0.0,0.0,0.0,0.0,0.0,0.0,0.0,0.0,-0.6544,-0.7058,-0.7132,-0.8556,-0.9365,-0.943,-1.0224,-1.0585,-1.0484,-1.0916,-1.0838,-1.0277,-1.0641,-1.0653,-1.0367,-0.9683,-0.9377,-0.9322,-0.7586,-0.668,0.0,0.0,-0.2938,-0.1709,-0.0513,0.0521,0.1385,0.2059,0.1852,0.0,0.0,0.0,0.0456,0.0285,0.0086,-0.0136,-0.005,0.0,-0.0108,0.0,0.0,0.061,0.3192,0.4123,0.4854,0.6696,0.7114,0.6786,0.5725,0.4773,0.0,0.4048,0.4342,0.0,0.0,0.0,0.0,0.8994,0.9228,0.9259,0.0,0.8859,0.0,0.8387,0.8167,0.7955,0.0,0.7913,0.787,0.7887,0.7955,0.7988,0.7988,0.7988,0.7988,0.7988,0.7988,0.7988,0.7988,0.7988,0.7911,0.7811,0.7811,0.7651,0.7415,0.0,0.7322,0.7279,0.7694,0.762,0.7272,0.7643,0.7411,0.6859,0.6661,0.6569,0.6491,0.0,0.0,0.0,0.0,0.0,0.0,0.0,0.0,0.0,0.0,0.0,0.0,0.0,0.0,0.0,0.0,0.0,0.0,0.0,0.0,-0.6232,-0.6704,-0.7167,-0.7647,-0.8106,-0.8599,-0.8767,-0.866,-0.9421,-0.9387,-0.8546,-0.9199,-0.9492,-0.9385,-0.8111,-0.765,-0.7737,-0.6165,-0.5134,-0.4504,-0.3354,-0.2244,-0.1136,0.0,0.1137,0.1552,0.2253,0.0,0.0,0.0,0.0435,0.0168,0.0229,0.0,-0.0202,-0.0054,-0.0112,-0.0229,-0.0061,0.0,0.0432,0.2089,0.3305,0.4259,0.479,0.5737,0.6008,0.4335,0.0,0.3655,0.3638,0.4039,0.4756,0.6006,0.0,0.7667,0.8578,0.8757,0.8859,0.9152,0.8764,0.8499,0.8459,0.8201,0.7988,0.7988,0.7988,0.7931,0.7848,0.7917,0.7988,0.7988,0.7988,0.7988,0.7988,0.7988,0.7988,0.7988,0.7988,0.7921,0.7841,0.8032,0.7912,0.7671,0.7851,0.7871,0.7911,0.8781,0.8633,0.7911,0.8777,0.832,0.715,0.6968,0.6859,0.6675,0.0,0.0,0.0,0.0,0.0,0.0,0.0,0.0,0.0,0.0,-0.4271,-0.4605,0.0,0.0,0.0,0.0,0.0,0.0,0.0,0.0,0.0,-0.6303,-0.6744,-0.7195,-0.7605,-0.7869,-0.816,-0.846,-0.833,-0.809,-0.7709,-0.7511,-0.7269,-0.6992,-0.6407,-0.6112,-0.5994,-0.5189,-0.4573,-0.4019,-0.282,-0.1718,-0.0688,0.057,0.0,0.0,0.0,0.0,0.0,0.0,0.0251,0.0046,0.005,0.0,-0.0054,0.0,0.0,-0.0059,0.0,0.0,0.0431,0.2061,0.3083,0.3904,0.4715,0.5161,0.0,0.0,0.3332,0.2998,0.3309,0.3766,0.0,0.5953,0.0,0.0,0.0,0.0,0.9052,0.0,0.0,0.0,0.0,0.0,0.0,0.0,0.0,0.7978,0.7951,0.7975,0.7988,0.7988,0.7988,0.7988,0.7988,0.7988,0.7988,0.7988,0.7988,0.7975,0.8001,0.9121,0.9364,0.9023,1.0127,0.0,1.0057,1.0241,1.0202,1.0057,1.0236,0.96,0.8498,0.8201,0.802,0.7752,0.0,0.0,0.0,0.0,0.0,0.0,0.0,0.0,-0.393,-0.4543,-0.4653,-0.4714,-0.4867,-0.4933,0.0,0.0,0.0,0.0,0.0,0.0,0.0,0.0,0.0,0.0,-0.7128,-0.7443,-0.7654,-0.7785,0.0,-0.7635,-0.7386,-0.7126,-0.6851,-0.6534,-0.6168,-0.5792,-0.5362,-0.4889,-0.4348,-0.3722,-0.2828,-0.1858,-0.0823,0.0,0.0,0.0,0.0,0.0,0.0,0.0,0.0593,0.0175,0.0051,0.0,0.0,0.0111,0.0057,0.0,0.0116,0.006,0.0184,0.1018,0.2347,0.3417,0.3021,0.0,0.0,0.0,0.3057,0.3037,0.3483,0.0,0.0,0.0,0.0,0.0,0.0,0.0,0.0,0.0,0.0,0.0,0.0,0.0,0.0,0.0,0.0,0.7988,0.7988,0.7988,0.7988,0.7988,0.7988,0.7988,0.7988,0.7988,0.7988,0.7988,0.7988,0.8382,0.9069,0.9706,1.0184,1.0604,1.1098,1.1156,1.0984,1.1354,1.1197,1.0772,1.1262,1.0778,0.9755,0.9526,0.9302,0.8968,0.0,0.0,0.0,0.0,0.0,0.0,0.0,-0.3563,-0.429,-0.503,-0.498,-0.4898,-0.4967,-0.5009,-0.508,0.0,0.0,0.0,0.0,0.0,0.0,0.0,0.0,0.0,0.0,0.0,0.0,0.0,-0.7461,0.0,0.0,0.0,0.0,0.0,-0.6393,-0.5886,-0.5319,-0.4968,-0.4399,0.0,0.0,-0.212,0.0,0.0,0.0,0.0,0.0,0.0,0.0,0.0,0.0894,0.0392,0.0142,0.0052,0.0107,0.0261,0.0164,0.0115,0.0225,0.0118,0.0,0.0,0.1644,0.2917,0.151,0.3138,0.0,0.0,0.3004,0.3317,0.3734,0.0,0.0,0.0,0.0,0.0,0.0,0.0,0.0,0.0,0.0,0.0,0.0,0.0,0.0,0.0,0.0,0.0,0.8041,0.7958,0.7958,0.7988,0.7958,0.7941,0.7941,0.7941,0.8072,0.8283,0.8364,0.906,1.0325,1.0658,1.1289,1.2068,1.2072,1.2035,1.2044,1.2484,1.2236,1.1608,1.2373,1.1986,1.0967,1.0821,1.0574,1.0263,0.0,0.0,0.0,0.0,0.0,0.0,0.0,-0.3376,-0.402,-0.4819,-0.501,-0.5185,-0.55,-0.5109,-0.492,0.0,0.0,0.0,0.0,0.0,0.0,0.0,0.0,0.0,0.0,0.0,0.0,0.0,0.0,0.0,0.0,0.0,0.0,0.0,0.0,0.0,-0.58,-0.5352,0.0,0.0,0.0,0.0,0.0,0.0,0.0,0.0,0.0,0.0,0.0,0.0,0.0,0.0472,0.0379,0.0338,0.028,0.0203,0.0,0.0,0.0059,0.0,0.0,0.0,0.1494,0.272,0.1765,0.0,0.0,0.3311,0.3328,0.3594,0.3779,0.3613,0.3931,0.0,0.0,0.5932,0.0,0.0,0.0,0.0,0.0,0.0,0.0,0.0,0.0,0.0,0.0,0.0,0.8088,0.7909,0.7896,0.7985,0.7906,0.7831,0.7831,0.7831,0.8284,0.9163,0.9473,1.0262,1.14,1.2901,1.3446,1.3286,1.4248,1.4492,0.0,1.3995,1.3884,1.3818,1.3919,1.3203,1.2128,1.201,1.1857,1.1588,0.0,0.0,0.0,0.0,0.0,0.0,0.0,-0.3446,-0.4028,-0.4749,-0.4991,-0.5111,-0.5172,-0.5137,-0.5168,0.0,0.0,0.0,0.0,0.0,0.0,0.0,0.0,0.0,0.0,0.0,0.0,-0.6944,0.0,0.0,0.0,0.0,0.0,0.0,0.0,0.0,0.0,0.0,0.0,0.0,0.0,0.0,0.0,0.0,0.0,0.0,0.0,0.0,0.0,0.0,0.0,0.0,0.0893,0.0905,0.0,0.0,0.0519,0.0366,0.0473,0.0227,0.0,0.0,0.1349,0.2494,0.1742,0.0,0.4444,0.349,0.3699,0.4038,0.3926,0.3904,0.4263,0.5457,0.5377,0.0,0.0,0.0,0.0,0.0,0.0,0.0,0.0,0.0,0.0,0.0,0.0,1.0925,1.0386,0.9482,0.894,0.881,0.8744,0.8383,0.7685,0.9079,0.9648,0.93,1.0157,1.133,1.2689,1.3308,1.3966,1.4619,1.4903,1.4796,0.0,1.4208,1.4088,1.4088,1.4088,1.3822,1.3366,1.3306,1.316,1.2864,0.0,0.0,0.0,0.0,0.0,-0.2298,-0.2924,-0.3433,-0.3968,-0.4611,-0.4828,-0.4944,-0.5009,-0.5113,-0.5295,-0.5534,0.0,0.0,0.0,0.0,0.0,0.0,0.0,0.0,0.0,0.0,-0.6702,-0.6611,-0.6872,-0.7146,0.0,0.0,0.0,0.0,0.0,0.0,0.0,0.0,0.0,0.0,0.0,0.0,0.0,0.0,0.0,0.0,0.0,0.0,0.0,0.0,0.0,0.0,0.0,0.0,0.0,0.0,0.0818,0.0751,0.1195,0.0995,0.0737,0.1001,0.203,0.2835,0.0,0.0,0.4395,0.3699,0.4028,0.4403,0.4171,0.424,0.4636,0.5543,0.5414,0.5567,0.0,0.0,0.0,0.0,0.0,0.0,0.0,0.0,0.0,0.0,0.0,1.2447,1.2331,1.1347,1.0533,0.9983,0.9826,0.9359,0.854,1.0177,1.0733,1.0217,1.1141,1.2354,1.3732,1.3811,1.4366,1.5251,1.4957,1.471,0.0,1.4208,1.4088,1.4088,1.4088,1.4088,1.4088,1.4088,1.3955,1.3733,0.0,0.0,0.0,0.0,0.0,0.0,0.0,-0.3259,-0.3805,-0.4334,-0.4474,-0.4707,-0.5241,-0.506,-0.5117,-0.5658,0.0,0.0,0.0,0.0,0.0,0.0,0.0,0.0,0.0,0.0,-0.6893,-0.6893,-0.7104,-0.7307,-0.7495,-0.723,-0.7211,0.0,0.0,0.0,0.0,0.0,0.0,0.0,0.0,0.0,0.0,0.0,0.0,0.0,0.0,0.0,0.0,0.0,0.0,0.0,0.0,0.0,0.0,0.0,0.1107,0.1386,0.2252,0.235,0.2412,0.3309,0.3871,0.4063,0.0,0.0,0.4472,0.3986,0.426,0.4558,0.4417,0.4553,0.4908,0.5588,0.5703,0.0,0.0,0.0,0.0,0.0,0.0,0.0,0.0,0.0,0.0,0.0,0.0,0.0,1.3409,1.3262,1.2636,1.1492,1.104,1.0776,1.0771,1.0776,1.1317,1.2254,1.2641,1.3392,1.4492,1.483,1.497,1.4995,1.4656,1.4479,0.0,1.4208,1.4088,1.4088,1.4088,1.4088,1.4088,1.4088,1.4082,1.4082,0.0,0.0,0.0,0.0,0.0,0.0,0.0,-0.2676,-0.2998,-0.3389,-0.3739,-0.4089,-0.4448,-0.4777,-0.513,-0.5534,0.0,0.0,0.0,0.0,0.0,0.0,0.0,0.0,0.0,0.0,-0.7167,-0.7314,-0.7328,-0.7475,-0.7759,-0.7589,-0.7357,-0.7035,-0.6454,0.0,0.0,0.0,0.0,0.0,0.0,0.0,0.0,0.0,0.0,0.0,0.0,0.0,0.0,0.0,0.0,0.0,0.0,0.0,0.0,0.1658,0.1435,0.0,0.1936,0.2029,0.2026,0.2502,0.3264,0.3768,0.3445,0.3978,0.4434,0.4113,0.4415,0.4748,0.4795,0.4977,0.5326,0.5993,0.6268,0.6489,0.0,0.0,0.0,0.0,0.0,0.0,0.0,0.0,0.0,0.0,0.0,1.4873,1.4777,1.4328,1.3565,1.2412,1.2009,1.1451,1.0673,1.2247,1.2814,1.2328,1.3248,1.3972,1.4479,1.4616,1.4663,1.4656,1.4563,1.4409,1.4215,1.4128,1.4088,1.4088,1.4088,1.4088,1.4088,1.4088,1.4088,1.4088,0.0,0.0,0.0,0.0,0.0,0.0,0.0,-0.2288,-0.2478,-0.2812,-0.3202,-0.3537,-0.3838,-0.4342,-0.4812,-0.5204,0.0,0.0,0.0,0.0,0.0,0.0,0.0,0.0,0.0,-0.7452,-0.7558,-0.7655,-0.7635,-0.7725,-0.7891,-0.76,-0.7275,-0.6908,-0.6334,-0.5777,0.0,0.0,0.0,0.0,0.0,0.0,-0.0858,0.0,0.0,0.0,0.0,0.0,0.0,0.0,0.0,0.0,0.0,0.0,0.0,0.0,0.1736,0.1603,0.0,0.2613,0.2778,0.3328,0.3841,0.0,0.0,0.4293,0.4544,0.4431,0.4686,0.5006,0.5153,0.553,0.5912,0.6316,0.6776,0.0,0.0,0.0,0.0,0.0,0.0,0.0,0.0,0.0,0.0,0.0,0.0,1.5398,1.5398,1.4836,1.4161,1.348,1.3126,1.2638,1.1912,1.3392,1.373,1.2984,1.373,1.4182,1.4355,1.4355,1.4355,1.4355,1.4355,1.4255,0.0,1.4088,1.4088,1.4088,1.4088,1.4088,1.4088,1.4088,1.4088,1.4088,0.0,0.0,0.0,0.0,0.0,0.0,0.0,0.0,0.0,-0.2501,-0.279,-0.3103,-0.3464,-0.3857,-0.4284,-0.4781,0.0,0.0,0.0,0.0,0.0,0.0,0.0,0.0,-0.7229,-0.7711,-0.7946,-0.7912,-0.7946,-0.7946,-0.7891,-0.735,-0.707,-0.6944,-0.6086,-0.5586,-0.5343,-0.4447,-0.347,-0.2519,-0.2355,-0.1831,0.0,0.0,0.0,0.0,0.0,0.0,0.0,0.0,0.0,0.0,0.0,0.0,0.0,0.0,0.0,0.0,0.0,0.3751,0.0,0.0,0.0,0.0,0.0,0.4931,0.0,0.4916,0.5088,0.5285,0.5495,0.6105,0.6587,0.6511,0.0,0.0,0.0,0.0,0.0,0.0,0.0,0.0,0.0,0.0,0.0,0.0,1.5531,1.5357,1.5337,1.4796,1.4489,1.4489,1.4229,1.4088,1.4088,1.4088,1.4088,1.4088,1.4088,1.4088,1.4088,1.4166,1.4208,0.0,1.4208,1.4208,1.4208,1.4124,1.4088,1.4088,1.4088,1.4088,1.4088,1.4088,1.4088,1.4088,0.0,0.0,0.0,0.0,0.0,0.0,0.0,0.0,0.0,0.0,-0.2433,-0.2914,-0.3515,-0.3836,-0.4272,0.0,0.0,0.0,0.0,0.0,0.0,0.0,0.0,0.0,-0.7494,-0.7536,-0.7725,-0.8126,-0.778,-0.771,-0.7891,-0.7404,-0.7078,-0.6901,-0.6072,-0.5283,-0.4538,-0.3915,-0.3384,-0.2914,-0.236,-0.1848,0.0,0.0,0.0,0.0,0.0419,0.0844,0.0,0.0,0.0,0.0,0.0,0.0,0.0,0.0,0.2064,0.2075,0.2329,0.0,0.342,0.4239,0.4824,0.5225,0.0,0.5403,0.5352,0.5223,0.0,0.0,0.5714,0.6304,0.0,0.0,0.0,0.0,0.0,0.0,0.0,0.0,0.0,0.0,0.0,0.0,0.0,0.0,1.5231,1.4963,1.4736,1.4382,1.4188,1.4188,1.4122,1.4088,1.4088,1.4088,1.4088,1.4088,1.4088,1.4088,1.413,1.4936,1.5338,1.5338,1.5338,1.5338,1.5255,1.4454,1.4088,1.4088,1.4088,1.4088,1.4088,1.4088,1.4088,1.4088,0.0,0.0,0.0,0.0,0.0,0.0,0.0,0.0,0.0,0.0,0.0,0.0,0.0,0.0,0.0,0.0,0.0,0.0,0.0,0.0,0.0,0.0,0.0,-0.6873,-0.7137,-0.738,-0.7659,-0.8007,-0.7878,-0.785,-0.7891,-0.7419,-0.709,-0.6859,-0.6031,-0.5134,-0.4233,-0.4003,-0.3598,-0.3057,-0.2639,0.0,0.0,0.0,0.0,0.0,0.0278,0.0709,0.0,0.1498,0.1767,0.2053,0.0,0.0,0.0,0.0,0.1863,0.1803,0.1916,0.2529,0.3268,0.3833,0.4576,0.5271,0.5494,0.0,0.0,0.0,0.0,0.0,0.0,0.0,0.0,0.0,0.0,0.0,0.0,0.0,0.0,0.0,0.0,0.0,0.0,0.0,0.0,0.0,1.5003,1.4629,1.4335,1.3921,1.3748,1.3881,1.3881,1.3948,1.4088,1.4088,1.4088,1.4088,1.4088,1.437,1.4852,1.5455,1.5985,1.6396,1.5902,1.5985,1.6355,1.5262,1.5103,1.5553,1.5553,1.5553,1.5511,1.5019,1.481,1.481,0.0,0.0,0.0,0.0,0.0,0.0,0.0,0.0,0.0,0.0,0.0,0.0,0.0,0.0,0.0,0.0,0.0,0.0,0.0,0.0,0.0,0.0,0.0,-0.6556,-0.6641,-0.7238,-0.7671,-0.7893,-0.8136,-0.8141,-0.7924,-0.749,-0.7062,-0.6666,-0.5851,-0.5015,-0.4224,-0.4306,-0.3887,-0.3147,-0.2948,0.0,0.0,0.0,0.0,0.0,0.0,0.0,0.0,0.1473,0.1769,0.201,0.2323,0.0,0.0,0.0,0.0,0.0,0.1777,0.2558,0.342,0.3811,0.4661,0.5478,0.5728,0.0,0.0,0.0,0.0,0.0,0.0,0.0,0.0,0.0,0.0,0.0,0.0,0.0,0.0,0.0,0.0,0.0,0.0,0.0,0.0,1.5271,1.4763,1.4329,1.4035,1.3507,1.3307,1.3593,1.36,1.3746,1.4082,1.4088,1.4166,1.4328,1.4328,1.4894,1.5944,1.6108,1.6715,1.7496,0.0,0.0,1.7464,1.6396,1.6478,1.7302,1.7302,1.7302,1.7172,1.6273,1.5944,1.5944,0.0,0.0,0.0,0.0,0.0,0.0,0.0,0.0,0.0,0.0,0.0,0.0,0.0,0.0,0.0,0.0,0.0,0.0,0.0,0.0,0.0,-0.5529,-0.5893,-0.6334,-0.6837,-0.7171,-0.7665,-0.8314,-0.8402,-0.8325,-0.807,-0.7769,-0.6972,-0.5788,-0.5244,-0.4773,-0.4361,-0.4143,-0.3817,-0.3392,-0.2923,0.0,0.0,0.0,0.0,0.0,0.0,0.0,0.0,0.1159,0.1429,0.1766,0.1949,0.0,0.0,0.0,0.0,0.0,0.1626,0.25,0.3555,0.4233,0.5383,0.6428,0.6642,0.0,0.0,0.0,0.0,0.0,0.0,0.0,0.0,0.0,0.0,0.0,0.0,0.0,0.0,0.0,0.0,0.0,0.0,0.0,0.0,1.4689,1.4342,1.4021,1.3686,1.3353,1.3307,1.3593,1.36,1.3746,1.4082,1.4088,1.4573,1.5455,1.5455,1.6034,1.709,1.806,1.859,1.8718,0.0,1.859,1.863,1.7536,1.7131,1.7302,1.7302,1.7302,1.7302,1.7131,1.705,1.705,0.0,0.0,0.0,0.0,0.0,0.0,0.0,0.0,0.0,0.0,0.0,0.0,0.0,0.0,0.0,0.0,0.0,0.0,0.0,0.0,0.0,-0.5599,-0.5923,-0.6329,-0.6789,-0.7053,-0.7521,-0.8178,-0.8292,-0.8137,-0.7767,-0.7244,-0.6499,-0.5584,-0.5263,-0.4897,-0.4495,-0.4339,-0.4056,-0.3675,0.0,0.0,0.0,0.0,0.0,0.0,0.0,0.0,0.0,0.0,0.1409,0.1609,0.1707,0.0,0.0,0.0,0.0,0.0,0.1704,0.2721,0.3936,0.4779,0.5945,0.6946,0.7273,0.0,0.0,0.0,0.0,0.0,0.0,0.0,0.0,0.0,0.0,0.0,0.0,0.0,0.0,0.0,0.0,0.0,0.0,0.0,1.475,1.4322,1.4015,1.3647,1.3186,1.2879,1.2852,1.3146,1.332,1.3824,1.4721,1.4892,1.5213,1.5703,1.6273,1.7131,1.823,1.8758,1.9323,1.9835,0.0,1.9323,1.9766,1.8669,1.855,1.9067,1.9067,1.9067,1.9027,1.843,1.823,1.823,0.0,0.0,0.0,0.0,0.0,0.0,0.0,0.0,0.0,0.0,0.0,0.0,0.0,0.0,0.0,0.0,0.0,0.0,0.0,0.0,-0.5255,-0.5692,-0.594,-0.632,-0.681,-0.7146,-0.7602,-0.8166,-0.8277,-0.8008,-0.7391,-0.6707,-0.6092,-0.5566,-0.5306,-0.4999,-0.4666,-0.4565,-0.4288,-0.387,0.0,0.0,0.0,0.0,0.0,0.0,0.0,0.0,0.0,0.0,0.0,0.0,0.0,0.0,0.0,0.1317,0.1375,0.1534,0.1887,0.2978,0.4228,0.5136,0.0,0.7162,0.7835,0.8352,0.0,0.0,0.0,0.0,0.0,0.0,0.0,0.0,0.0,0.0,0.0,0.0,0.0,0.0,0.0,0.0,0.0,1.4529,1.4222,1.4001,1.3641,1.3233,1.2811,1.2465,1.255,1.3113,1.3322,1.4088,1.5447,1.5941,1.6273,1.647,1.7293,1.831,1.9362,1.9362,1.9805,2.0557,1.9717,1.9844,2.0527,1.9717,1.9844,2.0605,2.0605,2.0605,2.0489,1.9678,1.9362,1.9362,0.0,0.0,0.0,0.0,0.0,0.0,0.0,0.0,0.0,0.0,0.0,0.0,0.0,0.0,0.0,0.0,0.0,0.0,0.0,0.0,-0.5221,-0.5676,-0.5729,-0.6192,-0.7144,-0.7738,-0.8229,-0.8662,-0.8667,-0.8133,-0.7112,-0.6565,-0.6021,-0.5479,-0.5034,-0.4856,-0.4868,-0.4682,-0.4325,-0.3882,-0.3596,0.0,0.0,0.0,0.0,0.0,0.0,0.0,0.0,0.0,0.0,0.0,0.0,0.0,0.1312,0.1366,0.1475,0.1681,0.2154,0.3128,0.4204,0.5014,0.5943,0.0,0.8562,0.8851,0.0,0.9692,0.0,0.0,0.0,0.0,0.0,0.0,0.0,0.0,0.0,0.0,0.0,0.0,0.0,0.0,1.4549,1.3999,1.366,1.3633,1.314,1.2831,1.279,1.2465,1.2841,1.4043,1.4118,1.4729,1.5918,1.704,1.7959,1.8758,1.8838,1.9441,2.0479,2.0479,2.0527,2.0605,2.0527,2.0527,2.0605,2.0527,2.0518,2.0605,2.0605,2.0605,2.0605,2.0518,2.0479,2.0479,0.0,0.0,0.0,0.0,0.0,0.0,0.0,0.0,0.0,0.0,0.0,0.0,0.0,0.0,0.0,0.0,0.0,0.0,0.0,-0.5169,-0.5349,-0.5561,-0.5938,-0.6357,-0.6821,-0.7412,-0.8087,-0.8822,-0.8039,-0.7534,-0.7252,-0.6015,-0.5535,-0.5721,-0.4955,-0.481,-0.5128,-0.4848,-0.4557,-0.4243,-0.3853,-0.3062,0.0,0.0,0.0,0.0,0.0,0.0,0.0,0.0,0.1076,0.1185,0.1102,0.1185,0.1342,0.159,0.1708,0.1884,0.231,0.3629,0.4976,0.5408,0.6501,0.0,0.0,0.9769,1.0262,1.062,1.1196,0.0,0.0,0.0,0.0,0.0,0.0,0.0,0.0,0.0,0.0,0.0,0.0,0.0,1.3721,1.3507,1.3293,1.31,1.2699,1.2726,1.335,1.3086,1.3524,1.4784,1.4962,1.5618,1.6729,1.739,1.82,1.9193,1.9193,1.9381,1.9822,2.0039,2.0156,2.0176,2.0488,2.0605,2.0605,2.0605,2.0605,2.0605,2.0605,2.0605,2.0605,2.0605,2.0605,2.0605,0.0,0.0,0.0,0.0,0.0,0.0,0.0,0.0,0.0,0.0,0.0,0.0,0.0,0.0,0.0,0.0,0.0,0.0,-0.5042,-0.5232,-0.5374,-0.5475,-0.5839,-0.6188,-0.651,-0.6841,-0.7506,-0.8451,-0.7421,-0.6888,-0.6844,-0.571,-0.5355,-0.5647,-0.5009,-0.4905,-0.5189,-0.4973,-0.4721,-0.4427,-0.4025,-0.3262,0.0,0.0,0.0,0.0,0.0,0.0,0.0,0.0,0.1111,0.1198,0.122,0.1272,0.1395,0.1761,0.2007,0.2263,0.2617,0.4111,0.5599,0.0,0.0,0.0,0.9481,1.0348,1.1075,1.1465,1.1929,0.0,0.0,0.0,0.0,0.0,0.0,0.0,0.0,0.0,0.0,0.0,0.0,1.3863,1.4052,1.3944,1.3729,1.3508,1.3322,1.3367,1.3757,1.3696,1.4223,1.5401,1.5611,1.6279,1.7426,1.7676,1.815,1.8887,1.8887,1.9023,1.9297,1.959,1.9717,1.9736,2.0166,2.04,2.041,2.0546,2.0605,2.0605,2.0605,2.0605,2.0605,2.0605,2.0605,2.0586,0.0,0.0,0.0,0.0,0.0,0.0,0.0,0.0,0.0,0.0,0.0,0.0,0.0,0.0,0.0,0.0,0.0,0.0,-0.4976,-0.5128,-0.5264,-0.5399,-0.5334,-0.5614,-0.6269,-0.6096,-0.6488,-0.7497,-0.6967,-0.6357,-0.5718,-0.577,-0.5574,-0.5205,-0.5198,-0.5123,-0.5011,-0.5086,-0.483,-0.4377,-0.4115,-0.3399,-0.2469,0.0,0.0,0.0,0.0,0.0,0.0,0.0,0.1026,0.1207,0.1275,0.1358,0.1481,0.1887,0.2378,0.2874,0.3148,0.4524,0.0,0.0,0.0,0.0,0.9938,1.0526,1.1194,1.2111,0.0,0.0,0.0,0.0,0.0,0.0,0.0,0.0,0.0,0.0,0.0,0.0,0.0,1.4682,1.5867,1.5495,1.5119,1.5013,1.5119,1.4798,1.3958,1.4285,1.4942,1.5896,1.5896,1.6575,1.7964,1.8008,1.8008,1.8008,1.8008,1.8457,1.9277,1.9277,1.9277,1.9307,1.9727,1.9902,1.9941,2.0381,2.0595,2.0605,2.0605,2.0605,2.0605,2.0605,2.0605,2.0537,0.0,0.0,0.0,0.0,0.0,0.0,0.0,0.0,0.0,0.0,0.0,0.0,0.0,0.0,0.0,0.0,0.0,0.0,-0.5182,-0.534,-0.5412,-0.5399,-0.5334,-0.5301,-0.531,-0.5303,-0.5884,-0.7075,-0.6532,-0.6321,-0.6389,-0.5658,-0.5464,-0.5735,-0.5313,-0.5267,-0.5485,-0.5316,-0.5074,-0.4803,-0.4475,-0.3826,-0.3008,0.0,0.0,0.0,0.0,0.0,0.0,0.0,0.0,0.0,0.1257,0.1599,0.198,0.2109,0.2846,0.3701,0.4021,0.0,0.0,0.0,0.0,0.0,0.0,1.1275,0.0,0.0,0.0,0.0,0.0,0.0,0.0,0.0,0.0,0.0,0.0,0.0,0.0,0.0,0.0,1.413,1.4502,1.4391,1.4269,1.4243,1.4032,1.4204,1.4867,1.4816,1.5286,1.6436,1.6764,1.7158,1.7568,1.7861,1.8008,1.8008,1.8008,1.8144,1.8398,1.8691,1.8792,1.8822,1.9287,1.9473,1.9502,1.9932,2.0283,2.0605,2.0605,2.0605,2.0605,2.0605,2.041,2.0088,0.0,0.0,0.0,0.0,0.0,0.0,0.0,0.0,0.0,0.0,0.0,0.0,0.0,0.0,0.0,0.0,0.0,0.0,0.0,-0.5318,-0.539,-0.5255,-0.5223,-0.5049,-0.4666,-0.4724,-0.5192,-0.6065,-0.5937,-0.6027,-0.6334,-0.5787,-0.5748,-0.6093,-0.5602,-0.5544,-0.5805,-0.553,-0.5187,-0.4789,-0.4617,-0.3945,-0.3018,0.0,0.0,0.0,0.0,0.0,0.0,0.0,0.0,0.0,0.1172,0.1561,0.2005,0.2185,0.3083,0.409,0.454,0.0,0.0,0.0,0.0,0.0,0.0,0.0,0.0,0.0,0.0,0.0,0.0,0.0,0.0,0.0,0.0,0.0,0.0,0.0,0.0,0.0,0.0,1.4607,1.4982,1.5006,1.4945,1.4786,1.473,1.4881,1.5331,1.5349,1.5787,1.6687,1.695,1.7207,1.7383,1.7637,1.7764,1.7764,1.7588,1.7642,1.8018,1.8237,1.8354,1.8373,1.8838,1.9228,1.9561,1.9814,2.0166,2.0605,2.0605,2.0605,2.0605,2.0605,2.0503,2.0349,0.0,0.0,0.0,0.0,0.0,0.0,0.0,0.0,0.0,0.0,0.0,0.0,0.0,0.0,0.0,0.0,0.0,0.0,0.0,0.0,-0.5237,-0.5007,-0.5011,-0.4766,-0.4248,-0.4285,-0.4463,-0.4742,-0.5207,-0.5577,-0.5811,-0.6068,-0.6181,-0.6195,-0.592,-0.5834,-0.5882,-0.5671,-0.519,-0.4555,-0.4631,-0.3922,-0.2829,-0.2667,0.0,0.0,0.0,0.0,0.0,0.0,0.0,0.0,0.1032,0.1358,0.1732,0.2197,0.3162,0.4227,0.4856,0.0,0.0,0.0,0.0,0.0,0.0,0.0,0.0,0.0,0.0,0.0,0.0,0.0,0.0,0.0,0.0,0.0,0.0,0.0,0.0,0.0,1.5263,1.5647,1.6517,1.658,1.6445,1.6065,1.6377,1.6229,1.5449,1.5791,1.6191,1.657,1.6619,1.6865,1.7288,1.7337,1.7324,1.7314,1.6963,1.7145,1.7891,1.7939,1.7978,1.8037,1.8517,1.92,2.0003,2.0118,2.046,2.0867,2.0867,2.0867,2.0857,2.0817,2.0991,2.1074,0.0,0.0,0.0,0.0,0.0,0.0,0.0,0.0,0.0,0.0,0.0,0.0,0.0,0.0,0.0,0.0,0.0,0.0,0.0,0.0,-0.4888,-0.5001,-0.4564,-0.414,-0.3761,-0.3712,-0.3907,-0.4328,-0.4804,-0.5302,-0.5796,-0.5967,-0.5854,-0.5525,-0.5726,-0.5555,-0.5142,-0.5419,-0.5284,-0.4911,-0.5032,-0.4624,-0.3909,-0.3508,-0.3063,0.0,0.0,0.0,0.0,0.0,0.0,0.0,0.1026,0.1581,0.2116,0.2384,0.3593,0.5017,0.0,0.6794,0.0,0.0,0.0,0.0,0.0,0.0,0.0,0.0,0.0,0.0,0.0,0.0,0.0,0.0,0.0,0.0,0.0,0.0,0.0,1.4827,1.5144,1.5476,1.5664,1.5693,1.5654,1.5557,1.5644,1.5615,1.542,1.5498,1.5596,1.5693,1.6035,1.6281,1.6378,1.6699,1.6843,1.6843,1.7119,1.7158,1.6989,1.7363,1.7695,1.8061,1.9257,2.0097,2.0683,2.1786,2.2499,2.2898,2.2898,2.2898,2.2818,2.24,2.2062,2.164,0.0,0.0,0.0,0.0,0.0,0.0,0.0,0.0,0.0,0.0,0.0,0.0,0.0,0.0,0.0,0.0,0.0,0.0,0.0,0.0,-0.4688,-0.4756,-0.4274,-0.3853,-0.3565,-0.3331,-0.3458,-0.3962,-0.4371,-0.4752,-0.509,-0.5353,-0.5406,-0.5305,-0.5242,-0.5371,-0.5617,-0.5501,-0.5243,-0.4912,-0.4948,-0.4446,-0.3652,-0.3436,-0.3004,-0.2427,-0.1744,0.0,0.0,0.0,0.0,0.0,0.0,0.0,0.1915,0.2228,0.3212,0.441,0.0,0.0,0.0,0.0,0.0,0.0,0.0,0.0,0.0,0.0,0.0,0.0,0.0,0.0,0.0,0.0,0.0,0.0,0.0,0.0,1.4969,1.4773,1.4955,1.5029,1.4796,1.5176,1.5244,1.4806,1.5147,1.5322,1.5117,1.5303,1.5508,1.5723,1.5977,1.6095,1.6095,1.6299,1.6416,1.6416,1.6436,1.6612,1.695,1.7669,1.8205,1.8697,1.9851,2.0584,2.1062,2.2064,2.273,2.3131,2.3131,2.3276,2.3388,2.2601,2.2444,2.2411,0.0,0.0,0.0,0.0,0.0,0.0,0.0,0.0,0.0,0.0,0.0,0.0,0.0,0.0,0.0,0.0,0.0,0.0,0.0,0.0,0.0,-0.4229,-0.3898,-0.3623,-0.3386,-0.2989,-0.3066,-0.3616,-0.3943,-0.4048,-0.3988,-0.4581,-0.4891,-0.4933,-0.4533,-0.5016,-0.6068,-0.5424,-0.5053,-0.4894,-0.4751,-0.4071,-0.3147,-0.3111,-0.2719,-0.2125,-0.1709,-0.1352,-0.0933,-0.0181,0.0,0.0,0.0,0.0,0.1521,0.1947,0.2642,0.3519,0.0,0.0,0.0,0.0,0.0,0.0,0.0,0.0,0.0,0.0,0.0,0.0,0.0,0.0,0.0,0.0,0.0,0.0,0.0,0.0,0.0,1.4852,1.4717,1.4531,1.4143,1.4747,1.4864,1.4163,1.4767,1.5039,1.4687,1.5078,1.543,1.5752,1.5831,1.587,1.587,1.587,1.5969,1.6178,1.5899,1.6388,1.7527,1.8389,1.8924,1.9296,2.0441,2.1088,2.1394,2.2139,2.2788,2.321,2.321,2.3554,2.3874,2.2799,2.2875,2.3328,0.0,0.0,0.0,0.0,0.0,0.0,0.0,0.0,0.0,0.0,0.0,0.0,0.0,0.0,0.0,0.0,0.0,0.0,-0.3821,0.0,0.0,-0.3134,-0.306,-0.2988,-0.2889,-0.2559,-0.2666,-0.3274,-0.3539,0.0,0.0,0.0,0.0,-0.3559,-0.3441,-0.3967,-0.4894,-0.4402,-0.4624,-0.5276,-0.4812,-0.4277,-0.3722,-0.3273,-0.2865,-0.2443,-0.1688,-0.1356,-0.1129,-0.028,0.0067,0.0,0.0,0.0,0.1271,0.1848,0.2701,0.3707,0.0,0.0,0.0,0.0,0.0,0.0,0.0,0.0,0.0,0.0,0.0,0.0,0.0,0.0,0.0,0.0,0.0,0.0,0.0,0.0,0.0,1.4823,1.4453,1.4172,1.4114,1.4211,1.4231,1.4114,1.4211,1.425,1.4202,1.4639,1.4727,1.4377,1.4756,1.4979,1.4979,1.4979,1.5469,1.6433,1.7028,1.7803,1.8692,1.9229,1.9281,1.9086,2.1403,2.2202,2.193,2.3704,2.4748,2.5206,2.5206,2.5586,2.5958,2.4835,2.4471,2.4322,0.0,0.0,0.0,0.0,0.0,0.0,0.0,0.0,0.0,0.0,0.0,0.0,0.0,0.0,0.0,-0.2944,-0.3101,-0.3249,-0.3456,-0.3598,-0.3403,-0.2816,-0.2925,-0.2897,-0.2641,-0.2414,-0.2547,-0.3039,-0.3486,0.0,0.0,-0.3545,-0.357,0.0,0.0,-0.3517,-0.4752,0.0,-0.4159,-0.5039,-0.4088,0.0,-0.3397,-0.2864,-0.2406,-0.187,-0.0575,-0.0485,-0.0747,0.0693,0.0753,0.0286,0.0672,0.0,0.0,0.0,0.2408,0.0,0.0,0.0,0.0,0.0,0.0,0.0,0.0,0.0,0.0,0.0,0.0,0.0,0.0,0.0,0.0,0.0,0.0,0.0,0.0,0.0,0.0,1.4072,1.3896,1.3691,1.3457,1.3831,1.3909,1.3467,1.3841,1.4007,1.3773,1.4163,1.4309,1.4114,1.4561,1.4668,1.4424,1.5303,1.6199,1.7118,1.7841,1.8436,1.8808,1.9775,2.0005,1.9737,2.1656,2.2335,2.2242,2.3735,2.4494,2.4707,2.4707,2.5046,2.541,2.4261,2.4048,2.4179,0.0,0.0,0.0,0.0,0.0,0.0,0.0,0.0,0.0,0.0,0.0,0.0,0.0,0.0,0.0,0.0,-0.2778,-0.2966,-0.314,-0.3398,-0.326,-0.2629,-0.2721,-0.2677,-0.2401,-0.2247,-0.2397,-0.2854,0.0,0.0,-0.2782,-0.3302,-0.3194,0.0,-0.2226,-0.3026,0.0,0.0,0.0,0.0,0.0,0.0,0.0,0.0,0.0,-0.1136,0.0661,0.0,0.0,0.0,0.0,0.0,0.0,0.0,0.0,0.0,0.0,0.0,0.0,0.0,0.0,0.0,0.0,0.0,0.0,0.0,0.0,0.0,0.0,0.0,0.0,0.0,0.0,0.0,0.0,0.0,0.0,0.0,0.0,1.3506,1.3408,1.3223,1.2935,1.3447,1.3555,1.2954,1.3599,1.3817,1.3359,1.386,1.4116,1.4033,1.446,1.46,1.4401,1.6024,1.7126,1.7686,1.8564,1.8992,1.9004,2.0026,2.0429,2.0398,2.1737,2.2309,2.2385,2.3376,2.3866,2.4004,2.4004,2.4343,2.4675,2.3684,2.3597,2.3916,0.0,0.0,0.0,0.0,0.0,0.0,0.0,0.0,0.0,0.0,0.0,0.0,-0.1083,-0.1371,-0.1781,-0.2443,-0.2753,-0.2932,-0.3011,-0.2916,-0.2692,-0.2333,-0.2089,0.0,-0.2123,-0.1928,-0.2109,0.0,0.0,0.0,-0.2725,-0.3567,-0.3545,-0.2729,-0.1653,-0.2198,-0.383,0.0,0.0,0.0,0.0,0.0,0.0,0.0,0.0,0.0,0.0,0.0,0.0,0.0,0.0,0.0,0.0,0.0,0.0,0.0,0.0,0.0,0.0,0.0,0.0,0.0,0.0,0.0,0.0,0.0,0.0,0.0,0.0,0.0,0.0,0.0,0.0,0.0,0.0,0.0,0.0,0.0,0.0,1.3506,1.3154,1.2925,1.2905,1.2944,1.2954,1.2905,1.346,1.3566,1.2959,1.3869,1.4209,1.3839,1.4209,1.4676,1.5242,1.6968,1.7849,1.7901,1.9151,1.9747,1.9747,1.981,2.0162,2.0738,2.1816,2.2309,2.2347,2.2907,2.3471,2.4004,2.4004,2.4343,2.4713,2.4167,2.3966,2.3916,0.0,0.0,0.0,0.0,0.0,0.0,0.0,0.0,0.0,0.0,0.0,0.0,0.0,-0.0864,-0.1316,-0.1988,-0.2539,-0.2804,-0.2741,-0.2983,-0.2802,-0.2077,-0.2192,-0.2229,-0.2101,-0.1991,-0.2294,0.0,0.0,-0.348,-0.3798,-0.4243,-0.4176,-0.365,-0.269,-0.2651,-0.3209,-0.1408,0.0,0.0,0.0,0.0,0.0,0.0,0.0,0.0,0.0,0.0,0.0,0.0,0.0,0.0,0.0,0.0,0.0,0.0,0.0,0.0,0.0,0.0,0.0,0.0,0.0,0.0,0.0,0.0,0.0,0.0,0.0,0.0,0.0,0.0,0.0,0.0,0.0,0.0,0.0,0.0,0.0,1.3105,1.2993,1.2905,1.2905,1.3238,1.3481,1.3481,1.4037,1.4294,1.4071,1.4399,1.4527,1.4376,1.4764,1.5439,1.6449,1.6787,1.734,1.8105,1.8909,1.9284,1.9296,1.9648,2.0313,2.1245,2.1606,2.1983,2.2347,2.2882,2.3233,2.3409,2.3409,2.3534,2.3684,2.3484,2.3409,2.3384,0.0,0.0,0.0,0.0,0.0,0.0,0.0,0.0,0.0,0.0,0.0,0.0,0.0,0.0,-0.1037,-0.196,-0.2479,-0.2744,-0.2704,-0.2945,-0.2758,-0.1996,-0.2196,-0.2236,-0.2032,-0.1951,-0.228,0.0,0.0,0.0,0.0,-0.4753,-0.4728,-0.4277,-0.3806,-0.3496,0.0,0.0,0.0,-0.2545,0.0,0.0,0.1102,0.0,0.0,0.0,0.0,0.0,0.0,0.0,0.0,0.0,0.0,0.0,0.0,0.0,0.0,0.0,0.0,0.0,0.0,0.0,0.0,0.0,0.0,0.0,0.0,0.0,0.0,0.0,0.0,0.0,0.0,0.0,0.0,0.0,0.0,0.0,0.0,1.3176,1.32,1.3286,1.3478,1.3873,1.4097,1.4097,1.4652,0.0,1.4698,1.4903,1.4994,1.4994,1.5453,1.6091,1.6893,1.6782,1.7123,1.794,1.8657,1.9008,1.902,1.956,2.0313,2.1257,2.1405,2.1907,2.2594,2.2957,2.3108,2.3108,2.3108,2.3108,2.3108,2.3108,2.3108,2.3108,0.0,0.0,0.0,0.0,0.0,0.0,0.0,0.0,0.0,0.131,0.0,0.0,0.0,0.0,0.0,-0.237,-0.2611,-0.2742,-0.286,-0.2755,-0.2502,-0.2099,-0.202,-0.1947,-0.1897,-0.1754,-0.2054,-0.2781,-0.2932,-0.3328,-0.4005,0.0,-0.5134,-0.4538,-0.4851,-0.4627,-0.3928,0.0,-0.2166,-0.2436,0.0,0.3522,0.2493,0.0,0.0,0.0,0.5291,0.4909,0.0,0.0,0.0,0.0,0.0,0.0,0.0,0.0,0.0,0.0,0.0,0.0,0.0,0.0,0.0,0.0,0.0,0.0,0.0,0.0,0.0,0.0,0.0,0.0,0.0,0.0,0.0,0.0,0.0,0.0,0.0,0.0,1.3815,1.405,1.4629,1.4732,1.4721,1.4721,1.5276,1.5365,1.4766,1.5298,1.5632,1.5632,1.6182,1.65,1.65,1.7074,1.7385,1.7423,1.8456,1.8983,1.902,1.956,2.0125,2.0729,2.1257,2.2083,2.3058,2.3095,2.3108,2.3108,2.3108,2.3095,2.3083,2.3095,2.3095,2.3083,0.0,0.0,0.0,0.0,0.0,0.0,0.0,0.1395,0.1567,0.0,0.0,0.0,0.0528,-0.0532,-0.1463,-0.2158,-0.2508,-0.257,-0.227,-0.2356,-0.2171,-0.1623,-0.1485,-0.1501,-0.1686,-0.1509,-0.1751,-0.2438,-0.2674,-0.3026,-0.3505,-0.437,-0.4837,0.0,-0.4621,-0.4554,-0.4525,-0.2699,0.0,0.0,0.122,0.2568,0.0,0.0,0.0,0.0,0.0,0.4061,0.3974,0.0,0.63,0.8655,0.0,0.0,0.0,0.0,0.0,0.0,0.6488,0.0,0.0,0.0,0.0,0.0,0.0,0.0,0.0,0.0,0.0,0.0,0.0,0.0,0.0,0.0,0.0,0.0,0.0,0.0,0.0,0.0,1.419,1.4514,1.4675,1.5096,1.5343,0.0,1.5908,1.6173,1.602,1.6151,1.6238,1.6238,1.6402,1.65,1.65,1.6672,1.6974,1.741,1.8091,1.8619,1.902,1.956,2.0125,2.0704,2.0855,2.132,2.2008,2.2782,2.3108,2.3108,2.3108,2.2857,2.2556,2.2957,2.2844,2.2569,0.0,0.0,0.0,0.0,0.0,0.0,0.1378,0.1577,0.1761,0.0,0.0,0.0,0.0297,-0.0573,-0.1307,-0.1849,-0.1928,-0.1885,-0.1724,-0.1873,-0.1765,-0.1332,-0.1354,-0.1393,-0.1477,-0.1331,-0.1558,-0.217,-0.2443,-0.281,-0.3277,-0.4017,-0.4402,-0.4466,0.0,0.0,0.0,0.0,0.0,0.0,0.1425,0.0,0.0,0.4473,0.456,0.0,0.0,0.0,0.4619,0.4651,0.6062,0.0,0.0,0.0,0.0,0.0,0.0,0.0,0.0,0.0,0.0,0.0,0.0,0.0,1.007,1.0643,1.1084,0.0,0.0,0.0,0.0,0.0,0.0,0.0,0.0,0.0,0.0,0.0,0.0,0.0,1.4541,1.4933,1.541,1.5754,1.5986,1.5986,1.6303,1.65,1.65,1.65,1.65,1.65,1.65,1.65,1.65,1.65,1.6685,1.7024,1.7827,1.8367,1.8682,1.9459,1.9987,2.0352,2.0591,2.088,2.1245,2.2356,2.2667,2.2443,2.2669,2.2447,2.2008,2.2334,2.2397,2.2293,0.0,0.0,0.0,0.0,0.0,0.0,0.1537,0.176,0.1931,0.0,0.1589,0.0963,-0.0036,-0.0364,-0.0784,-0.1447,-0.1142,-0.1008,-0.1206,-0.1323,-0.1325,-0.1179,-0.1341,-0.1393,-0.1279,-0.1168,-0.137,-0.1885,-0.2128,-0.2505,-0.3008,-0.3651,-0.3781,-0.3498,0.0,0.0,0.0,0.0,0.0,-0.0639,0.2205,0.3618,0.0,0.0,0.6543,0.0,0.5286,0.5267,0.551,0.5752,0.5457,0.0,0.0,0.0,0.0,0.0,0.6201,0.0,0.0,0.0,0.0,0.0,0.0,0.0,1.0175,1.0728,1.1004,1.0587,0.0,0.0,0.0,0.0,0.0,0.0,0.0,0.0,0.0,0.0,0.0,0.0,1.4725,1.5199,1.6219,1.6312,1.6337,1.64,1.6463,1.65,1.65,1.65,1.65,1.65,1.65,1.65,1.65,1.65,1.6525,1.66,1.7639,1.8179,1.8329,1.9284,1.9774,1.9926,2.047,2.0751,2.0882,2.1982,2.2107,2.1643,2.222,2.2096,2.1642,2.1705,2.197,2.2287,0.0,0.0,0.0,0.0,0.0,0.0,0.0,0.1917,0.208,0.2134,0.1465,0.0801,0.0255,-0.0273,-0.066,-0.0861,-0.0992,-0.0941,-0.0671,-0.0688,-0.0773,-0.0959,-0.0588,-0.0622,-0.1128,-0.0815,-0.0797,-0.1108,-0.1278,-0.1462,-0.1678,-0.2192,-0.2534,-0.2725,0.0,0.0,0.0,0.0,0.0,-0.0108,0.0835,0.0,0.4258,0.5077,0.5159,0.4894,0.5157,0.5303,0.5722,0.0,0.7592,0.6134,0.0,0.0,0.0,0.0,0.0,0.0,0.0,0.0,0.0,0.0,0.0,0.0,1.0746,1.1427,1.1811,0.0,0.0,0.0,0.0,0.0,0.0,0.0,0.0,0.0,0.0,0.0,0.0,0.0,0.0,1.498,1.5178,1.5211,1.5399,1.5819,1.6249,1.65,1.65,1.65,1.65,1.65,1.65,1.65,1.65,1.65,1.6748,1.7234,1.7461,1.8003,1.8845,1.9058,1.9685,2.061,2.0727,2.1053,2.1545,2.2269,2.2428,2.2295,2.2924,2.2852,2.2431,2.2866,2.2838,2.2674,0.0,0.0,0.0,0.0,0.0,0.0,0.0,0.2154,0.2156,0.2194,0.1505,0.0863,0.049,-0.0098,-0.0481,-0.0549,-0.0634,-0.0637,-0.0456,-0.0383,-0.0414,-0.0543,-0.0392,-0.0437,-0.0739,-0.0521,-0.0437,-0.0504,-0.0706,-0.0841,-0.0908,-0.1375,-0.164,-0.1707,-0.1806,0.0,0.0,0.0,0.0163,0.2049,0.1587,0.0,0.3491,0.4793,0.4924,0.4482,0.5084,0.5387,0.592,0.87,0.8126,0.0,0.0,0.9552,0.8084,0.0,0.8029,0.9081,0.0,0.0,0.0,1.0105,0.0,0.0,0.0,1.1622,1.1961,1.1449,0.0,0.0,0.0,0.0,0.0,0.0,0.0,0.0,0.0,0.0,0.0,0.0,1.4154,1.4614,1.4859,1.4896,1.5123,1.5655,1.5957,1.6233,1.6488,1.65,1.65,1.65,1.65,1.65,1.65,1.65,1.6638,1.6961,1.7272,1.7824,1.8613,1.8872,1.9666,2.0792,2.0792,2.1142,2.1748,2.2404,2.2606,2.2578,2.288,2.2644,2.2183,2.2438,2.2561,2.2641,0.2423,0.0,0.0,0.0,0.0,0.0,0.0,0.0,0.2359,0.2238,0.1632,0.1066,0.0644,0.0232,0.0,0.0,-0.0021,0.0063,0.0,0.0,0.0,-0.0167,-0.0281,-0.0357,-0.0403,-0.0303,-0.0185,-0.0084,-0.0286,-0.0403,-0.0471,-0.0804,-0.0927,-0.0873,-0.1051,0.0,0.0,0.0,0.0,0.3852,0.0,0.274,0.3482,0.5155,0.5433,0.5001,0.5458,0.5825,0.6453,0.8703,0.0,0.7431,1.0212,1.0127,0.0,0.0,0.0,0.0,0.0,0.0,0.0,0.0,0.0,1.0916,0.0,0.0,0.0,1.1832,0.0,0.0,0.0,0.0,0.0,0.0,0.0,0.0,0.0,0.0,0.0,0.0,1.3821,1.4025,1.4644,1.4733,1.4959,1.5512,1.563,1.5932,1.6463,1.65,1.65,1.65,1.65,1.65,1.65,1.6595,1.6659,1.6659,1.7259,1.7813,1.8352,1.8773,1.9696,2.0954,2.0829,2.1267,2.2095,2.2528,2.2773,2.2865,2.2805,2.2488,2.2072,2.2072,2.2362,2.273,0.3224,0.2705,0.0,0.0,0.0,0.0,0.0,0.0,0.2969,0.2356,0.1895,0.0,0.0,0.0,0.0,0.0,0.0,0.0,0.0378,0.0,0.0,0.0,0.0,0.0,-0.0387,-0.0168,-0.0034,-0.0017,0.0017,-0.0084,-0.0319,-0.0201,-0.0345,0.0,-0.0561,0.0,0.0,0.0,0.1362,0.0,0.3001,0.4291,0.0,0.6155,0.6731,0.7494,0.6992,0.7135,0.7853,0.0,0.944,0.8527,0.0,1.0914,1.0594,0.0,0.0,0.0,0.0,0.0,0.0,0.0,1.2839,0.0,0.0,0.0,1.2775,1.3031,0.0,0.0,0.0,0.0,0.0,0.0,0.0,0.0,0.0,0.0,0.0,0.0,1.2822,1.3023,1.3933,1.413,1.4412,1.4947,1.5437,1.5932,1.6463,1.65,1.65,1.65,1.65,1.65,1.65,1.6972,1.7209,1.7222,1.7754,1.831,1.8816,1.8884,1.9899,2.1563,2.0969,2.1743,2.334,2.2891,2.3016,2.3501,2.3495,2.3444,2.3384,2.3384,2.3429,2.3555,0.3628,0.3439,0.0,0.0,0.0,0.0,0.0,0.0,0.3257,0.261,0.239,0.0,0.0,0.0,0.0,0.0,0.0,0.1079,0.0,0.0,0.0,0.0,0.0,0.0,0.0,0.0734,0.0694,0.0689,0.0605,0.0471,0.0286,0.0286,0.0121,0.0,0.0,0.0,0.303,0.0,0.0,0.0,0.0,0.0,0.0,0.6582,0.6219,0.7164,0.7386,0.7708,0.817,0.0,0.9046,0.0,0.0,0.0,0.0,0.0,0.0,0.0,0.0,0.0,0.0,0.0,0.0,0.0,1.3666,0.0,1.1972,0.0,0.0,0.0,0.0,0.0,0.0,0.0,1.2478,0.0,0.0,0.0,0.0,0.0,0.0,0.0,1.3262,1.3557,1.4001,1.4723,1.5231,1.5799,1.6411,1.6479,1.65,1.65,1.65,1.6659,1.6951,1.7188,1.7463,1.7767,1.7987,1.8388,1.8897,1.8897,1.9706,2.1136,2.123,2.1949,2.3092,2.3176,2.337,2.3595,2.3595,2.3595,2.3595,2.3595,2.3595,2.364,0.4148,0.0,0.0,0.0,0.0,0.0,0.0,0.0,0.0,0.0,0.0,0.0,0.1541,0.179,0.0,0.0,0.0,0.0925,0.0,0.0,0.1141,0.0,0.0,0.0,0.0,0.0,0.1564,0.1824,0.1359,0.1065,0.0944,0.083,0.0611,0.0317,0.0,0.1978,0.4053,0.0,0.0,0.8572,0.8116,0.8944,1.0176,0.7571,0.6885,0.7406,0.8046,0.8487,0.88,0.9003,0.9188,0.0,1.1013,0.0,0.0,0.0,0.0,0.0,1.3816,0.0,0.0,0.0,0.0,0.0,0.0,0.0,0.0,0.0,0.0,0.0,0.0,0.0,0.0,0.0,0.0,1.2119,0.0,0.0,0.0,0.0,0.0,0.0,0.0,1.295,1.3492,1.4406,1.4914,1.5504,1.629,1.6573,1.671,1.671,1.6858,1.7126,1.7524,1.7666,1.7927,1.8322,1.8477,1.8727,1.9132,1.9132,1.9803,2.0991,2.1291,2.1994,2.2972,2.3236,2.3445,2.3595,2.3595,2.3595,2.3595,2.3595,2.3595,2.3595,0.4954,0.4487,0.0,0.0,0.0,0.0,0.0,0.0,0.0,0.0,0.0,0.0,0.0,0.0,0.0,0.0,0.0,0.1621,0.0359,0.0,0.1992,0.0,0.0,0.2435,0.0,0.0,0.0,0.0,0.2253,0.1631,0.1575,0.1501,0.116,0.0627,0.133,0.2111,0.2876,0.334,0.4427,0.591,0.6706,0.7229,0.7736,0.0,0.9943,0.9405,0.9433,0.0,0.0,1.0235,1.0543,0.0,0.0,0.0,0.0,0.0,0.0,0.0,0.0,0.0,0.0,1.58,0.0,0.0,0.0,0.0,1.4752,0.0,0.0,0.0,0.0,0.0,0.0,0.0,0.0,0.0,0.0,0.0,0.0,0.0,0.0,0.0,0.0,1.2317,1.2849,1.3851,1.4361,1.5102,1.616,1.69,1.7271,1.7271,1.7787,1.8066,1.8066,1.8593,1.8855,1.8874,1.9406,1.9657,1.9672,1.9672,2.0408,2.1635,2.1006,2.1814,2.3535,2.2957,2.3077,2.3595,2.3595,2.3595,2.3595,2.3595,2.3595,2.3595,0.0,0.0,0.0,0.0,0.0,0.0,0.0,0.4981,0.0,0.0,0.0,0.0,0.0,0.0,0.2222,0.0,0.0,0.1077,0.0167,0.1181,0.0,0.0,0.0,0.3151,0.0,0.0,0.0,0.0,0.0,0.2662,0.2445,0.1943,0.1469,0.1088,0.0,0.2325,0.0,0.0,0.0,0.0,0.0,0.9935,1.0035,0.0,0.935,0.8772,0.9702,1.0147,0.0,1.0668,1.0867,1.1147,1.203,1.2881,1.3725,1.4369,1.5718,1.6805,0.0,0.0,1.7272,1.619,0.0,0.0,0.0,0.0,0.0,0.0,0.0,0.0,0.0,0.0,0.0,0.0,0.0,0.0,0.0,0.0,0.0,0.0,0.0,0.0,0.0,0.0,1.2682,1.3384,1.3836,1.4509,1.5484,1.5936,1.6522,1.7278,1.7483,1.7907,1.8612,1.8817,1.908,1.9424,1.9603,1.9708,1.9708,1.9708,2.0183,2.1051,2.1276,2.1979,2.3017,2.3227,2.3415,2.3595,2.3595,2.3595,2.3595,2.3595,2.3595,2.3659,0.5306,0.0,0.0,0.0,0.0,0.0,0.0,0.0,0.0,0.0,0.4368,0.0,0.3148,0.0,0.2479,0.0,0.0987,0.0844,0.0429,0.0916,0.0,0.2287,0.2928,0.0,0.0,0.0,0.0,0.0,0.0,0.3682,0.3479,0.2609,0.2045,0.176,0.0,0.2717,0.3952,0.0,0.7198,0.0,0.0,1.1296,0.0,0.0,0.9751,0.9002,0.0,1.0409,1.0592,1.0905,1.1234,1.1708,1.2728,1.3464,1.4093,1.5094,1.63,1.7163,1.6453,1.7079,0.0,1.64,1.6653,0.0,1.6306,0.0,0.0,0.0,0.0,0.0,0.0,0.0,0.0,0.0,0.0,0.0,0.0,1.0786,0.0,0.0,0.0,0.0,0.0,0.0,1.2373,1.2854,1.3338,1.4138,1.5311,1.5878,1.6698,1.782,1.8046,1.8496,1.9188,1.9188,1.9369,1.9708,1.9708,1.9708,1.9708,1.9708,2.0202,2.1081,2.1515,2.2188,2.3062,2.343,2.3595,2.3595,2.3595,2.3595,2.3595,2.3595,2.3709,2.3948,0.0,0.0,0.0,0.0,0.6235,0.0,0.0,0.0,0.4795,0.0,0.4688,0.4249,0.414,0.3667,0.2727,0.1118,0.0939,0.0,0.1113,0.0894,0.0,0.0,0.3401,0.4311,0.57,0.0,0.0,0.0,0.0,0.0,0.4657,0.3492,0.286,0.2678,0.2872,0.0,0.4058,0.536,0.6407,0.7424,1.0118,1.1198,1.1258,1.1824,1.1256,1.0175,1.0291,1.0611,1.1008,1.1057,1.1719,1.271,1.377,1.3716,1.3574,1.5042,1.551,1.5496,1.5267,1.6754,1.8015,1.6588,1.7483,0.0,0.0,0.0,1.7652,0.0,0.0,0.0,0.0,0.0,0.0,0.0,0.0,0.0,0.0,0.0,0.0,0.0,0.0,0.0,0.0,1.1741,1.1931,1.2245,1.2877,1.3944,0.0,1.6562,1.7637,1.8783,1.9372,1.9672,1.9708,1.9708,1.9708,1.9708,1.9708,1.9708,1.9708,1.9711,2.0464,2.1754,2.1759,2.2495,2.3681,2.3681,2.3681,2.3681,2.3681,2.3681,2.3681,2.3659,2.4006,2.4552,0.638,0.6801,0.6971,0.0,0.6246,0.6067,0.0,0.0,0.0,0.0,0.4982,0.4436,0.4407,0.3492,0.27,0.2267,0.1416,0.0,0.0,0.0,0.0,0.3296,0.4133,0.5048,0.6054,0.6471,0.0,0.7735,0.0,0.0,0.5759,0.442,0.3767,0.3715,0.0,0.0,0.5263,0.6629,0.8269,1.0031,1.0724,1.1119,1.1421,0.0,1.1864,1.1113,1.0893,1.0905,1.1102,1.1872,1.2546,1.3201,1.389,1.4262,1.4538,1.493,1.5551,1.6184,1.6631,1.7303,1.7898,1.7998,1.8664,1.9163,0.0,0.0,0.0,0.0,0.0,0.0,0.0,0.0,0.0,0.0,0.0,0.0,0.0,0.0,0.0,1.1703,0.0,0.0,0.0,1.1578,1.1678,1.1904,1.2228,1.2891,1.4015,0.0,1.6474,1.7679,1.8629,1.9299,1.9708,1.9708,1.9708,1.9708,1.9708,1.9708,1.9711,2.0017,2.0896,2.224,2.2595,2.3513,2.4776,2.4776,2.4776,2.4776,2.4776,2.4776,2.4736,2.4348,2.4792,2.5696,0.6718,0.0,0.0,0.6419,0.0,0.0,0.5466,0.0,0.0,0.5411,0.4682,0.0,0.448,0.3668,0.299,0.2719,0.2073,0.0,0.2265,0.0,0.0,0.3965,0.469,0.5428,0.6174,0.6856,0.0,0.8082,0.0,0.0,0.6556,0.5157,0.4504,0.4493,0.0,0.5181,0.0,0.7676,0.9696,1.1883,1.2009,1.2301,0.0,1.3409,1.313,1.2331,1.2353,1.2053,1.1778,1.2576,1.3209,1.3778,1.4556,1.4853,1.5031,1.5672,1.6079,1.6469,1.7263,1.7585,1.7863,1.8521,1.8919,1.9152,1.9152,1.9656,2.0005,0.0,1.9537,1.96,0.0,0.0,0.0,0.0,0.0,0.0,0.0,0.0,0.0,0.0,1.2136,0.0,1.1979,1.1943,1.1936,1.1936,1.2233,1.3035,1.4479,0.0,1.6403,1.8077,1.896,1.9777,2.0524,2.0273,2.0329,2.0744,2.0047,1.98,1.9965,2.0195,2.1181,2.271,2.2978,2.3903,2.5202,2.5202,2.5202,2.5202,2.5202,2.5548,2.5991,2.5686,2.5972,2.6576,0.0,0.0,0.0,0.0,0.0,0.0,0.0,0.5151,0.0,0.4842,0.0,0.4021,0.4569,0.3998,0.3417,0.2959,0.0,0.2895,0.3094,0.299,0.3509,0.4836,0.523,0.5733,0.6413,0.7284,0.0,0.0,0.0,0.0,0.7289,0.5848,0.5175,0.0,0.0,0.0,0.0,0.8585,1.0683,1.3058,1.3397,1.3825,1.4342,1.5005,1.4565,1.3641,1.4125,1.3634,1.2788,1.3327,1.3871,1.4475,1.5412,1.5477,1.5479,1.675,1.689,1.6817,1.7638,1.7903,1.8102,1.8687,1.8837,1.8837,1.8837,1.9324,1.9556,1.8811,1.9291,1.9949,2.021,0.0,0.0,0.0,0.0,0.0,0.0,0.0,0.0,0.0,0.0,0.0,0.0,1.2544,1.2407,1.2168,1.2544,1.3609,1.5448,0.0,1.6821,1.8994,1.9719,2.0627,2.1794,2.1019,2.1156,2.2114,2.054,1.9982,2.0399,2.0544,2.1568,2.3207,2.3373,2.4182,2.5411,2.5411,2.5411,2.5411,2.5508,2.6211,2.7193,2.7311,2.741,2.7549,0.0,0.0,0.0,0.0,0.0,0.6776,0.4682,0.5105,0.5523,0.5153,0.4443,0.4292,0.5154,0.426,0.3726,0.4085,0.3657,0.0,0.0,0.0,0.0,0.5891,0.6003,0.6528,0.7579,0.8091,0.8869,0.0,0.0,0.0,0.838,0.6812,0.0,0.0,0.0,0.0,0.9422,0.9612,0.0,1.3179,1.3168,1.3757,1.4675,1.5298,1.5111,1.4624,1.5204,1.4734,1.3905,1.4446,1.4989,1.5462,1.563,1.6248,1.6933,1.7188,1.7832,1.8487,1.8654,1.9012,1.9393,1.9513,1.9528,1.9528,1.9528,1.9871,2.015,2.0003,2.0393,2.0956,2.1533,0.0,0.0,0.0,0.0,0.0,0.0,0.0,0.0,0.0,0.0,1.5411,0.0,0.0,1.2532,1.2437,1.2662,1.3029,1.3566,0.0,1.6687,0.0,1.9364,2.0872,0.0,0.0,2.1008,2.2259,2.0857,2.0433,2.091,2.1843,2.2818,2.3819,2.4746,2.5648,2.6436,2.6436,2.6436,2.6503,2.7106,2.7477,2.7768,2.8426,2.905,2.9589,0.0,0.0,0.0,0.0,0.0,0.0,0.0,0.5773,0.0,0.4601,0.4411,0.4525,0.4992,0.4703,0.4596,0.4848,0.46,0.4557,0.4848,0.5168,0.5604,0.6179,0.6774,0.0,0.7891,0.8537,0.9508,1.082,0.0,0.0,0.9745,0.8075,0.0,0.0,0.0,0.9946,0.0,0.0,0.0,1.3835,1.4003,1.4515,1.5231,1.5842,1.5905,1.5718,1.6015,1.5786,1.5336,1.5319,1.55,1.5805,1.6358,1.6896,1.7415,1.7967,1.8496,1.8968,1.9244,1.9497,1.9708,1.9708,1.9708,1.9747,1.9965,2.0158,2.0433,2.0878,2.0991,2.1119,2.1471,2.1199,0.0,0.0,0.0,0.0,0.0,0.0,0.0,0.0,0.0,0.0,0.0,0.0,0.0,0.0,0.0,0.0,0.0,0.0,1.6546,0.0,0.0,0.0,2.2164,0.0,2.1538,2.2905,2.1776,2.1677,2.2525,2.3079,2.3851,2.4811,2.5359,2.6031,2.6725,2.7114,2.7283,2.7351,2.8129,2.867,2.9041,2.9431,3.004,3.0615,0.0,0.7451,0.0,0.0,0.7285,0.0,0.6479,0.6352,0.5802,0.4318,0.4521,0.4865,0.5002,0.5193,0.5351,0.548,0.548,0.548,0.548,0.6044,0.6371,0.6371,0.7342,0.7953,0.8077,0.8849,0.9935,0.0,0.0,0.0,1.0693,0.94,0.0,0.0,0.0,0.0,0.0,0.0,1.3765,1.467,1.4996,1.5382,1.5842,1.6315,1.65,1.65,1.65,1.65,1.6446,1.6152,1.6041,1.6199,1.7023,1.7463,1.7807,1.865,1.8987,1.9169,1.9584,1.9708,1.9711,1.9818,1.9836,1.9945,2.0348,2.0501,2.0765,2.146,2.1431,2.1291,2.1353,2.1147,0.0,0.0,0.0,0.0,0.0,0.0,0.0,0.0,0.0,0.0,1.6353,0.0,0.0,0.0,0.0,0.0,1.5066,0.0,0.0,0.0,0.0,2.0669,2.2259,0.0,2.2243,2.3818,2.2749,2.2867,2.4016,2.4182,2.4745,2.5609,2.5778,2.6251,2.6979,2.7553,2.7908,2.8128,2.8924,2.9583,3.0125,3.0294,3.07,3.1106,0.0,0.0,0.0,0.0,0.0,0.0,0.615,0.6266,0.616,0.5284,0.5208,0.5447,0.5998,0.5604,0.5524,0.6072,0.6114,0.6114,0.6114,0.6626,0.6915,0.6915,0.7558,0.8139,0.8614,0.9179,1.0069,0.0,0.0,1.1217,0.0,0.0,0.0,0.0,0.0,0.0,1.3868,1.3835,1.446,1.5491,1.553,1.5894,1.6423,1.6466,1.65,1.65,1.65,1.65,1.6573,1.699,1.7151,1.7184,1.7278,1.7967,1.8765,1.8874,1.9244,1.9639,1.969,1.9708,1.9782,2.0158,2.0246,2.0365,2.0829,2.1228,2.1506,2.1582,2.1913,2.218,2.2194,2.2549,2.2473,0.0,0.0,0.0,0.0,0.0,0.0,0.0,0.0,0.0,0.0,1.7666,0.0,0.0,1.4785,0.0,0.0,0.0,0.0,2.0961,2.0591,2.1987,2.543,2.3001,2.2841,2.4916,2.3387,2.3284,2.4478,2.5138,2.5493,2.5642,2.6302,2.7029,2.7705,2.7773,2.823,2.8959,2.9702,3.004,3.0192,3.0852,3.114,3.119,0.0,0.0,0.0,0.0,0.0,0.0,0.0,0.6888,0.6695,0.6361,0.6044,0.5937,0.6184,0.6279,0.6422,0.6662,0.6683,0.6683,0.6683,0.7217,0.753,0.753,0.839,0.8958,0.9179,0.9705,1.0732,0.0,0.0,0.0,0.0,0.0,1.3011,1.3314,1.3921,1.4758,1.5695,1.5527,1.572,1.6139,1.6139,1.6281,1.65,1.65,1.6689,1.6972,1.6972,1.7188,1.7483,1.7706,1.7565,1.7415,1.8066,1.8554,1.8968,1.9281,1.953,1.9708,1.9708,1.9708,1.98,2.0195,2.0297,2.05,2.1213,2.1476,2.1673,2.1957,2.218,2.2296,2.2296,2.2476,2.2624,2.2592,0.0,0.0,0.0,0.0,0.0,0.0,0.0,0.0,0.0,0.0,0.0,0.0,0.0,0.0,0.0,0.0,0.0,1.9953,0.0,2.2478,2.3436,2.3672,2.3926,2.4189,2.4365,2.4924,2.5828,2.6116,2.6251,2.6285,2.6573,2.7131,2.7841,2.8332,2.8975,2.9736,3.0463,3.0768,3.0801,3.1089,3.119,3.119,0.7103,0.0,0.7624,0.0,0.741,0.7432,0.7592,0.7268,0.7,0.7,0.6759,0.6542,0.6441,0.6774,0.7,0.7,0.7,0.7084,0.7259,0.7663,0.7974,0.8139,0.9019,0.0,0.9498,1.002,1.0964,1.2304,1.2803,0.0,0.0,0.0,1.4548,1.4923,1.5326,1.5966,1.6771,1.6576,1.65,1.65,1.65,1.6595,1.6731,1.6731,1.7076,1.7544,1.7544,1.7787,1.8125,1.8283,1.8086,1.7907,1.865,1.9006,1.9207,1.9584,1.9708,1.9708,1.9708,1.9782,1.9965,2.0399,2.0584,2.0878,2.1628,2.1809,2.1899,2.2223,2.2296,2.2296,2.2296,2.2296,2.2533,2.3245,0.0,0.0,0.0,0.0,0.0,0.0,2.1132,2.0676,2.1765,1.9924,0.0,0.0,0.0,0.0,0.0,0.0,0.0,0.0,0.0,0.0,2.3388,2.4622,2.4941,2.4326,2.5414,2.6201,2.6725,2.6911,2.7148,2.7385,2.7385,2.7791,2.8517,2.9093,2.9753,3.048,3.1004,3.119,3.1224,3.1427,3.1458,3.1423,0.7536,0.7554,0.7554,0.7429,0.7236,0.7164,0.7385,0.7179,0.7,0.7,0.7275,0.7348,0.7033,0.7,0.7,0.7,0.7,0.7259,0.7857,0.7891,0.8139,0.0,0.0,0.9498,0.9498,1.002,1.0518,1.0918,0.0,0.0,1.1883,1.3945,1.5003,1.5266,1.6583,1.6906,1.65,1.65,1.65,1.65,1.65,1.6816,1.7291,1.7291,1.7626,1.8086,1.8086,1.8086,1.8185,1.8708,1.8893,1.8874,1.8893,1.9262,1.969,1.9708,1.9708,1.9708,1.9708,2.0,2.0399,2.0878,2.1291,2.1703,2.218,2.2296,2.2296,2.2296,2.2296,2.2296,2.2296,2.2296,2.2519,2.3188,0.0,0.0,0.0,0.0,0.0,0.0,2.2098,2.2228,2.3081,2.177,0.0,0.0,0.0,0.0,0.0,0.0,0.0,2.4306,2.4659,0.0,2.7116,2.611,2.5711,2.598,2.6454,2.6691,2.6725,2.7452,2.823,2.8976,2.8976,2.9381,3.0074,3.0072,3.0531,3.119,3.119,3.119,3.1275,3.2022,3.2083,3.1911,0.7457,0.7343,0.717,0.7146,0.7082,0.706,0.7126,0.7055,0.7,0.7,0.7303,0.7531,0.7608,0.8019,0.8099,0.0,0.8206,0.8532,0.0,0.8777,0.9191,0.9629,1.0164,1.0593,1.0931,1.0798,1.1263,1.2396,0.0,0.0,1.528,1.5349,1.5642,1.6107,1.6523,1.6654,1.65,1.65,1.65,1.65,1.65,1.6816,1.7312,1.7312,1.7867,1.865,1.865,1.8874,1.9225,1.9387,1.9442,1.9442,1.9442,1.9566,1.9708,1.9708,1.9708,1.9708,1.9708,2.0,2.0416,2.0878,2.1291,2.1718,2.2194,2.2296,2.2296,2.2296,2.2296,2.2296,2.2296,2.2296,2.2533,2.3245,2.2449,0.0,2.3944,0.0,0.0,0.0,2.2433,2.1984,2.322,2.2526,0.0,0.0,0.0,0.0,0.0,0.0,0.0,0.0,2.4763,0.0,2.6118,2.6857,2.6974,2.6487,2.7147,2.774,2.8282,2.8501,2.8773,2.8993,2.8993,2.9414,3.0108,3.0108,3.0835,3.1995,3.2353,3.2796,3.3317,3.387,3.3986,3.3953,0.7752,0.7717,0.7641,0.7641,0.7482,0.7398,0.7599,0.7273,0.7209,0.778,0.783,0.8011,0.8582,0.9307,0.0,0.8284,0.8879,0.9283,0.9221,0.9695,1.0175,1.0646,1.0974,1.1407,1.1933,1.164,1.214,1.3476,1.3916,1.4924,1.6405,1.5854,1.5908,1.65,1.65,1.65,1.65,1.65,1.6616,1.6795,1.6795,1.7229,1.7907,1.7907,1.8438,1.9207,1.9207,1.9424,1.9708,1.9708,1.9708,1.9708,1.9708,1.9803,1.9892,1.9747,1.9818,1.9927,1.9927,2.0364,2.0846,2.115,2.1553,2.1943,2.2223,2.2296,2.2296,2.2296,2.2296,2.2296,2.2296,2.2296,2.2448,2.2919,2.2598,2.2762,2.4037,0.0,2.2499,0.0,0.0,0.0,0.0,2.3079,2.3279,0.0,0.0,0.0,0.0,0.0,2.2162,2.3667,2.5561,2.6537,2.6504,2.7707,2.7893,2.7131,2.7892,2.8805,2.9822,2.9551,2.9644,3.0048,3.0048,3.0412,3.1004,3.1129,3.1836,3.2869,3.3334,3.3903,3.4545,3.5101,3.526,3.52,0.829,0.8511,0.8695,0.8695,0.8275,0.8118,0.8622,0.7807,0.7652,0.9111,0.878,0.8811,0.9857,1.0693,1.0582,0.9026,0.0,0.0,1.0164,1.064,1.1158,1.1689,1.1755,1.2037,1.2648,1.2637,1.3108,1.4155,1.4597,1.5107,1.5654,1.5654,1.5952,1.65,1.65,1.6522,1.6552,1.6552,1.6879,1.7374,1.7374,1.7987,1.8893,1.8893,1.9225,1.9708,1.9708,1.9708,1.9708,1.9708,1.9708,1.9693,1.9729,2.0,2.0229,1.9856,2.0035,2.0348,2.0348,2.0959,2.1597,2.1597,2.1943,2.2296,2.2296,2.2296,2.2296,2.2296,2.2296,2.2296,2.2296,2.2296,2.231,2.2321,2.2321,2.2668,2.3653,2.2952,2.2601,0.0,0.0,0.0,2.2531,2.3484,2.4307,0.0,0.0,0.0,0.0,0.0,2.4693,2.523,2.6825,2.7775,2.8083,2.8514,2.8477,2.7976,2.8791,2.991,3.1215,3.0556,3.0855,3.1861,3.1861,3.2127,3.2609,3.2929,3.3369,3.388,3.4243,3.4689,3.519,3.5936,3.602,3.5899,0.8268,0.0,0.8695,0.8695,0.8594,0.8553,0.8675,0.8472,0.8531,0.9205,0.9332,0.9694,1.0508,1.0956,1.1118,1.0934,1.1274,1.1432,1.1253,1.1787,1.2292,1.272,1.3237,1.3718,1.4171,1.3883,1.4073,1.4796,1.5644,1.6151,1.6281,1.6281,1.6358,1.65,1.65,1.6731,1.7118,1.7118,1.7435,1.7907,1.7907,1.8322,1.8893,1.8893,1.9225,1.9708,1.9708,1.9708,1.9708,1.9708,1.9708,1.9747,2.0054,2.0212,2.028,2.0193,2.0482,2.0829,2.0829,2.1213,2.1597,2.1597,2.1943,2.2296,2.2296,2.2296,2.2296,2.2296,2.2296,2.2296,2.2296,2.2296,2.2377,2.256,2.2612,2.2651,2.2814,2.2694,2.2643,0.0,2.2876,2.2971,2.3014,2.3513,2.4311,0.0,0.0,2.629,2.7567,2.7823,2.7576,2.6791,2.6349,2.6979,2.8758,2.828,2.8549,2.9583,3.0635,3.1315,3.1661,3.1847,3.209,3.2315,3.2315,3.2753,3.3419,3.3493,3.4288,3.5492,3.5988,3.6608,3.7267,3.7855,3.8013,3.7982,0.8955,0.9255,0.9439,0.9439,0.9219,0.9139,0.9399,0.9019,0.9093,1.0211,1.007,1.0365,1.1621,1.1941,1.2217,1.2562,1.2602,1.2521,1.2301,1.304,1.3597,1.3812,1.4172,1.4608,1.5096,1.4909,1.5075,1.5699,1.623,1.65,1.6522,1.6752,1.6879,1.6879,1.7105,1.7394,1.7666,1.7666,1.7987,1.8477,1.8477,1.8798,1.9262,1.9262,1.9442,1.9708,1.9708,1.9708,1.9744,1.9909,1.9965,2.0052,2.0483,2.0748,2.0894,2.0894,2.107,2.1275,2.1275,2.1583,2.1913,2.1913,2.2106,2.2296,2.2296,2.2296,2.2296,2.2296,2.2296,2.2335,2.2463,2.2473,2.2577,2.2873,2.2759,2.2751,2.3163,2.2873,2.2894,2.3692,2.3601,2.3753,2.4462,2.4689,2.5181,2.6154,2.7212,0.0,2.8545,2.9689,2.9405,2.7355,2.7596,2.8073,2.8768,2.923,3.0231,3.1755,3.1987,3.2512,3.3213,3.3105,3.3165,3.3378,3.3378,3.3723,3.4312,3.4461,3.5389,3.6723,3.7152,3.7685,3.83,3.8578,3.8707,3.8707,0.9756,1.0098,1.0303,1.0303,0.9922,0.9775,1.0235,0.9572,0.9686,1.1489,1.1044,1.1227,1.2974,1.3271,1.3497,1.3901,1.3652,1.344,1.3361,1.4282,1.4835,1.4835,1.4926,1.522,1.572,1.5754,1.5986,1.65,1.65,1.6531,1.6637,1.7097,1.7353,1.7442,1.7907,1.8145,1.8224,1.8224,1.8535,1.9024,1.9024,1.9281,1.9708,1.9708,1.9708,1.9708,1.9764,1.98,1.9856,2.0278,2.0416,2.0483,2.0959,2.1322,2.1612,2.1688,2.1703,2.1703,2.1703,2.2003,2.2296,2.2296,2.2296,2.231,2.2349,2.236,2.236,2.2429,2.2443,2.2521,2.2721,2.2784,2.2955,2.3531,2.313,2.3128,2.4212,0.0,2.3554,2.5037,2.4938,2.5165,2.6246,2.636,2.659,2.7105,2.8936,2.988,2.955,3.1053,3.0722,2.808,2.9506,2.9859,2.8937,3.0691,3.2283,3.3684,3.308,3.3573,3.4992,3.4385,3.4313,3.4682,3.4555,3.4826,3.5398,3.555,3.6427,3.7701,3.7927,3.83,3.8707,3.8707,3.8707,3.8707,0.9549,0.996,1.0303,1.0303,1.0235,1.0205,1.0283,1.0436,1.0997,1.2204,1.2514,1.3086,1.4287,1.4448,1.4482,1.4549,1.4959,1.5003,1.4495,1.5072,1.5454,1.5454,1.5942,1.6272,1.6358,1.6358,1.6402,1.65,1.65,1.6731,1.7167,1.725,1.7544,1.7987,1.8066,1.8361,1.8779,1.8779,1.9095,1.9584,1.9584,1.9621,1.9708,1.9708,1.9708,1.9747,2.0072,2.021,2.0278,2.0747,2.0894,2.0959,2.1384,2.1536,2.1673,2.2077,2.2194,2.2194,2.2194,2.2237,2.2296,2.2296,2.2296,2.2363,2.2586,2.2634,2.2725,2.3002,2.3063,2.3075,2.3105,2.3117,2.3655,2.5303,2.4647,2.4312,2.5387,2.5431,2.5236,2.4843,2.5654,2.6596,2.7446,2.753,2.8109,2.9537,2.9965,3.0693,3.1887,3.2295,3.2106,3.1285,3.0644,3.051,3.0963,3.1864,3.2799,3.3701,3.3994,3.46,3.5497,3.5772,3.5934,3.5959,3.5231,3.575,3.7055,3.6428,3.7106,3.8524,3.8556,3.8627,3.8707,3.8707,3.8707,3.8707,0.9883,1.0137,1.0303,1.0303,1.0303,1.0303,1.0303,1.0925,1.1644,1.2404,1.3162,1.3916,1.463,1.4983,1.5186,1.5186,1.5732,1.5964,1.5678,1.592,1.6073,1.6073,1.6358,1.65,1.65,1.65,1.65,1.65,1.6795,1.7055,1.7312,1.7887,1.8302,1.8535,1.8836,1.9114,1.9332,1.9332,1.946,1.9708,1.9708,1.9708,1.9711,1.9929,2.0017,2.0087,2.0516,2.0682,2.0732,2.1181,2.1322,2.1399,2.184,2.1988,2.2017,2.2237,2.2296,2.2296,2.2296,2.2296,2.2296,2.2296,2.2398,2.255,2.2656,2.2848,2.3021,2.3165,2.32,2.3265,2.3444,2.3459,2.4076,2.5962,2.489,2.4556,2.6693,2.5977,2.5751,2.7066,2.7627,2.8381,2.9634,2.9744,3.0044,3.0779,3.1256,3.1983,3.3148,3.323,3.3359,3.3603,3.2516,3.2373,3.3331,3.4144,3.4958,3.5734,3.5524,3.607,3.727,3.7036,3.696,3.6923,3.6523,3.678,3.7474,3.7107,3.7643,3.8707,3.8707,3.8707,3.8707,3.8707,3.8707,3.8707,1.0225,1.04,1.0428,1.0322,1.04,1.0507,1.0645,1.1416,1.2231,1.2976,1.3878,1.4615,1.5073,1.5533,1.5852,1.5971,1.642,1.6731,1.6858,1.6879,1.6816,1.6701,1.6816,1.6816,1.6701,1.6816,1.6879,1.6879,1.7271,1.7544,1.7686,1.8516,1.8968,1.9114,1.953,1.9708,1.9708,1.9708,1.9708,1.9708,1.9708,1.9747,1.9874,2.0193,2.0365,2.0516,2.0975,2.1134,2.1197,2.1628,2.1764,2.1823,2.2194,2.2296,2.2296,2.2296,2.2296,2.2296,2.2296,2.2296,2.2307,2.2374,2.255,2.2746,2.2898,2.3129,2.3346,2.3414,2.3426,2.3511,2.3774,2.3816,2.4402,2.6198,2.5131,2.4956,2.7582,2.6553,2.6482,2.9012,2.9296,2.9904,3.1513,3.1678,3.1764,3.1947,3.254,3.3225,3.4045,3.4082,3.4449,3.5279,3.4247,3.4211,3.5298,3.5973,3.6703,3.7492,3.6868,3.7312,3.8689,3.8046,3.7786,3.7768,3.7584,3.7603,3.7768,3.7584,3.7955,3.8707,3.8707,3.8707,3.8707,3.8707,3.8707,3.8707,1.0303,1.0649,1.081,1.038,1.0668,1.1127,1.1686,1.2161,1.3019,1.4612,1.5219,1.5706,1.6303,1.6402,1.6625,1.7126,1.7209,1.7442,1.7947,1.7987,1.7767,1.725,1.7727,1.7747,1.725,1.7727,1.7987,1.7987,1.8027,1.8302,1.8779,1.8855,1.9169,1.9639,1.969,1.9708,1.9708,1.9708,1.9708,1.9708,1.9708,1.9927,2.0263,2.0297,2.0566,2.0991,2.1414,2.1568,2.1628,2.2092,2.2254,2.2237,2.2296,2.2296,2.2296,2.2296,2.2296,2.2296,2.2296,2.2296,2.2363,2.2612,2.2682,2.2855,2.3471,2.3649,2.3746,2.4064,2.4132,2.4123,2.4161,2.4161,2.4672,2.6249,2.6054,2.6195,2.7522,2.7899,2.8278,2.8948,2.9672,3.073,3.2362,3.2509,3.2821,3.3568,3.3678,3.4064,3.4876,3.4912,3.5316,3.6174,3.5339,3.5302,3.6193,3.6266,3.6703,3.7492,3.7437,3.7845,3.8707,3.8634,3.8615,3.8579,3.7823,3.7918,3.856,3.7823,3.7955,3.8707,3.8707,3.8707,3.8707,3.8707,3.8707,3.8707,1.0687,1.0886,1.1057,1.1188,1.1643,1.2078,1.2304,1.3318,1.4287,1.4908,1.5679,1.6377,1.693,1.6993,1.7209,1.7747,1.7807,1.7887,1.8086,1.8419,1.8361,1.7827,1.7987,1.8007,1.7807,1.8007,1.8106,1.8106,1.8438,1.8688,1.8912,1.9244,1.9497,1.9708,1.9708,1.9839,2.007,1.9818,2.0015,2.0481,2.0193,2.0347,2.0748,2.1007,2.1212,2.143,2.1869,2.2032,2.2046,2.2237,2.2296,2.2296,2.2296,2.2296,2.2296,2.2296,2.2412,2.255,2.255,2.255,2.2612,2.2935,2.3165,2.338,2.3649,2.3847,2.4054,2.417,2.419,2.419,2.419,2.419,2.4867,2.69,2.6304,2.6439,2.8845,2.8505,2.8608,3.0289,3.076,3.1586,3.3201,3.3348,3.3665,3.4472,3.4546,3.5133,3.6486,3.6541,3.6688,3.7033,3.6707,3.6707,3.7052,3.7533,3.7936,3.8248,3.8744,3.9163,3.9441,3.9441,3.9441,3.9405,3.8597,3.8414,3.8689,3.8377,3.8414,3.8707,3.8707,3.8707,3.8707,3.8707,3.8707,3.8781,1.1188,1.1375,1.1586,1.1976,1.248,1.2946,1.3296,1.4293,1.5109,1.5426,1.6216,1.69,1.725,1.7442,1.7767,1.8302,1.8361,1.8419,1.8593,1.8949,1.8912,1.838,1.8516,1.8516,1.8361,1.8516,1.8593,1.8593,1.8968,1.9151,1.9169,1.953,1.9708,1.9708,1.9821,2.0052,2.0297,2.0156,2.0464,2.0959,2.0649,2.0781,2.1213,2.1491,2.1688,2.1853,2.218,2.2296,2.2296,2.2296,2.2296,2.2296,2.2296,2.2296,2.2324,2.2398,2.2563,2.2746,2.296,2.3021,2.3069,2.3311,2.3533,2.3724,2.3827,2.4237,2.4511,2.4245,2.4593,2.4887,2.4622,2.4777,2.5472,2.7098,2.6683,2.6914,2.9075,2.889,2.9255,3.1176,3.1623,3.2302,3.366,3.3807,3.4137,3.4949,3.5004,3.572,3.7419,3.7749,3.7878,3.7878,3.8117,3.8245,3.8245,3.8542,3.8707,3.8707,3.9515,3.99,3.9916,4.0157,4.0139,3.9882,3.9588,3.9184,3.8726,3.8964,3.8927,3.8707,3.8707,3.8707,3.8707,3.8707,3.8707,3.8781,1.1792,1.2174,1.2518,1.2597,1.2996,1.3696,1.4838,1.5007,1.5368,1.6382,1.6972,1.7312,1.7312,1.7787,1.8322,1.8855,1.8912,1.9132,1.9672,1.9708,1.946,1.893,1.9424,1.9442,1.893,1.9424,1.9708,1.9708,1.9708,1.9708,1.9708,1.9708,1.9708,1.9711,2.0124,2.0299,2.0348,2.0813,2.0991,2.1023,2.1023,2.1244,2.1613,2.1613,2.1899,2.2296,2.2296,2.2296,2.2296,2.2296,2.2296,2.2296,2.2296,2.2296,2.2363,2.2621,2.2708,2.286,2.3522,2.3703,2.3703,2.3703,2.3703,2.3795,2.4132,2.4824,2.5172,2.4373,2.5493,2.6355,2.5558,2.6062,2.6602,2.6602,2.7273,2.7816,2.7824,2.92,3.0503,3.1323,3.2118,3.2913,3.3715,3.3807,3.4137,3.4949,3.5023,3.5738,3.7419,3.8267,3.8707,3.8707,3.946,3.9882,3.9882,3.9111,3.8726,3.8726,3.9533,3.9918,3.9937,4.0763,4.0671,3.9937,4.0763,4.0178,3.8781,3.9551,3.9423,3.8707,3.8707,3.8707,3.8707,3.8707,3.8707,3.8707,1.224,1.2389,1.2735,1.3514,1.4068,1.4658,1.5364,1.5798,1.615,1.6454,1.6972,1.7442,1.7827,1.8341,1.8874,1.9406,1.946,1.953,1.969,1.9708,1.9621,1.946,1.9603,1.9621,1.946,1.9621,1.9708,1.9708,1.9708,1.9708,1.9708,1.9708,1.9856,2.0124,2.0246,2.0634,2.1212,2.1055,2.1354,2.1886,2.1553,2.169,2.2092,2.2092,2.218,2.2296,2.2296,2.2296,2.2296,2.2296,2.2296,2.2296,2.2296,2.244,2.2599,2.2669,2.3033,2.3455,2.3649,2.3876,2.4054,2.4054,2.4054,2.423,2.4896,2.5227,2.5485,2.5823,2.6282,2.6539,2.6282,2.6447,2.6778,2.7346,2.8117,2.884,2.9402,3.0375,3.1329,3.2155,3.2454,3.2913,3.3715,3.4307,3.5004,3.5862,3.6964,3.7808,3.8322,3.8579,3.8707,3.8707,3.8927,3.9056,3.9056,3.9955,4.038,4.038,4.1203,4.157,4.1589,4.1827,4.1497,4.0726,4.0396,3.9992,3.9515,3.9184,3.9371,3.9773,3.9194,3.9117,3.9327,3.9327,3.9327,3.9495,1.3022,1.3125,1.3478,1.4544,1.4997,1.5399,1.5932,1.6486,1.6816,1.6816,1.7463,1.8066,1.838,1.8893,1.935,1.9672,1.9708,1.9708,1.9708,1.9708,1.9708,1.9708,1.9708,1.9708,1.9708,1.9708,1.9708,1.9708,1.9708,1.9782,1.9929,1.9929,2.0158,2.0583,2.0732,2.1118,2.1613,2.1538,2.1827,2.2282,2.1988,2.2063,2.2296,2.2296,2.2296,2.2296,2.2296,2.2296,2.2296,2.2296,2.2296,2.2324,2.2426,2.2577,2.2759,2.3021,2.338,2.3724,2.3847,2.4273,2.4677,2.4677,2.4677,2.4897,2.5686,2.6127,2.6403,2.6576,2.7115,2.7446,2.7126,2.7585,2.8191,2.8668,2.942,3.0118,3.0613,3.1366,3.2063,3.2546,3.3151,3.3663,3.393,3.4903,3.5862,3.6707,3.7973,3.8707,3.8707,3.8707,3.8707,3.8707,3.9331,3.9646,3.9646,4.1258,4.157,4.0653,4.1442,4.1992,4.2304,4.2635,4.2158,4.1077,4.0928,4.0304,3.942,3.9353,3.954,3.9788,3.9444,3.9414,3.9599,3.9599,3.9599,3.9731,1.3921,1.4103,1.4494,1.5522,1.5737,1.5984,1.6549,1.7055,1.7374,1.7374,1.8263,1.8893,1.8893,1.9387,1.9708,1.9708,1.9708,1.9708,1.9708,1.9708,1.9708,1.9708,1.9708,1.9708,1.9708,1.9708,1.9708,1.9708,1.9744,1.9929,2.0297,2.0348,2.06,2.1055,2.143,2.1612,2.1688,2.212,2.2296,2.2296,2.2296,2.2296,2.2296,2.2296,2.2296,2.231,2.2338,2.2335,2.2335,2.2377,2.2391,2.2429,2.266,2.2772,2.291,2.3522,2.3714,2.3824,2.4205,2.4842,2.5429,2.5576,2.5668,2.5888,2.6557,2.7273,2.7622,2.7053,2.8088,2.8913,2.8246,2.931,3.032,3.032,3.098,3.1525,3.1599,3.2327,3.2891,3.2947,3.4278,3.4995,3.4521,3.5703,3.6822,3.7632,3.8342,3.8735,3.8735,3.8704,3.8759,3.886,4.026,4.1084,4.1188,4.2642,4.2296,4.023,4.0965,4.1699,4.2433,4.3167,4.2653,4.1242,4.1919,4.0963,3.9022,3.9857,3.9834,3.9324,3.9548,3.9713,3.9804,3.9709,3.9717,3.9811,1.3453,1.4099,1.4923,1.5591,1.6054,1.6639,1.7612,1.7847,1.7927,1.7927,1.8496,1.8893,1.8893,1.9387,1.9708,1.9708,1.9708,1.9708,1.9708,1.9708,1.9708,1.9708,1.9708,1.9708,1.9708,1.9708,1.9708,1.9708,2.0017,2.0212,2.0314,2.0682,2.1071,2.1476,2.1552,2.1794,2.2149,2.2268,2.2296,2.2296,2.2296,2.2296,2.2296,2.2296,2.2296,2.2321,2.2537,2.2612,2.2647,2.2915,2.3002,2.3014,2.3069,2.3259,2.3511,2.366,2.3886,2.425,2.4961,2.5264,2.5705,2.6953,2.775,2.8088,2.764,2.7658,2.8099,2.92,2.9696,3.0081,3.0552,3.0889,3.114,3.114,3.1806,3.2559,3.3183,3.4209,3.5107,3.5733,3.6363,3.6678,3.6556,3.7401,3.8281,3.9076,3.9059,3.9008,3.9008,3.88,3.9098,4.0007,4.036,4.098,4.1862,4.2237,4.2514,4.2725,4.2892,4.3057,4.324,4.3423,4.2965,4.2011,4.157,4.1214,4.0888,3.9802,3.9934,4.0772,4.0209,4.054,4.125,4.056,4.0733,4.1423,1.474,1.5241,1.5905,1.6715,1.7083,1.744,1.8011,1.8322,1.8477,1.8477,1.8949,1.9281,1.9281,1.953,1.9708,1.9708,1.9708,1.9708,1.9708,1.9874,1.9982,1.9982,2.0208,2.0328,2.0328,2.0328,2.0208,1.9982,2.0195,2.0501,2.0927,2.1165,2.1522,2.1928,2.1928,2.2077,2.2296,2.2296,2.2296,2.2296,2.2296,2.2296,2.2307,2.2436,2.2487,2.2541,2.284,2.2947,2.2972,2.3141,2.32,2.3224,2.3392,2.3555,2.3815,2.4361,2.4641,2.4952,2.575,2.6521,2.7328,2.8172,2.9274,2.9843,2.865,2.8962,2.9652,3.0118,3.0503,3.0889,3.1323,3.1715,3.1971,3.1971,3.2754,3.3648,3.4487,3.524,3.5998,3.6843,3.7431,3.7926,3.8312,3.8346,3.8694,3.9542,3.9289,3.916,3.9327,3.9602,4.0013,4.0621,4.1372,4.2064,4.2674,4.3077,4.3541,4.402,4.361,4.3522,4.3742,4.3742,4.3298,4.2519,4.2094,4.1671,4.1196,4.047,4.0374,4.0711,4.0404,4.091,4.1731,4.1296,4.1662,4.2547,1.6326,1.6649,1.706,1.7929,1.8174,1.8283,1.8361,1.8746,1.9043,1.9043,1.9424,1.9744,1.98,1.98,1.98,1.98,1.98,1.98,1.98,2.0193,2.0416,2.0416,2.0797,2.0991,2.0991,2.0991,2.0813,2.0416,2.05,2.0894,2.1597,2.1688,2.1928,2.2296,2.2296,2.2296,2.2296,2.2296,2.2296,2.2296,2.2296,2.2321,2.2402,2.2625,2.2733,2.2835,2.3165,2.3323,2.3369,2.3369,2.3369,2.3432,2.3866,2.3994,2.42,2.5295,2.5613,2.5778,2.6594,2.7886,2.9023,2.917,3.0411,3.1219,2.9739,3.0448,3.125,3.0723,3.1176,3.1759,3.2047,3.2674,3.3197,3.3358,3.4005,3.4834,3.586,3.612,3.6553,3.7577,3.8317,3.901,3.9681,3.9102,3.8977,3.97,3.9594,3.9596,3.9876,4.0658,4.1198,4.1408,4.2721,4.349,4.3682,4.4409,4.4769,4.4769,4.403,4.3837,4.4102,4.4102,4.3729,4.3104,4.2955,4.2318,4.1389,4.1497,4.117,4.0625,4.0866,4.147,4.2239,4.2239,4.2681,4.3393,1.6468,1.7244,1.794,1.8071,1.8481,1.8949,1.9406,1.9548,1.9584,1.9584,1.9639,1.9821,2.0193,2.0212,2.0212,2.0212,2.0212,2.0212,2.0212,2.0649,2.091,2.091,2.0959,2.0991,2.0991,2.0991,2.0959,2.091,2.1243,2.1491,2.1613,2.2017,2.2237,2.2296,2.2296,2.2296,2.2296,2.2296,2.2296,2.2296,2.2296,2.244,2.2647,2.2682,2.2885,2.3177,2.3511,2.3816,2.4064,2.4064,2.4064,2.4184,2.4947,2.5177,2.5352,2.6198,2.6447,2.6612,2.742,2.829,2.917,2.9849,3.1256,3.2197,3.1274,3.125,3.158,3.2142,3.2545,3.3222,3.4691,3.5218,3.5695,3.6451,3.6066,3.6209,3.7792,3.7639,3.7956,3.9528,4.0001,4.0255,4.037,4.0274,4.0255,4.037,4.0759,4.1011,4.1071,4.1624,4.242,4.3465,4.3713,4.4294,4.5284,4.5399,4.5457,4.5457,4.5342,4.5025,4.4514,4.4514,4.4457,4.432,4.3547,4.33,4.3354,4.2694,4.2518,4.2697,4.2731,4.3258,4.3951,4.3951,4.4047,4.4143,1.7772,1.8224,1.8641,1.8932,1.9195,1.9424,1.9657,1.9892,1.9947,1.9744,2.0122,2.0398,2.0314,2.0533,2.0682,2.0682,2.0682,2.0682,2.0682,2.1102,2.1337,2.1337,2.16,2.1736,2.1736,2.1736,2.1736,2.1736,2.1628,2.1718,2.2003,2.2209,2.2296,2.2296,2.2296,2.2296,2.231,2.2463,2.2527,2.2537,2.2721,2.2865,2.3009,2.3177,2.3357,2.3587,2.4366,2.5035,2.5548,2.5548,2.5548,2.5603,2.5952,2.6062,2.6227,2.7034,2.7592,2.8124,2.8925,3.0051,3.1097,3.1445,3.2399,3.3183,3.2816,3.3234,3.366,3.3568,3.401,3.4815,3.619,3.6548,3.6747,3.7135,3.7002,3.7281,3.8516,3.8591,3.8997,4.0177,4.0441,4.0496,4.0496,4.0767,4.101,4.1212,4.1264,4.159,4.2257,4.2527,4.3101,4.4096,4.4604,4.5092,4.5594,4.5594,4.5594,4.5594,4.5594,4.5342,4.4884,4.4884,4.4884,4.4865,4.4467,4.4217,4.4058,4.3704,4.3365,4.3104,4.3104,4.3585,4.4355,4.4855,4.5037,4.5037]}]]